GFSGBSN_con_3kmhel_000.txt.gz
Helicity
171 192 87 27 29 28 29 43 49 39 29 28 23 28 24 31 37 47 58 58 59 56 63 85 102 97 135 140 162 162 107 127 119 85 59 76 94 136 130 135 117 115 107 124 87 39 47
164 159 146 126 36 35 23 34 44 45 37 24 28 29 29 30 38 52 66 62 59 56 66 72 94 91 113 89 75 149 152 154 119 104 56 75 71 87 127 127 133 221 199 73 98 64 78
120 120 147 155 51 58 47 30 30 45 45 32 36 27 42 35 35 51 65 67 61 59 56 60 60 47 46 32 65 158 195 95 123 69 60 74 52 187 206 150 130 129 121 114 109 80 69
88 105 109 154 150 93 94 41 33 34 46 41 48 49 57 51 42 53 69 73 81 76 75 72 79 58 45 34 63 74 122 140 102 78 70 65 124 143 169 180 203 166 138 115 116 133 99
72 76 73 135 167 176 166 39 37 27 30 35 62 60 74 55 48 57 78 82 83 87 98 107 120 92 46 68 89 72 135 144 124 109 69 61 139 181 193 183 142 139 148 177 156 134 146
56 50 94 107 133 153 166 127 37 36 25 24 64 78 82 64 56 66 91 106 111 121 133 127 148 104 78 77 81 73 127 148 169 171 169 135 203 206 216 202 166 153 156 148 177 192 134
54 56 53 101 118 144 175 200 206 55 37 28 47 69 88 77 68 84 154 157 155 147 153 124 123 127 132 99 81 108 141 201 239 293 261 231 248 202 149 157 159 158 139 131 219 205 109
57 60 70 96 100 125 170 65 218 218 31 39 39 90 87 80 65 97 151 147 113 122 96 57 77 102 135 188 155 139 184 242 239 213 221 258 222 165 109 105 119 136 117 93 82 98 130
56 53 75 97 87 113 139 68 127 94 71 51 40 80 97 77 75 119 128 107 84 92 85 61 112 166 156 171 205 139 187 203 216 169 165 183 173 71 141 126 154 129 119 129 117 88 75
61 46 65 85 101 87 94 164 143 37 143 66 56 96 113 139 157 147 102 90 87 86 86 37 81 77 71 111 164 127 160 205 260 135 109 158 83 110 113 131 130 121 133 86 83 121 140
59 29 48 51 81 57 45 69 191 41 98 152 40 78 181 215 130 140 75 103 97 85 148 71 87 46 59 84 127 63 120 168 171 206 228 202 137 107 88 86 82 118 73 84 90 112 130
31 17 33 43 43 49 74 61 166 204 42 53 102 130 188 242 150 99 104 135 117 168 137 108 99 85 98 49 122 142 93 84 140 142 162 184 177 139 143 95 86 104 89 105 110 121 210
28 26 20 32 36 61 42 77 138 93 72 55 162 199 186 229 162 118 163 165 191 172 119 92 98 89 104 106 86 113 193 166 236 257 199 188 102 198 142 110 113 106 103 210 211 235 247
25 24 28 36 18 54 1 60 160 85 92 18 -42 211 180 255 187 162 192 210 173 115 118 116 98 129 131 122 110 111 148 113 80 153 149 136 160 121 134 104 156 119 137 234 287 220 154
42 43 18 44 29 -17 7 118 128 52 60 80 109 232 273 164 169 188 201 198 109 95 102 100 119 117 104 76 115 89 81 93 62 157 112 88 82 128 130 180 149 105 116 58 132 98 104
50 51 -6 44 33 -41 34 265 102 21 54 25 24 390 216 93 138 186 191 122 82 69 116 97 83 103 76 93 94 75 94 65 109 101 116 73 100 88 91 95 76 117 114 154 101 74 6
31 37 -11 32 25 -16 9 225 77 53 98 172 159 683 190 122 221 182 146 87 56 61 106 84 97 104 61 132 120 80 32 15 54 11 95 19 -4 -80 125 -14 -12 78 79 135 47 52 -44
42 25 -16 22 35 0 9 123 83 37 220 -75 131 314 146 126 210 214 83 97 34 52 68 105 83 75 70 94 35 34 70 31 55 25 126 120 -30 -80 -44 -57 -91 20 -16 -3 -103 -101 -108
41 4 -19 -8 0 5 18 39 38 132 293 115 245 336 153 127 221 157 80 79 42 30 66 74 47 50 61 46 0 93 56 27 23 43 35 130 -25 -15 -41 -43 -7 -33 -13 3 -16 -119 -199
34 -21 -21 18 16 25 21 27 103 81 335 204 462 477 219 153 164 77 47 62 46 23 26 88 27 -6 17 34 36 -4 31 -11 6 30 60 45 -66 80 88 -34 -13 -32 -19 -46 -25 -131 -131
29 -29 -31 15 50 49 9 28 48 132 342 228 248 334 284 139 118 46 71 48 27 23 54 52 -18 16 11 20 27 57 40 27 -38 12 73 113 127 131 200 118 79 -65 -32 -5 -40 -53 -43
16 -30 -31 -5 34 52 43 21 21 234 433 194 255 199 138 80 67 73 9 17 12 7 52 -2 5 -18 22 7 4 2 46 64 87 157 120 131 265 249 223 64 13 13 39 2 -41 -71 -126
-7 -31 -32 -3 27 65 68 9 43 299 281 128 126 226 190 151 73 42 63 26 8 33 -1 3 13 5 -13 14 16 -29 -10 -25 -12 96 244 304 323 280 94 58 67 38 104 31 -35 -51 32
-7 -22 -26 -13 26 65 66 76 60 183 255 250 113 167 139 93 76 32 9 -3 15 -9 -13 -11 -29 -4 10 28 -16 -27 -2 -55 -51 119 130 216 374 273 53 47 105 51 106 226 237 118 166
-2 0 -17 -19 19 59 94 100 63 149 334 284 265 146 106 104 63 49 56 20 12 17 -16 -17 55 95 41 42 29 29 30 43 -2 0 48 128 116 175 55 67 70 36 15 18 57 12 -9
-1 5 -12 -20 21 69 117 120 59 198 333 254 131 170 132 91 52 54 44 35 29 2 -13 -18 4 88 54 52 30 62 44 44 19 16 19 53 52 46 58 38 12 49 53 40 36 38 25
1 2 -16 -23 25 73 119 120 70 92 270 289 100 70 108 84 59 47 34 27 10 2 -18 -27 16 78 78 56 60 65 64 38 37 47 41 30 35 -6 16 26 52 37 29 40 71 30 90
-4 -5 -13 -18 29 79 107 147 98 115 287 227 148 96 85 67 51 15 50 27 24 20 -29 3 27 92 131 85 93 51 35 20 40 34 44 95 57 14 13 3 24 28 35 40 22 33 28
-6 7 -9 -16 26 80 111 175 140 168 288 252 63 90 67 59 49 41 44 29 -10 4 -1 24 49 89 105 94 88 79 51 48 32 48 46 40 79 51 19 12 23 40 48 39 15 20 16

GFSGBSN_con_3kmhel_003.txt.gz
Helicity
121 116 99 115 112 175 128 24 32 20 38 53 27 38 18 16 13 15 22 29 34 39 49 72 92 114 160 124 111 116 149 118 87 73 81 107 127 148 121 101 110 139 99 114 94 54 39
67 111 123 117 75 114 91 122 22 38 24 39 37 53 32 26 27 24 28 36 45 54 59 63 84 111 131 91 70 120 154 198 156 133 100 120 121 128 135 111 107 141 146 75 73 63 39
39 46 71 98 119 105 75 145 177 44 34 27 40 52 50 38 36 26 40 38 43 49 64 62 59 79 81 41 69 102 162 130 158 144 123 80 105 160 205 121 122 91 80 93 100 96 51
46 55 67 69 74 155 89 131 154 135 47 21 27 24 64 54 52 39 41 43 58 81 69 66 78 75 34 57 98 43 83 119 105 91 93 90 99 158 173 195 177 140 111 72 66 90 103
55 64 52 62 92 106 163 135 171 157 163 63 22 10 45 73 67 54 51 63 79 89 91 107 99 77 31 96 89 68 85 137 141 137 118 120 163 179 219 186 156 144 134 122 93 105 138
63 48 51 51 65 92 110 164 171 229 175 215 68 16 26 106 81 60 71 97 106 121 141 147 133 83 59 72 88 83 71 122 166 173 192 160 217 234 248 228 234 194 168 102 70 99 124
67 54 47 36 41 73 122 119 187 149 153 149 157 45 26 103 118 73 161 201 186 145 154 115 90 89 99 95 102 116 115 228 216 245 232 239 282 332 239 209 167 152 133 144 143 126 137
76 65 56 61 72 47 92 116 130 214 153 139 178 84 44 124 137 129 209 193 118 120 78 41 90 72 166 163 123 141 135 220 244 245 285 295 235 263 237 208 164 146 136 126 89 84 119
57 51 48 53 49 41 73 125 123 156 164 105 184 120 56 151 139 199 142 163 103 94 86 78 112 125 128 142 151 134 167 209 216 271 273 253 253 173 236 203 196 177 163 142 113 110 63
47 40 35 40 28 17 60 59 65 97 174 121 123 226 58 192 267 191 126 115 95 89 107 53 93 113 154 237 151 136 128 196 244 195 207 186 157 148 212 172 194 140 144 96 104 120 117
54 41 35 43 25 20 22 46 75 72 79 192 -53 272 81 324 320 243 123 144 109 107 143 85 125 95 92 115 142 103 141 203 221 238 284 254 169 154 136 154 113 169 101 109 107 146 146
43 43 55 38 32 19 7 34 81 83 73 131 78 210 88 377 335 160 138 174 138 205 157 94 120 122 131 72 159 179 124 97 181 201 194 191 138 186 185 109 133 162 122 90 133 154 204
54 43 55 21 22 9 12 37 46 54 119 94 68 47 100 467 326 203 214 235 242 217 141 117 129 136 110 135 118 148 143 155 218 247 248 186 136 234 177 172 138 142 160 282 232 312 322
37 53 66 27 3 21 2 -20 12 149 135 56 71 -11 108 525 276 206 270 322 227 122 155 123 108 152 128 138 124 146 179 180 175 291 244 221 218 139 201 191 214 155 162 299 377 299 174
38 53 53 41 -1 -12 -25 -42 217 154 108 46 54 -182 46 251 222 231 309 260 134 108 107 132 165 148 109 114 152 119 118 104 163 183 146 157 123 175 136 122 219 173 143 121 155 137 190
34 39 44 17 -5 -33 -23 -19 121 60 80 84 -18 -73 80 230 212 195 275 173 127 107 113 134 114 66 75 101 119 149 107 66 135 202 183 124 100 91 87 120 88 144 84 152 174 146 92
34 35 32 -32 -13 -6 17 -14 49 98 72 48 60 -28 151 218 298 266 222 153 91 63 88 105 67 86 85 100 128 113 14 -9 71 47 181 40 5 -10 97 99 168 159 106 153 136 152 132
33 28 19 -15 -23 26 52 -0 16 58 7 95 50 48 175 266 267 238 160 81 61 63 123 110 59 51 84 113 38 90 50 27 33 115 114 89 10 36 113 98 104 70 110 155 21 -28 -78
23 23 13 -10 -18 13 70 20 18 80 105 94 78 180 275 200 344 174 71 76 96 62 66 62 45 55 50 -23 2 78 59 13 115 155 112 122 95 69 -8 61 65 -24 -9 -18 -10 -48 -87
22 18 13 -6 -21 20 51 6 -0 119 273 138 80 231 203 162 203 131 75 53 51 57 11 12 28 67 -3 -22 -15 3 7 -9 66 69 97 34 38 139 138 2 -23 7 -25 14 -16 -54 -59
18 13 2 -16 -19 36 67 26 -14 145 448 84 178 179 260 132 105 52 87 43 29 41 18 5 12 -23 -22 -6 -11 4 10 31 33 76 62 45 113 152 108 83 36 -28 -39 33 12 79 -91
31 2 -3 -21 -7 43 96 85 17 162 571 91 142 237 224 167 61 66 39 16 33 13 11 19 23 -16 -32 4 -1 -30 4 44 78 110 123 40 143 161 418 424 277 -31 -10 -10 107 41 13
27 2 -0 -9 -17 39 85 101 84 90 257 110 272 323 247 79 125 55 26 31 28 7 2 25 -5 -25 -20 14 50 -63 -38 -23 -13 148 199 223 245 250 285 31 11 -5 9 8 89 13 6
20 3 2 -15 -22 37 87 117 114 89 161 154 159 276 246 161 26 57 52 37 4 -9 11 6 4 -22 11 32 -3 -28 -34 -33 -7 138 268 270 317 217 72 33 38 7 -22 62 111 35 47
15 3 -1 -13 -24 38 75 116 139 122 101 93 84 230 151 63 61 36 52 36 11 -0 -19 14 14 56 86 44 18 -10 14 12 41 116 242 234 208 166 146 96 59 94 122 146 130 143 137
25 -11 -11 -12 -24 38 73 132 176 140 174 204 149 89 163 91 89 72 26 77 25 17 27 15 36 65 66 56 24 22 19 25 23 15 17 58 63 32 101 50 41 46 102 141 135 68 71
20 16 -9 -1 -16 27 85 118 180 144 190 227 289 215 137 54 83 116 72 45 28 33 6 11 -5 13 75 71 43 22 57 30 46 23 -5 6 14 33 19 36 43 23 -8 21 -14 41 23
21 19 -11 -1 -5 19 80 128 177 125 207 236 198 164 122 100 76 46 52 53 70 40 -6 -13 -30 9 72 116 61 50 47 9 42 20 27 25 18 -3 13 17 9 11 -10 -9 11 19 34
28 16 -15 10 10 23 69 114 154 104 205 287 185 77 53 99 68 56 28 25 45 35 16 6 -6 38 146 145 66 50 28 27 44 60 34 26 26 1 -0 -0 18 40 18 25 10 27 2

GFSGBSN_con_3kmhel_006.txt.gz
Helicity
47 53 76 100 111 81 94 -25 84 125 137 19 10 23 29 15 5 14 24 33 40 44 38 39 48 61 79 89 73 74 86 70 37 126 92 73 110 111 101 109 160 174 135 126 94 72 64
46 43 40 65 97 116 97 121 70 80 116 65 25 17 23 37 8 25 27 37 38 46 44 43 56 69 90 79 58 106 149 157 93 89 72 90 74 85 90 92 131 189 164 122 101 65 56
33 39 44 47 40 65 104 135 145 122 145 189 99 23 14 44 31 16 26 37 29 32 42 48 57 67 63 32 77 89 186 163 153 103 94 88 104 128 146 84 127 97 114 109 98 97 85
49 45 49 51 48 36 55 94 125 155 183 100 196 99 38 12 76 18 27 32 37 61 43 43 77 64 29 38 53 54 97 127 121 113 111 79 77 99 153 153 162 130 119 115 105 111 132
59 60 57 57 60 78 57 61 103 111 183 238 82 205 91 46 73 66 34 27 79 92 105 97 81 59 15 65 70 65 89 81 122 126 99 95 110 107 138 180 156 150 173 153 152 154 141
96 79 63 64 68 80 80 75 65 114 129 177 143 78 186 90 39 100 61 62 92 127 154 125 90 59 55 41 82 120 97 135 124 134 142 132 144 172 217 242 218 180 193 139 110 107 175
80 71 46 48 52 49 47 26 56 86 128 146 148 149 137 154 50 154 204 173 172 124 137 95 72 100 71 71 131 118 106 173 169 185 150 168 180 210 142 150 174 207 186 149 158 137 109
19 47 19 53 57 30 20 -1 49 74 78 141 113 151 107 183 72 218 242 183 142 95 65 39 70 55 93 140 122 127 104 148 192 171 211 206 141 152 178 182 181 163 144 137 117 129 114
70 59 55 42 45 40 14 -10 53 60 72 93 128 100 126 139 51 340 211 153 132 96 75 64 83 92 133 116 109 92 123 181 174 215 195 185 213 149 174 253 230 223 184 179 121 130 125
73 46 42 49 38 39 28 11 27 25 42 39 121 180 164 80 146 384 271 189 144 96 113 45 81 91 153 200 87 127 159 198 231 136 147 146 166 206 203 215 221 149 164 122 126 133 101
48 43 61 55 46 44 26 13 33 31 43 86 73 180 36 87 10 425 223 248 129 129 168 70 112 116 113 187 181 137 166 203 193 175 224 185 178 162 171 209 210 237 101 127 142 184 161
45 40 39 59 43 41 11 16 -19 31 44 74 114 170 117 -26 80 352 187 174 183 249 165 82 96 100 108 104 159 151 119 134 177 165 188 197 189 197 213 191 161 248 172 152 168 162 170
46 38 35 50 42 27 -7 3 -34 -42 87 154 74 78 31 63 215 273 230 313 350 236 152 89 96 93 85 132 119 135 119 159 197 197 179 159 134 296 233 198 165 160 195 257 215 239 221
38 37 39 44 33 36 -15 -83 -42 3 140 87 94 26 -11 152 176 230 227 312 261 141 167 85 100 151 142 136 97 106 137 158 119 215 204 189 162 255 198 182 142 160 198 249 262 254 114
27 35 31 32 29 15 -27 -39 -33 33 48 137 17 -9 -91 10 125 388 266 328 169 151 139 145 98 122 102 99 119 114 111 136 153 217 182 194 206 169 163 139 124 161 184 115 179 150 151
5 18 21 18 11 14 -11 5 -6 -1 41 72 9 -4 -32 71 271 249 289 226 231 196 132 125 120 102 103 91 126 112 104 89 54 168 137 219 162 114 96 111 49 131 155 169 253 186 190
0 18 15 8 6 3 -4 6 4 6 32 117 24 11 -46 100 296 325 239 229 188 144 104 92 105 121 76 87 79 102 100 90 58 63 158 237 234 163 126 166 158 124 106 173 155 199 140
6 17 14 0 1 -3 2 33 14 15 52 17 38 67 -54 126 161 198 223 228 163 134 118 100 93 86 60 57 55 86 48 34 74 151 144 162 152 174 215 93 80 137 124 171 234 210 195
14 26 17 -5 14 -17 0 70 46 25 61 85 28 38 112 207 183 167 196 188 185 108 80 72 60 59 62 62 88 22 91 36 146 171 112 169 111 111 126 143 159 140 127 99 39 -16 -51
18 27 6 -1 19 -7 3 39 70 26 47 115 48 115 154 89 175 145 128 141 122 92 50 61 47 81 63 -16 -25 37 39 47 88 105 111 166 137 188 267 218 99 122 129 108 45 38 102
19 25 2 0 -6 -12 19 56 71 23 142 86 73 124 166 110 81 110 127 63 75 83 52 34 16 13 38 -2 -17 24 -17 -28 77 95 146 159 261 243 288 231 179 152 98 118 200 176 111
22 13 10 11 -2 -10 39 73 93 61 285 78 84 93 118 62 5 96 107 45 27 28 28 9 21 11 -6 15 18 12 -5 10 77 103 201 168 231 276 581 476 423 357 166 64 118 154 201
29 23 21 -3 -1 5 49 81 104 136 155 8 61 134 105 45 75 92 58 35 29 32 17 15 3 0 8 12 13 10 -11 -19 -13 69 163 186 321 385 250 75 122 155 191 144 75 130 127
26 23 24 -9 6 18 56 87 147 151 133 31 107 214 144 69 -2 28 7 20 36 16 17 32 6 2 2 32 -22 -31 -16 8 -6 64 292 298 312 288 163 69 121 26 -9 140 199 52 120
14 22 22 -8 23 24 59 90 136 168 126 101 68 158 131 36 -43 22 35 57 21 16 -4 -9 -3 9 35 1 -16 -14 -16 -5 11 98 253 268 249 128 149 115 147 193 93 -9 144 105 121
17 13 11 -12 9 31 51 92 120 190 154 123 90 84 159 127 -47 102 80 54 57 43 21 3 15 26 28 6 14 37 3 17 17 15 -2 87 105 47 74 80 52 129 114 74 151 238 284
25 17 11 -7 19 35 63 91 138 172 203 108 99 65 216 152 137 106 34 32 48 42 19 4 4 20 19 23 32 43 39 28 32 31 -16 1 13 55 74 60 56 56 56 51 120 124 57
41 12 8 10 12 30 68 102 126 166 187 58 119 164 164 161 99 136 97 63 94 68 15 2 2 -20 8 26 82 105 28 37 57 37 11 8 5 -16 -9 -27 1 -6 4 -13 59 72 25
54 20 2 9 2 22 35 81 105 119 192 122 102 223 143 72 70 59 49 56 48 27 32 20 2 -35 -9 29 69 76 29 31 43 72 26 22 19 6 13 0 3 -4 3 28 36 47 6

GFSGBSN_con_3kmhel_009.txt.gz
Helicity
42 45 38 36 49 58 76 110 121 79 60 108 93 129 26 14 20 10 -6 19 35 45 54 64 85 83 80 85 47 39 36 49 66 122 100 80 104 80 63 76 133 134 86 80 70 93 97
33 33 37 42 44 26 32 46 91 99 116 164 123 107 143 50 25 47 12 13 30 40 62 64 85 76 86 51 53 58 61 79 75 74 85 87 68 77 79 88 107 122 97 89 53 23 69
34 43 55 62 61 64 69 65 47 51 96 133 209 206 145 109 51 38 40 6 23 38 57 67 77 77 62 38 48 68 136 105 105 70 89 84 80 98 79 79 95 93 86 57 59 64 71
49 69 67 72 66 72 72 80 73 75 76 106 161 252 89 240 84 48 63 2 14 44 50 57 79 78 33 45 38 17 72 105 112 105 97 83 96 98 86 88 109 80 70 68 77 94 98
62 64 64 51 56 63 61 64 62 57 62 118 132 217 112 136 194 68 99 52 45 70 90 74 94 64 41 50 43 33 74 81 100 108 113 93 89 76 103 107 96 105 107 86 104 76 110
26 20 43 42 53 36 40 39 41 20 41 87 143 172 190 79 215 151 56 99 134 142 145 117 86 60 61 47 58 74 108 102 106 123 122 107 115 108 118 121 117 75 108 92 104 87 143
56 87 81 35 65 39 19 21 28 34 42 50 112 119 126 176 159 202 234 352 247 146 121 83 60 108 93 71 78 83 111 165 150 142 112 124 119 104 90 108 133 132 98 84 112 105 77
80 74 61 43 54 35 40 34 33 39 35 16 77 91 103 163 172 277 264 394 211 45 67 52 84 60 79 87 91 97 94 111 123 100 132 123 78 86 141 137 105 90 70 66 66 77 95
52 60 60 64 67 33 50 62 39 30 32 33 29 49 108 165 210 46 222 238 258 181 87 87 79 90 95 91 95 72 103 130 117 134 118 135 127 149 74 105 112 82 86 83 75 86 102
72 68 75 63 48 26 56 46 29 14 1 25 45 39 98 154 62 -26 260 269 137 138 107 61 86 76 130 181 93 118 116 133 133 72 104 74 96 121 160 151 135 77 160 110 104 125 114
92 83 89 64 37 38 42 33 15 19 -26 -0 40 58 82 114 125 68 283 272 191 160 122 76 123 120 110 156 122 116 180 211 164 146 172 113 95 117 84 108 162 157 163 157 151 137 151
105 101 86 48 32 36 36 33 9 -53 10 33 140 86 45 17 56 27 203 290 310 320 149 98 87 112 143 164 192 171 107 154 141 133 106 111 140 137 124 106 128 198 211 200 227 193 237
114 112 96 25 24 28 21 -5 -31 -28 -15 -12 69 59 50 5 17 46 103 335 438 258 162 114 101 95 80 131 146 121 119 118 129 138 116 109 89 163 177 172 167 251 246 187 220 267 306
88 106 41 28 16 17 -6 -24 -10 -11 -5 -28 90 70 26 -4 50 132 316 450 361 176 238 103 102 111 120 118 98 101 108 107 75 147 119 106 135 83 104 79 164 244 250 263 261 210 143
97 71 28 21 14 -0 -31 -40 -6 13 -11 54 113 32 33 47 57 253 313 346 217 122 165 171 131 153 130 121 118 107 74 83 89 186 122 138 111 78 58 105 146 220 271 138 248 156 172
102 42 28 23 13 -3 -27 -35 2 17 -2 64 30 -0 45 6 -11 325 267 265 264 169 141 132 124 91 74 81 96 63 51 55 74 152 113 163 117 106 132 200 162 214 169 261 251 224 192
94 38 32 29 -4 -3 -21 -30 11 31 32 11 21 5 21 67 39 174 175 327 243 143 119 124 134 112 81 85 70 75 52 55 44 89 114 160 144 162 188 178 267 231 256 227 203 197 260
89 35 33 16 -2 -3 -12 -11 28 55 71 -51 105 52 84 86 196 191 168 171 189 165 195 127 94 103 97 57 44 54 42 1 70 159 106 105 109 228 258 220 149 216 250 185 232 243 198
65 31 16 5 11 2 -8 19 55 71 37 91 64 134 31 213 208 304 239 220 172 127 107 95 83 74 49 20 20 18 29 17 138 169 108 156 166 97 97 201 253 365 370 265 159 117 52
67 34 15 13 9 8 -3 40 48 55 81 52 42 95 72 73 156 168 199 206 168 118 76 65 61 77 54 18 9 17 -4 49 90 81 83 137 213 275 308 303 230 372 352 231 204 253 267
61 36 27 12 -11 -6 25 50 90 99 196 54 83 77 90 82 80 111 165 154 139 105 76 47 58 31 29 13 -3 -2 -16 25 85 53 105 222 216 258 428 546 503 432 420 329 257 262 301
57 43 24 17 -13 2 23 66 106 190 221 63 26 90 89 97 65 100 105 84 100 66 56 31 45 19 37 29 16 -3 -5 -46 19 63 192 228 257 252 376 408 319 330 375 388 379 251 308
71 33 28 12 8 16 28 71 98 184 181 59 59 117 98 78 72 61 48 34 41 25 27 28 29 33 19 4 -17 -12 -10 -3 21 77 178 165 232 293 395 257 207 112 89 272 335 306 183
73 48 37 10 -5 25 36 75 86 153 143 95 28 93 94 71 43 34 4 64 29 35 25 26 10 6 22 10 -26 -27 -16 41 52 105 131 196 250 259 334 218 162 145 46 123 224 237 267
49 57 35 24 -4 36 28 61 85 105 139 111 45 78 76 34 52 -64 -9 50 57 36 11 6 -6 -23 9 -10 -12 -29 -20 19 23 112 107 219 163 183 229 184 168 226 116 49 132 121 277
54 68 47 25 10 20 54 58 73 105 126 140 69 86 86 40 1 7 58 33 39 22 -1 9 15 10 -3 -14 -22 17 66 14 9 -3 3 28 97 78 67 119 188 243 133 124 145 137 70
54 60 74 29 7 7 36 61 96 98 137 143 85 57 57 60 58 14 -3 40 58 57 19 11 -7 -6 21 3 14 48 83 11 6 4 -30 -13 17 61 75 95 101 115 93 124 105 192 190
55 50 72 50 7 13 25 47 89 93 98 106 137 53 86 99 107 83 77 87 123 68 18 6 -0 -1 21 13 7 20 27 19 28 26 32 -10 -4 -4 -1 16 20 37 37 40 140 163 63
59 41 58 65 18 -6 29 41 73 128 97 98 81 179 209 90 61 75 75 48 49 54 70 28 12 9 -23 -17 -4 17 29 32 44 69 39 53 -3 1 12 -1 14 32 82 105 121 126 27

GFSGBSN_con_3kmhel_015.txt.gz
Helicity
38 33 22 17 36 39 44 38 42 32 33 37 57 90 93 157 143 147 133 111 25 17 25 35 59 74 89 90 107 45 41 63 38 47 32 52 71 92 115 115 122 107 84 86 84 92 51
26 23 12 16 29 33 49 43 47 45 32 29 41 29 84 107 156 149 158 136 21 35 26 39 61 73 84 79 90 99 44 57 70 30 38 51 131 136 169 180 131 156 112 99 66 50 30
16 5 42 38 26 30 42 47 56 44 45 32 33 43 39 84 137 219 234 175 77 41 31 40 54 63 86 64 75 77 32 35 88 36 51 93 98 115 86 107 102 108 57 58 35 24 20
16 53 47 38 41 65 84 56 46 38 13 11 18 26 40 75 136 186 234 208 229 36 47 53 58 70 106 121 69 60 52 43 44 108 79 78 94 112 135 139 71 78 55 74 36 76 41
55 48 55 70 65 74 85 39 67 28 25 18 27 47 51 58 128 172 198 223 152 55 51 69 86 82 80 60 63 41 52 58 80 62 61 60 75 88 69 68 83 51 97 44 80 34 67
46 68 72 94 72 88 65 54 45 41 32 30 44 22 31 41 124 158 98 218 201 144 98 134 170 92 55 82 91 83 65 77 87 119 158 141 129 78 49 67 102 81 43 83 72 49 21
67 88 106 97 90 67 54 52 39 50 37 31 28 5 4 30 61 117 -58 140 93 198 156 247 84 177 57 118 102 103 67 60 82 86 151 126 138 55 35 37 66 116 132 88 71 60 39
86 83 90 104 68 26 38 39 40 31 21 15 1 -1 3 33 63 74 21 32 389 346 244 117 129 108 80 80 119 119 68 110 88 91 107 118 46 31 52 65 44 47 47 52 39 33 57
76 76 76 57 36 21 28 26 24 26 15 12 -3 21 20 42 56 33 64 -223 149 356 142 72 98 68 80 84 87 59 26 84 40 57 44 54 49 61 23 29 32 21 31 39 49 91 63
72 71 77 76 32 32 29 26 25 16 -15 -18 -24 -23 -2 21 33 28 27 -217 9 246 172 141 104 105 103 90 115 43 27 87 114 41 37 32 19 17 20 21 22 37 45 49 66 63 35
54 104 94 39 32 34 28 24 18 -14 -23 -19 -10 -32 -44 -3 5 48 52 7 73 110 161 65 148 93 83 105 68 71 48 111 60 70 75 55 36 11 12 3 28 50 123 91 85 69 93
56 103 100 37 33 33 24 15 13 -9 -3 -15 -25 -28 9 -11 -20 69 60 54 183 156 92 115 167 121 112 111 110 93 127 145 133 85 44 78 63 55 20 48 43 148 96 74 74 135 133
37 102 88 48 19 16 15 15 -24 19 26 -22 7 85 20 3 45 26 5 22 153 241 54 87 118 118 105 132 96 71 92 116 95 88 45 23 36 58 67 81 86 102 145 113 55 111 162
45 87 84 43 22 20 23 7 13 28 22 9 19 2 6 36 20 24 113 24 424 106 182 53 99 95 141 114 71 80 75 65 40 66 64 25 39 27 48 53 118 58 111 145 136 159 149
47 94 87 40 20 17 18 14 26 39 32 3 -46 9 13 19 37 91 115 118 121 101 95 76 47 84 96 53 68 71 43 39 36 52 65 67 82 75 80 88 61 154 112 33 165 123 171
63 103 91 57 19 -1 -4 -18 20 56 31 15 71 50 -2 25 54 79 119 68 108 124 46 52 101 65 71 48 68 49 43 29 45 1 22 92 80 70 107 105 73 91 162 174 154 227 176
82 73 89 63 16 -2 -30 -38 11 45 80 83 21 26 19 17 63 141 72 84 119 75 145 135 59 39 31 24 47 33 37 75 -5 20 12 49 70 87 109 55 70 119 86 164 167 259 284
78 90 86 77 20 -3 -23 -12 40 77 95 13 11 16 7 31 91 159 104 127 90 122 309 153 66 74 37 24 36 29 44 81 28 32 28 27 55 -6 -10 38 46 25 86 86 206 183 276
73 89 90 84 17 -22 -30 8 52 116 9 14 69 81 54 136 118 95 109 158 104 91 105 47 43 46 26 4 60 36 35 48 28 25 25 83 -25 -47 -113 11 14 66 49 96 179 171 309
64 90 73 68 10 -14 -18 24 59 121 7 10 88 86 70 171 127 48 166 59 47 57 53 41 46 25 48 37 86 24 41 34 21 15 141 47 7 -35 -42 -49 32 117 168 123 90 248 234
46 79 65 75 18 -20 -16 29 53 107 84 60 96 62 126 86 51 73 92 94 50 49 20 24 31 39 43 38 23 22 27 32 28 24 49 32 10 15 79 97 44 66 104 150 185 206 215
39 56 65 77 20 -24 -25 37 58 85 96 99 80 81 50 23 43 22 77 66 57 43 50 21 4 -2 24 26 51 26 15 3 -4 18 -6 39 41 34 163 110 41 152 114 57 70 100 199
24 49 54 74 46 -23 -37 49 56 84 54 44 62 92 58 12 44 37 32 43 42 16 35 39 26 12 18 51 58 37 16 23 32 32 -10 48 44 34 57 37 85 24 60 71 84 91 126
24 46 48 72 66 2 -47 53 57 86 103 27 56 97 93 60 25 -1 34 43 20 37 26 21 15 41 46 41 38 7 9 6 -2 0 16 33 45 28 79 96 17 52 84 63 72 54 48
37 41 51 65 75 49 -26 -47 65 86 120 69 57 96 102 57 21 18 28 59 52 25 34 19 22 33 21 28 28 31 5 -8 4 21 9 47 30 17 62 84 189 26 42 82 62 90 21
47 43 48 62 79 68 28 -59 68 108 136 79 17 67 97 99 30 32 18 27 47 37 31 23 19 26 10 25 34 44 30 21 7 15 0 -6 53 10 43 51 34 35 56 91 50 50 -42
46 43 51 52 81 90 52 8 -73 93 147 92 22 29 45 70 99 80 23 27 38 29 43 28 20 6 6 17 39 47 37 44 35 7 -4 6 13 35 25 47 35 149 95 41 36 27 41
44 43 53 66 69 86 74 35 -4 -75 112 118 58 -4 27 81 93 86 58 42 36 24 31 30 10 12 3 21 33 28 28 23 33 19 -2 -17 2 4 -2 7 8 45 16 12 18 10 16
38 46 48 65 80 106 86 48 24 -10 -66 107 81 62 25 56 88 77 94 74 96 63 50 6 38 19 17 3 4 7 28 32 23 21 27 12 3 39 -2 18 15 6 31 28 29 27 5

GFSGBSN_con_3kmhel_021.txt.gz
Helicity
22 42 66 81 66 35 55 62 91 89 60 44 42 31 33 59 70 72 96 102 146 213 153 46 57 57 93 97 77 62 45 27 39 67 61 60 142 164 151 122 135 139 122 113 112 126 95
28 62 67 67 89 81 98 115 77 37 34 63 61 51 29 31 50 44 82 105 142 197 194 50 79 61 113 96 65 50 54 65 54 52 30 40 123 94 123 116 157 147 119 154 137 117 113
43 51 99 79 69 79 85 82 34 15 35 29 56 36 29 41 46 26 29 70 110 215 193 200 42 72 106 64 79 48 50 38 14 39 36 -14 90 150 151 170 173 182 191 169 101 70 76
53 79 80 70 46 68 84 51 15 17 30 42 32 22 13 16 25 21 24 42 113 154 169 249 49 98 102 61 119 66 67 65 67 43 23 87 120 118 139 179 167 159 113 93 61 79 96
70 68 57 52 86 89 57 29 29 31 30 24 21 23 11 12 15 16 20 37 100 166 172 196 115 129 102 109 76 71 73 42 43 82 125 105 226 123 134 142 153 137 105 70 136 71 101
59 54 63 75 107 104 39 19 30 30 19 22 10 4 7 4 1 6 2 41 118 148 120 49 130 124 85 111 104 77 81 68 81 83 108 128 137 202 149 157 134 90 121 142 137 145 127
63 66 55 93 117 80 31 22 23 18 8 -5 -4 -7 5 3 5 2 0 3 82 117 92 124 128 175 66 46 116 57 66 72 114 109 125 103 164 136 83 51 79 138 158 126 113 181 136
59 74 78 96 101 53 23 15 24 17 15 -1 -9 -4 -2 -21 -9 -13 -28 18 88 91 161 109 97 223 155 106 116 76 108 147 133 132 146 152 105 70 57 47 76 82 76 60 70 107 111
66 56 79 89 88 31 19 5 7 1 -9 -30 -25 -16 3 51 -28 4 -25 36 -13 -36 113 85 114 85 124 83 115 60 129 142 124 138 129 92 85 25 79 100 69 74 77 63 58 56 52
72 53 65 101 67 22 6 -10 -18 -22 -40 -36 -27 -10 9 64 80 3 12 -32 -82 6 123 225 187 180 112 124 123 86 114 146 147 123 98 107 107 81 77 72 71 65 92 75 97 71 76
61 51 65 122 55 5 -2 -11 -23 -39 -25 -6 -10 2 20 7 206 4 -7 -77 -73 85 187 194 252 124 134 180 118 68 108 155 122 115 139 67 71 81 80 71 77 58 75 69 72 63 32
66 39 77 92 56 11 0 10 -5 -12 -5 -19 -13 0 2 2 167 78 7 -10 14 109 228 207 224 167 203 117 172 104 150 152 143 127 78 109 90 70 46 68 102 81 66 61 54 49 87
60 53 72 86 33 2 8 8 -35 -10 1 9 21 38 20 19 38 43 18 26 135 124 272 224 211 148 161 188 163 186 159 163 123 130 105 46 40 57 80 89 110 108 80 51 69 100 69
56 55 62 47 17 1 -4 -9 -12 9 62 117 59 30 30 35 33 19 21 28 170 213 190 174 198 186 194 154 154 132 124 104 123 116 104 65 45 72 51 83 32 81 74 82 50 34 24
40 49 61 48 11 3 9 -5 -7 18 136 32 19 46 112 93 52 56 60 146 298 162 151 153 160 143 104 120 95 114 83 60 59 75 56 44 51 57 39 82 112 82 53 104 110 84 105
36 38 52 56 11 8 13 7 6 51 28 11 44 79 117 88 43 59 -35 255 207 119 69 127 208 105 95 94 96 79 58 20 30 16 37 68 38 41 68 75 38 59 68 107 123 49 66
36 35 37 48 4 10 13 19 6 -5 20 42 53 137 133 84 70 66 226 233 86 6 94 131 57 74 58 98 70 54 12 39 29 16 8 71 53 49 65 18 66 88 102 133 147 160 94
23 26 38 23 4 -7 4 3 -8 14 36 34 142 171 120 90 12 53 215 178 103 143 95 48 36 121 67 50 57 50 40 55 -44 41 31 51 29 28 -4 11 51 118 109 163 129 84 194
18 17 35 19 14 -13 -7 -12 1 23 36 107 226 130 113 72 89 123 234 178 127 111 83 62 67 68 33 37 65 75 75 90 0 23 48 59 34 37 51 54 56 93 23 45 88 158 238
18 18 27 19 18 1 -16 -22 34 55 66 61 -5 -11 61 38 12 43 43 94 128 109 93 86 45 -25 -35 51 58 21 78 66 80 68 27 78 36 12 -18 25 73 -18 -3 82 189 244 257
23 19 20 17 7 2 -34 -30 69 157 72 28 -11 26 -9 54 42 -6 -30 11 65 61 67 78 79 46 19 73 76 56 51 62 65 75 90 71 33 26 -18 -45 -19 43 65 99 168 175 255
20 19 18 14 9 9 -9 -46 11 151 92 -35 26 12 -19 -1 -35 -6 -23 -67 3 6 8 39 21 60 48 62 46 33 39 23 18 45 68 71 23 18 16 41 4 -5 62 90 114 158 229
15 17 13 16 5 2 4 -2 -51 115 50 -2 23 12 -9 -15 -11 16 -7 -20 -13 10 16 25 21 31 44 61 67 63 55 48 44 50 49 44 25 0 8 30 -1 5 24 56 94 129 167
18 13 9 13 11 0 6 4 -17 59 88 3 -1 -13 7 24 14 13 23 36 22 37 21 32 58 38 23 37 42 38 40 38 39 37 78 56 50 11 6 35 29 5 58 68 132 141 114
23 16 13 15 8 14 6 8 3 16 92 24 16 26 -8 4 32 104 58 47 56 51 43 38 45 35 32 44 56 48 37 25 11 38 101 89 54 14 21 16 23 -8 3 45 86 79 62
33 30 12 17 4 12 17 17 11 9 46 87 39 27 37 -9 62 98 131 68 55 44 61 47 38 28 31 42 60 36 24 45 27 37 45 109 51 26 23 12 25 6 4 85 94 29 75
43 36 24 24 9 5 16 16 15 19 34 62 46 63 62 40 14 118 113 119 76 77 74 63 43 42 32 52 56 45 53 49 22 9 26 41 53 36 15 0 27 40 2 71 30 40 38
32 27 30 35 15 7 27 27 16 25 34 75 79 57 81 29 -18 88 124 140 169 121 109 80 78 50 55 50 51 66 58 62 55 36 28 28 25 22 21 9 6 -14 34 22 41 43 53
23 9 25 20 21 10 23 41 36 49 58 72 67 75 63 87 60 110 95 110 88 99 99 64 57 53 27 53 49 52 58 59 57 42 48 28 29 10 13 11 -2 15 3 59 57 41 60

GFSGBSN_con_3kmhel_024.txt.gz
Helicity
61 52 61 76 63 83 81 100 100 86 65 21 25 34 40 47 49 31 35 3 78 110 170 165 103 77 119 92 58 41 82 2 41 105 99 128 169 186 195 148 149 148 156 128 84 81 97
50 85 85 65 61 62 88 95 61 43 17 18 31 40 37 21 42 38 24 22 52 108 153 174 211 76 156 81 64 58 39 52 47 89 90 126 123 108 143 140 158 182 106 115 93 92 99
72 64 66 38 58 102 92 90 55 29 29 28 31 29 16 20 21 21 20 19 29 90 169 189 157 102 109 45 147 71 62 73 53 58 78 52 93 163 131 172 130 163 161 175 126 81 88
67 63 55 62 87 120 114 47 21 34 21 22 17 20 21 9 16 14 9 15 30 86 178 191 125 105 104 41 114 115 85 65 27 45 77 58 77 129 119 172 169 150 166 138 89 81 75
67 63 57 71 96 127 72 34 25 12 -3 -9 -6 -2 10 5 -0 7 7 8 40 105 158 152 136 118 83 90 76 94 81 77 70 73 98 96 92 116 149 177 205 206 149 114 133 67 98
65 59 77 74 93 110 43 30 12 13 -0 -2 -15 -20 -17 -5 7 2 -6 25 74 99 106 96 53 141 122 106 74 77 64 99 90 97 139 106 131 143 176 196 153 111 133 127 123 161 179
67 44 70 78 112 76 29 16 3 -0 -13 -11 -25 -23 -21 -3 9 -14 -15 -8 25 103 81 185 104 121 61 76 103 72 86 85 78 116 140 162 84 226 192 49 157 173 144 144 102 91 74
51 42 61 90 107 79 16 8 11 -1 -11 -30 -22 -16 -18 -19 9 -19 33 -18 18 84 13 100 77 183 43 111 110 52 99 93 87 135 148 153 89 97 75 63 84 111 100 103 94 62 52
44 45 67 95 103 47 25 13 23 6 -3 3 11 3 -2 4 48 37 -17 15 15 39 135 142 77 129 95 74 111 98 85 98 91 125 121 77 94 106 110 118 104 93 85 106 100 37 -8
52 42 76 99 103 46 20 17 21 -0 -2 4 -5 -6 -6 -2 78 47 -15 -18 55 68 175 106 112 161 170 63 159 151 114 129 137 117 148 114 108 82 90 92 103 113 62 30 58 60 65
51 50 82 79 84 37 20 -5 -24 -9 7 9 4 -5 -10 -22 83 96 -6 -12 3 122 271 108 155 196 167 144 113 96 191 134 137 126 112 95 97 85 80 84 103 73 73 41 32 31 21
56 48 72 74 55 37 13 10 2 24 32 34 58 37 27 -22 27 149 19 -11 93 53 287 136 160 151 142 131 196 179 187 167 128 122 154 110 105 117 82 116 111 83 84 73 43 35 66
42 46 61 88 35 34 6 11 17 17 59 31 25 -0 -13 3 47 31 20 100 -25 193 271 213 170 119 153 159 163 127 162 149 112 128 108 112 115 101 107 135 131 105 88 82 77 85 53
25 45 53 77 22 31 9 3 -13 44 33 19 18 9 42 63 54 45 104 137 62 231 199 186 174 180 184 152 153 114 130 138 109 80 114 91 90 65 64 68 42 77 56 48 41 33 37
22 38 56 56 -2 25 -14 8 -11 32 28 28 75 88 108 121 46 46 61 147 262 252 173 217 187 161 172 159 112 118 108 64 50 62 48 85 96 61 49 76 72 38 72 60 80 57 60
19 29 50 41 -24 3 -16 12 34 18 20 43 110 108 117 97 89 110 173 283 163 207 104 171 179 110 125 129 127 84 61 31 25 40 69 56 64 62 61 58 74 61 66 84 102 58 43
13 23 37 30 -29 -15 -15 12 64 3 42 51 47 96 92 59 22 92 237 215 138 136 173 105 54 82 70 99 60 65 26 63 31 25 48 72 48 57 49 30 65 88 80 87 80 77 47
25 21 26 20 -32 -30 -42 -8 -33 -43 59 23 48 49 89 51 88 160 200 204 168 149 106 59 33 74 76 69 48 48 33 47 15 46 46 71 34 48 34 34 46 79 61 121 64 33 58
25 18 18 12 -5 -39 -44 15 -39 14 61 73 104 122 109 59 62 104 129 145 145 54 41 12 34 53 79 52 41 62 52 64 -2 37 83 60 53 57 58 36 70 43 71 90 9 43 29
26 23 17 6 -5 -29 -61 21 122 24 -23 41 23 -0 102 52 50 57 74 62 6 74 34 -2 14 40 20 30 60 54 75 85 55 43 34 64 22 10 -3 3 53 33 1 -13 51 71 132
15 20 17 15 -4 -9 57 76 113 117 -24 7 11 12 12 23 19 28 52 46 57 36 39 20 -28 -52 5 35 68 49 58 84 109 74 62 48 7 3 -3 -12 -10 -23 -5 6 137 230 213
6 16 9 26 5 7 9 107 138 166 11 11 16 -9 -2 29 58 2 -20 -24 -3 29 19 27 5 -9 17 43 34 28 51 69 43 73 85 82 22 8 13 8 -10 34 41 73 141 107 190
-4 28 -8 9 17 9 16 28 72 153 59 -8 -2 -6 16 2 15 14 -5 -26 -26 -3 16 34 -0 53 88 48 63 59 32 19 27 68 123 76 29 16 17 39 -3 21 40 92 70 108 158
16 24 6 2 9 19 15 22 29 27 82 10 1 -7 -7 -5 -10 14 51 11 14 31 21 47 53 43 36 50 53 66 80 70 55 40 64 60 65 29 13 20 26 22 8 8 65 80 126
50 36 17 5 8 -0 22 27 19 19 19 27 29 23 22 -7 -41 -33 10 43 46 54 65 55 61 54 50 65 85 89 87 54 34 36 52 61 61 23 15 19 26 20 8 13 50 27 41
84 77 38 18 16 18 10 4 15 16 22 12 30 43 43 23 36 46 25 24 69 63 80 59 55 44 62 80 81 40 50 51 51 54 72 78 54 22 17 16 38 35 19 28 56 9 49
82 79 55 28 27 22 27 23 24 9 16 25 26 48 79 76 5 94 122 72 47 87 71 73 65 62 62 81 76 55 56 61 43 34 42 52 39 14 25 28 40 34 21 26 20 -3 79
111 88 41 28 21 27 30 30 31 35 44 44 8 74 90 107 7 98 93 112 137 87 113 90 136 91 97 78 73 67 55 62 50 41 40 53 28 33 49 39 31 36 26 3 13 36 70
86 76 43 36 21 20 33 46 48 40 48 91 67 82 110 91 68 81 44 60 38 90 139 113 126 82 73 96 64 67 59 63 58 46 66 35 40 18 28 27 31 14 16 24 28 33 42

GFSGBSN_con_3kmhel_027.txt.gz
Helicity
46 52 43 65 52 53 98 104 126 63 40 24 11 26 27 38 34 41 47 28 10 9 94 138 178 108 100 141 80 3 118 35 12 66 78 135 196 246 207 180 231 182 204 120 72 63 41
52 34 51 61 69 90 113 125 104 39 20 19 5 11 20 12 18 42 26 11 13 14 70 116 129 162 32 98 46 42 64 49 52 133 155 158 150 172 169 159 161 131 100 88 99 69 64
50 45 61 62 68 98 147 95 51 23 15 -5 -13 -7 10 -8 -2 21 20 14 9 23 63 111 116 122 41 67 60 95 38 18 75 104 144 127 114 168 153 170 124 154 126 136 95 75 88
40 49 63 68 55 104 112 57 22 21 18 -1 -4 -13 -15 0 -4 6 -5 4 15 33 67 115 169 60 47 6 55 140 72 83 71 91 89 77 112 142 160 167 187 172 171 138 129 96 81
44 58 79 60 88 98 84 44 14 27 12 -1 -2 -1 -19 -8 -7 -4 -4 12 43 32 85 131 127 102 53 89 65 116 115 69 60 73 88 87 103 126 158 192 213 220 154 137 137 87 105
43 59 87 59 89 106 63 37 11 18 14 18 -14 9 -16 -9 -19 12 -19 32 59 22 56 102 92 115 73 113 112 90 145 72 95 68 112 119 123 156 181 214 191 182 126 125 125 140 119
50 63 70 66 95 93 46 34 20 35 -13 14 5 -6 -7 -9 -8 26 21 -8 0 6 110 148 164 128 85 76 94 107 121 133 122 118 121 102 129 122 114 103 133 141 155 139 122 108 84
54 59 73 89 81 68 58 32 12 9 -12 -14 -1 -3 -1 -1 4 39 54 -27 -15 46 162 30 246 164 119 81 103 83 81 109 115 122 109 150 105 131 143 124 157 192 159 102 102 77 89
44 49 77 83 78 66 52 27 19 4 5 -1 -14 -19 -13 -2 40 71 -44 -27 18 67 158 30 191 205 104 71 120 102 96 120 99 116 122 104 31 27 72 121 101 109 86 99 104 122 34
32 40 69 89 63 52 54 23 13 37 79 78 67 77 -16 -1 -3 -3 -64 -4 31 140 207 215 155 119 104 92 143 105 121 105 99 76 108 79 52 42 53 94 114 92 60 41 74 86 77
28 38 46 78 54 53 31 -7 1 13 23 30 29 -19 35 2 67 7 10 33 70 167 233 84 139 202 124 176 98 143 122 124 120 146 132 113 50 44 77 102 87 76 69 59 37 39 39
26 39 49 81 37 44 9 -10 -43 -8 29 56 55 13 31 16 1 50 28 74 110 149 179 211 118 188 110 111 211 198 161 141 99 150 161 120 104 101 97 124 92 80 109 90 49 34 76
17 27 41 64 33 29 6 -12 -55 -11 32 72 36 27 58 66 18 56 54 121 28 259 201 162 134 151 131 133 176 180 167 160 106 112 105 136 133 120 109 146 154 113 109 111 118 136 64
20 21 37 51 20 23 1 -29 -28 -12 9 64 54 75 82 66 38 90 98 -87 365 387 157 158 193 191 199 175 152 133 125 119 124 90 127 92 91 77 82 69 60 105 79 80 87 84 75
2 21 33 36 20 8 -17 -37 -7 27 -35 -21 62 158 141 81 120 152 101 174 324 196 351 235 182 171 185 133 117 88 140 75 49 64 75 104 91 97 75 84 75 70 84 73 42 13 37
-9 19 18 19 8 -15 -27 -16 -1 34 12 -27 84 101 112 104 107 71 89 154 168 170 134 156 127 107 97 91 102 57 70 46 49 48 56 37 65 68 82 86 109 49 46 78 102 44 42
16 -1 9 10 -6 -25 -41 -22 18 43 13 29 88 121 156 139 115 63 94 102 111 153 140 73 46 53 64 84 53 65 49 46 32 39 49 55 45 51 56 33 47 92 89 87 70 60 27
41 -37 20 -3 -3 -26 -47 -46 27 37 57 41 75 3 53 33 23 72 86 62 48 92 52 27 24 49 86 70 59 73 22 48 21 32 30 53 23 35 27 48 26 55 57 79 63 33 55
41 -22 11 8 3 16 63 74 61 40 43 59 46 75 49 12 -1 36 82 79 76 38 23 0 21 36 64 71 40 46 27 22 11 47 42 38 47 45 59 39 64 39 57 88 93 64 54
37 18 -29 26 7 10 30 113 106 90 38 26 14 -7 27 1 29 38 18 17 13 31 -22 1 32 40 77 53 44 28 45 60 32 24 34 71 17 15 19 14 33 45 55 89 117 67 60
16 23 -3 11 22 10 15 57 145 134 69 12 -14 3 5 4 9 43 44 30 -1 1 11 -22 -7 14 31 36 55 38 60 80 80 39 54 38 4 8 8 4 14 -5 -8 39 50 66 68
30 11 12 -13 17 22 13 21 85 150 106 5 7 -12 -19 0 29 30 21 10 11 27 12 5 -37 -35 23 18 19 26 46 63 39 61 59 68 21 16 10 21 11 7 0 16 66 115 205
40 26 16 -39 4 31 19 18 49 71 62 36 13 -8 2 -7 -30 17 16 5 -7 19 26 31 5 26 57 39 40 22 34 43 22 63 95 65 33 7 25 54 35 22 70 76 87 89 135
53 37 10 -1 -9 23 25 28 37 46 24 4 22 11 41 13 13 -8 -28 47 34 32 22 36 37 32 31 40 52 75 90 69 40 49 68 70 88 45 41 41 12 15 13 0 53 50 97
45 26 14 38 17 3 26 17 42 38 26 11 26 47 63 32 28 -30 -15 -8 13 69 72 56 59 47 60 73 79 79 82 67 45 47 54 63 66 48 39 20 12 13 18 8 -2 26 26
59 27 45 71 51 15 19 5 18 29 25 15 27 36 66 62 68 83 93 73 18 26 79 86 72 74 83 91 84 26 38 54 51 65 100 91 77 53 24 21 33 42 46 10 17 42 39
45 41 65 75 105 14 5 9 0 0 10 33 28 45 69 91 68 93 130 168 152 97 55 75 88 89 87 85 83 61 61 77 59 38 50 76 57 36 15 17 37 27 33 13 34 9 5
59 54 60 69 114 50 0 -2 9 15 14 48 23 53 59 55 58 82 127 176 210 150 136 89 113 119 111 85 76 73 73 67 74 60 37 60 51 51 38 32 33 40 67 16 2 15 10
51 37 28 34 44 62 28 13 5 12 31 71 59 51 75 68 71 69 70 65 111 122 188 199 164 86 104 126 101 91 90 72 74 61 85 51 43 26 29 19 21 46 50 28 19 21 21

GFSGBSN_con_3kmhel_030.txt.gz
Helicity
65 55 36 46 49 45 101 102 112 75 46 14 14 10 1 18 25 31 39 43 33 18 30 36 101 120 124 78 33 33 126 79 44 96 109 154 213 244 196 181 215 154 146 136 108 134 80
55 40 43 46 71 53 95 107 72 43 32 29 8 11 4 16 22 24 22 24 26 25 24 49 92 112 127 92 32 -6 26 87 86 96 117 151 164 197 168 138 180 92 125 116 112 63 51
49 40 38 57 75 59 103 69 39 58 30 36 18 16 22 25 15 14 14 10 -2 11 29 52 77 114 149 98 37 76 22 57 109 78 135 146 121 174 117 159 124 152 120 110 72 50 59
45 46 37 56 56 78 81 62 52 45 41 31 14 14 22 20 13 16 10 -1 -12 13 22 36 82 131 95 34 71 91 114 76 86 132 122 135 132 169 161 157 183 168 136 115 112 75 81
52 50 45 54 80 43 48 63 69 28 35 38 10 7 12 25 11 0 6 1 -4 5 13 33 84 167 85 15 92 124 97 57 67 99 100 120 127 139 167 170 201 216 139 143 137 71 97
45 46 48 46 84 41 87 68 50 21 17 29 16 0 -2 -15 -12 7 13 16 4 -3 6 15 111 169 73 5 106 72 88 85 125 101 152 145 145 172 179 185 189 179 168 122 112 110 106
47 39 59 45 73 49 89 40 26 10 16 26 24 13 -8 -3 -9 3 33 44 -1 -6 47 144 139 144 -9 107 50 71 84 108 108 103 215 114 192 127 115 159 153 117 132 112 115 113 71
49 43 53 52 63 80 62 38 9 1 17 25 44 89 -35 -26 -12 33 67 -62 -26 9 169 58 256 87 78 135 109 124 109 100 122 57 168 127 90 90 111 127 135 128 134 112 101 76 55
54 47 38 41 31 66 45 30 -9 2 11 31 10 25 128 -3 -7 28 -12 -43 4 59 150 62 109 129 108 258 171 169 96 115 118 97 89 155 84 119 94 126 118 140 106 88 85 98 48
53 44 34 37 21 56 31 38 -21 18 24 23 16 29 98 32 30 16 -14 14 40 101 62 173 104 159 54 200 187 110 136 124 116 144 82 71 63 71 101 104 134 118 84 108 116 108 65
48 44 29 25 8 35 22 18 -25 20 30 17 14 -12 37 27 54 10 32 56 79 81 342 182 103 156 132 105 91 152 122 193 103 119 124 108 56 60 63 86 127 97 76 68 64 77 64
52 32 31 22 1 22 14 1 -15 -1 6 23 18 30 54 81 47 44 104 97 100 175 247 201 150 95 167 129 170 152 115 120 121 147 133 98 58 34 40 80 84 44 87 64 51 47 89
61 14 21 23 -2 3 -14 1 4 -30 -13 26 39 11 27 103 129 107 97 158 95 168 209 151 97 105 127 137 158 159 131 145 92 111 138 123 115 71 61 118 127 98 91 76 82 104 64
51 0 11 18 1 -5 -18 -13 3 13 -9 24 69 59 87 70 80 96 58 193 170 202 103 112 128 135 159 183 178 150 137 103 98 74 98 86 100 76 92 84 60 104 70 66 80 101 82
47 23 -7 8 -7 2 -21 -28 -9 18 8 17 75 93 80 114 125 86 138 216 223 184 125 82 145 116 142 135 126 86 93 66 47 56 44 45 84 82 91 81 101 78 92 75 48 31 72
22 49 -25 9 -3 28 6 -28 -22 13 28 49 94 58 80 108 116 96 78 102 109 170 154 97 76 48 47 71 66 64 68 55 45 62 68 54 64 88 86 89 114 69 61 87 97 64 85
5 26 -20 3 18 24 65 53 -12 10 39 77 67 43 104 98 89 62 100 62 112 109 64 23 24 32 33 48 44 47 47 50 69 62 58 56 74 81 70 48 48 88 76 80 53 60 42
9 12 13 -17 27 33 54 90 59 21 37 39 44 46 55 39 32 66 47 58 37 83 57 27 18 30 56 48 56 67 28 42 49 51 42 60 44 53 46 38 38 34 23 58 51 36 56
37 12 34 3 1 37 39 74 90 72 5 22 26 54 42 29 32 52 62 62 33 23 17 8 6 19 40 66 40 42 34 30 26 47 31 27 46 33 36 37 47 34 48 72 75 74 45
66 8 11 21 17 16 40 52 105 102 64 1 3 4 15 10 24 30 43 44 17 24 7 28 24 36 46 39 37 37 36 42 9 35 76 64 22 12 -2 11 21 34 49 81 92 68 68
72 20 19 10 30 4 27 37 89 131 95 -18 -16 5 -1 -1 1 11 14 20 -3 -2 3 -5 3 -6 17 41 38 37 53 60 74 57 100 59 8 12 17 12 23 20 21 45 85 103 43
88 52 22 21 -4 46 20 34 61 110 54 34 -7 -15 -21 -6 21 26 32 24 9 -9 5 1 1 28 41 14 17 13 61 64 40 67 57 57 20 16 27 30 9 18 -10 0 22 43 130
92 69 41 33 10 13 49 40 46 74 25 22 54 22 13 4 -10 -6 20 18 19 42 24 31 6 26 43 35 29 26 69 56 22 59 77 57 32 8 12 25 27 19 18 46 89 133 136
85 61 52 58 37 20 80 46 36 44 7 -16 9 33 50 7 35 26 7 -17 30 44 29 45 43 30 15 18 30 74 69 85 50 63 65 62 72 23 10 35 28 17 30 29 29 68 85
69 52 44 39 52 31 60 68 33 36 29 1 3 16 23 12 15 19 49 30 33 38 71 55 58 46 53 63 69 65 61 53 39 55 56 70 78 32 28 30 25 19 36 35 27 53 23
3 29 33 40 47 33 36 62 29 37 28 4 13 19 34 35 38 32 48 96 76 66 63 74 78 76 88 81 76 28 10 30 36 58 115 110 87 69 33 32 29 39 59 24 19 46 28
26 53 52 50 31 51 51 38 23 7 20 11 14 15 51 58 53 66 65 96 133 128 96 113 111 115 108 102 86 57 47 60 35 27 45 102 81 49 38 37 42 21 29 27 49 36 23
55 52 39 27 23 0 43 49 53 2 -18 7 14 31 41 49 59 73 87 81 116 146 160 171 170 172 171 110 84 60 54 50 77 81 53 56 37 57 55 44 36 37 76 31 23 13 6
77 32 15 -6 10 8 22 44 44 -1 -32 18 25 41 69 70 91 84 88 68 68 58 150 224 227 150 144 155 116 86 72 67 72 80 99 60 55 42 29 44 36 37 48 40 55 18 9

GFSGBSN_con_3kmhel_033.txt.gz
Helicity
54 48 43 47 64 55 53 56 67 69 44 36 38 43 42 32 28 26 31 30 25 38 51 49 61 88 38 17 93 60 234 129 44 74 90 172 167 220 163 195 230 222 146 169 142 135 101
49 43 40 43 74 64 46 38 59 40 27 31 44 51 31 37 25 29 12 20 16 30 41 52 37 62 43 102 40 37 162 178 56 71 89 156 142 215 188 140 176 112 148 124 106 93 80
56 59 49 55 62 80 42 57 70 38 10 21 39 46 39 32 3 16 14 15 9 11 11 25 29 21 60 83 24 47 84 94 39 70 92 171 115 200 147 159 140 113 131 120 72 78 64
63 61 66 56 54 66 26 45 37 10 2 23 27 28 26 31 15 8 13 -2 11 12 12 4 8 25 -3 96 41 15 20 68 50 81 96 125 122 185 164 144 187 179 145 123 85 60 59
59 50 55 57 26 69 52 30 27 15 27 32 23 25 33 1 15 -17 3 -13 -1 -7 -6 13 10 49 120 104 61 23 36 69 88 86 105 125 119 186 199 175 201 190 115 136 155 55 86
70 47 42 49 30 38 28 -0 24 17 23 27 27 14 43 1 -7 -9 -10 23 23 29 15 6 44 115 122 51 34 34 33 62 94 62 77 99 142 165 184 198 178 207 185 136 112 89 99
46 42 52 55 27 18 12 -1 38 10 13 7 14 8 24 36 -5 -13 8 36 -45 1 2 59 93 211 68 89 147 90 57 74 109 211 170 129 216 153 146 189 124 118 134 122 108 113 78
38 42 48 44 32 13 3 4 34 35 8 -2 -10 -5 26 20 -18 24 36 -36 -17 10 108 74 12 134 134 152 86 99 68 126 202 137 244 190 134 118 116 151 149 145 140 134 137 108 58
36 25 36 32 20 5 -0 6 39 36 23 -18 -21 -19 41 20 -6 5 2 28 41 88 149 84 82 117 111 100 123 70 82 114 257 180 108 160 121 94 108 165 181 179 138 129 116 111 50
20 21 26 23 26 7 -6 -5 40 36 32 43 11 -23 37 33 26 31 72 74 71 57 172 61 63 84 124 87 94 96 49 148 97 137 178 87 84 75 97 97 125 145 109 113 103 98 97
26 18 25 13 18 7 -3 -0 24 32 34 60 42 31 11 45 127 141 123 74 54 105 224 92 119 116 149 77 110 185 139 105 121 134 61 74 69 72 59 122 124 137 94 135 132 114 99
42 23 24 6 14 9 6 2 18 17 28 46 62 55 114 100 94 106 106 27 79 126 241 150 172 67 203 123 172 162 137 172 124 137 166 70 101 124 134 139 199 45 146 141 123 123 122
47 18 22 1 14 1 6 -8 9 12 13 34 104 77 78 100 123 55 19 96 198 211 136 156 133 97 104 149 178 154 93 135 77 137 133 166 129 64 28 123 178 139 113 194 187 167 102
38 16 10 9 6 6 12 10 -1 6 17 43 85 104 72 21 43 37 94 85 155 112 103 99 78 98 69 150 152 142 97 91 121 97 76 94 100 63 44 47 47 85 75 85 128 126 98
53 41 5 16 -2 6 9 24 26 9 23 35 58 37 32 53 66 78 45 111 88 86 83 55 57 59 85 105 53 76 84 81 84 57 54 70 95 76 75 76 87 75 80 76 67 79 91
57 56 19 18 14 11 19 34 33 28 29 40 64 -3 8 31 37 14 45 60 65 87 37 13 44 23 26 65 68 72 53 66 54 71 44 37 76 80 62 95 136 89 88 96 99 88 109
70 63 36 19 26 3 29 43 42 44 41 43 32 34 51 8 4 22 86 34 70 70 29 16 15 15 25 31 40 60 42 47 63 73 60 50 52 77 66 61 52 96 92 108 88 78 96
77 65 35 21 22 31 43 44 57 48 56 -41 21 31 31 8 19 94 100 62 85 64 39 20 10 10 33 44 39 62 39 43 48 35 54 57 47 59 78 56 59 61 56 68 43 43 60
95 66 20 18 17 13 52 51 68 80 45 5 12 38 31 11 -10 -7 48 40 25 42 24 7 1 10 25 38 19 45 40 55 14 52 32 35 57 76 74 57 60 45 58 71 78 60 30
102 81 52 34 25 23 18 63 59 99 73 17 10 2 2 5 7 -5 -18 15 22 -9 -28 3 -30 12 26 59 50 37 45 58 20 37 48 57 39 21 13 24 26 36 49 67 76 58 58
110 84 79 56 40 23 19 28 61 115 68 26 44 17 9 3 10 18 13 4 1 -0 3 -14 26 16 2 21 45 31 54 45 55 31 84 65 24 27 24 25 30 39 35 39 68 94 30
116 92 77 44 47 37 6 32 62 111 73 10 83 47 37 4 2 20 20 15 12 7 -0 1 -0 1 6 26 16 -5 43 55 37 59 68 107 29 21 24 23 10 23 14 17 15 26 60
107 83 61 42 59 29 25 48 76 68 65 13 29 63 65 49 52 16 11 1 8 17 14 4 -13 18 34 32 28 26 46 69 34 55 81 58 35 27 25 18 23 26 27 49 75 88 70
92 71 39 36 49 41 38 43 79 53 20 2 9 13 80 63 61 36 48 50 -2 29 20 38 37 26 17 27 24 60 59 67 51 64 60 56 57 37 22 30 33 20 25 31 62 78 91
49 23 31 41 47 56 17 26 74 85 22 -2 7 24 47 69 86 86 85 38 43 39 27 20 42 36 41 54 62 60 54 45 51 56 44 57 69 29 22 21 16 9 14 44 41 81 56
33 28 52 46 36 42 48 12 36 100 50 -5 2 2 25 62 69 67 76 81 72 71 79 73 80 83 98 85 76 45 26 34 38 46 101 83 67 53 30 30 32 33 71 51 40 63 48
35 47 49 39 14 12 -3 -0 -17 29 29 41 40 -0 32 42 58 66 62 67 106 105 98 125 129 111 106 110 90 74 55 58 42 31 48 85 73 73 46 37 35 19 53 31 58 48 42
45 78 45 13 -8 -2 -0 -0 -12 -4 -7 -3 49 -1 33 45 57 62 77 77 98 98 144 168 158 159 168 113 123 91 75 56 77 59 44 44 44 59 64 56 32 45 84 49 50 56 36
82 67 34 5 6 16 -10 -10 -8 24 3 28 4 22 44 84 101 68 81 59 64 82 121 182 253 207 144 148 138 135 112 89 83 65 99 71 70 45 33 22 30 40 102 65 49 59 29

GFSGBSN_con_3kmhel_036.txt.gz
Helicity
48 67 49 52 58 48 46 25 53 57 12 -9 -3 28 39 43 43 40 31 24 24 24 35 48 51 55 46 46 94 119 225 162 47 57 79 93 108 156 122 148 128 167 129 137 101 69 86
58 57 46 57 66 28 46 54 27 11 -5 11 20 50 36 32 37 24 11 0 12 16 22 22 40 58 43 81 84 42 91 191 86 52 68 76 100 133 140 119 115 115 172 78 87 79 71
57 51 38 51 66 21 67 39 31 13 11 33 38 34 47 26 14 7 4 1 12 15 11 5 27 34 51 92 90 -66 41 124 90 43 62 58 99 136 123 154 172 112 107 115 84 83 72
63 37 32 53 39 32 34 28 10 19 28 35 27 27 27 28 26 13 -3 -5 4 -3 9 13 39 19 20 58 118 254 48 206 102 45 38 82 40 116 121 133 105 98 126 118 66 58 79
66 38 31 45 40 22 27 -16 31 38 38 50 21 9 29 30 28 13 -21 21 -3 -22 -1 28 10 1 71 28 92 118 157 288 36 29 29 89 43 101 135 82 118 90 70 86 69 67 63
57 32 35 53 20 20 24 -5 23 36 68 42 19 2 12 32 21 -3 -13 48 20 34 39 19 6 28 120 98 114 66 86 137 20 52 84 108 131 106 91 97 108 83 89 99 84 94 96
53 30 38 34 17 19 8 -14 7 32 71 32 5 17 35 50 11 11 13 7 -24 -49 7 27 38 160 83 69 21 72 141 55 76 79 219 92 140 108 58 76 184 72 45 76 90 82 91
47 34 47 23 14 17 5 -17 0 19 64 51 11 28 60 4 12 3 -10 -25 11 20 69 -9 -12 130 238 176 38 35 39 76 133 108 119 111 83 71 78 105 102 48 61 88 108 83 96
40 44 52 16 14 14 12 -6 -2 10 60 82 48 22 29 19 12 23 34 54 59 48 -47 -23 117 196 145 116 2 42 -6 104 68 78 62 114 97 94 82 90 92 117 87 110 122 91 71
39 44 44 17 15 11 10 -6 5 -10 53 86 107 62 50 84 83 59 58 62 62 53 176 225 226 135 124 112 104 68 79 105 257 254 116 127 174 49 56 59 76 119 140 121 111 108 109
39 43 43 27 12 12 7 -6 6 2 35 62 94 128 100 -4 3 161 96 81 68 54 390 167 191 168 142 113 94 73 100 122 160 268 225 205 124 52 57 46 53 131 100 113 112 115 124
33 47 46 28 15 8 9 7 17 20 9 46 62 67 99 51 34 88 78 70 102 265 230 137 141 155 120 77 109 39 39 30 206 387 227 209 163 159 157 201 104 62 129 154 134 136 114
46 49 47 25 15 5 3 37 13 15 11 12 41 60 32 23 132 114 133 118 253 225 132 112 86 71 92 95 107 83 91 61 51 106 133 226 165 132 241 232 222 158 119 188 172 160 155
57 48 37 30 19 1 1 40 44 15 20 22 2 16 35 43 84 81 62 36 138 121 77 78 31 54 137 114 109 73 104 95 39 60 156 135 131 59 124 161 95 128 147 222 194 165 143
59 42 40 25 19 3 31 45 66 54 23 20 28 -4 -16 -11 42 45 49 39 90 96 49 19 18 19 61 80 47 58 66 63 23 70 81 84 94 77 48 45 150 162 112 117 147 146 172
65 49 36 26 20 13 20 45 68 88 49 1 43 19 2 -4 -11 8 9 25 73 59 27 43 77 49 39 43 41 44 47 53 43 68 51 61 84 80 66 81 69 78 72 92 94 97 130
69 58 32 18 19 21 9 42 54 97 84 -16 25 44 30 -20 -55 7 11 51 62 56 30 36 31 30 38 46 55 69 64 49 64 64 52 48 59 77 66 49 50 82 85 102 104 100 107
94 73 49 20 16 16 12 19 56 69 115 2 25 18 -12 21 -8 -23 -3 52 69 52 38 31 21 20 38 44 47 55 42 37 49 49 53 70 55 70 80 64 73 77 79 79 94 64 66
92 87 73 39 43 21 16 2 41 73 63 17 18 0 -30 -31 -29 13 23 13 40 26 13 5 11 17 28 31 28 59 50 61 4 51 42 40 53 76 71 58 54 54 43 61 63 55 44
97 88 83 56 46 19 14 9 39 106 82 13 30 -1 10 15 -8 -25 -15 -11 -8 -11 -11 -13 0 7 23 33 57 40 39 54 32 51 69 71 61 58 60 61 61 59 32 37 54 48 50
108 106 83 62 53 37 10 7 54 127 121 12 57 42 43 -7 8 -6 -7 7 4 8 -17 -29 30 10 29 36 41 29 50 66 64 40 69 61 46 48 36 34 30 44 38 20 38 52 45
123 113 90 77 49 57 15 18 42 126 137 30 48 75 61 46 38 12 13 -6 8 13 10 16 7 23 24 41 45 18 30 38 39 52 57 75 40 39 24 22 14 20 20 19 11 7 18
74 76 70 62 48 50 21 25 43 96 95 59 42 40 82 65 63 27 11 -1 3 3 13 -4 -13 7 19 30 11 24 31 46 37 32 43 48 44 29 35 31 25 26 38 36 49 55 39
57 52 36 40 27 40 24 22 40 81 48 31 45 35 61 84 98 87 91 72 35 41 -2 22 -11 4 20 27 44 55 58 67 51 53 37 42 51 47 46 39 34 41 35 30 1 20 9
46 22 23 33 39 34 27 12 11 74 90 24 24 41 60 76 99 93 96 83 76 62 56 46 28 34 32 34 42 47 46 36 51 49 36 38 41 42 47 37 42 24 22 37 27 73 28
15 1 15 24 18 10 1 2 10 13 17 15 34 16 28 66 83 96 103 106 101 99 81 84 83 76 69 53 56 36 44 45 37 38 65 48 28 35 42 51 53 48 49 45 46 54 89
28 15 34 15 6 1 6 8 -1 4 10 -2 -27 -38 18 41 60 71 77 85 115 132 125 128 143 116 110 82 28 55 51 70 47 44 43 63 54 26 32 43 37 26 73 68 54 69 71
2 12 31 19 20 19 24 2 11 30 7 -17 -13 -28 -42 -62 39 50 62 66 83 96 134 172 152 145 155 93 85 84 47 70 74 58 46 37 42 63 52 54 42 52 104 64 80 79 64
6 12 19 11 28 30 26 26 -5 -3 48 9 -18 -3 -4 13 51 31 47 66 54 59 117 148 215 191 191 169 160 132 100 82 80 79 86 64 69 56 34 44 45 37 82 101 75 61 54

GFSGBSN_con_3kmhel_039.txt.gz
Helicity
29 55 60 48 48 48 33 38 33 22 14 6 21 30 44 41 32 25 31 24 32 36 28 6 15 25 22 32 188 57 219 28 46 69 79 118 83 113 103 79 121 98 133 157 249 58 71
31 44 65 52 38 39 29 35 19 24 14 27 36 40 43 45 29 25 7 -13 7 8 15 16 21 3 2 69 65 22 127 245 55 39 59 74 88 100 150 119 123 79 175 158 159 46 71
34 53 51 37 42 33 17 30 34 31 26 53 40 16 27 26 20 12 4 -6 11 18 21 28 36 26 16 22 58 62 44 243 153 42 41 76 67 85 174 163 118 197 157 129 95 55 25
29 47 42 51 33 38 24 26 6 18 36 51 -1 -1 15 17 23 26 18 -6 6 -0 8 20 34 34 16 3 41 84 36 214 143 36 44 87 66 51 175 157 98 131 143 95 110 68 68
25 41 40 51 37 28 14 16 2 35 71 24 17 15 28 45 24 26 11 -28 -1 -2 -5 15 12 -2 16 19 51 88 64 148 63 63 70 92 155 114 141 110 93 123 93 71 87 59 57
32 28 36 43 36 16 4 13 -2 43 70 34 20 50 70 49 30 11 -1 -14 22 14 15 14 7 7 31 80 46 3 22 105 109 97 139 143 135 128 118 116 112 90 97 49 78 90 87
35 27 43 36 34 9 -0 -0 -14 33 60 44 64 79 39 33 25 7 12 -3 -9 -32 -11 23 38 6 107 50 64 66 67 99 63 150 171 115 197 112 76 60 89 116 49 119 99 63 89
48 39 43 33 28 6 -8 -9 -14 25 62 77 84 96 70 73 45 46 25 10 -13 13 38 7 20 110 173 126 94 126 180 189 117 171 122 177 160 85 85 54 107 220 94 118 116 79 74
57 47 41 28 24 6 -16 -21 -10 26 48 78 60 80 86 103 83 42 9 -11 -8 18 35 62 149 171 91 83 57 127 107 83 62 93 98 119 100 125 139 132 118 144 87 83 123 69 74
70 51 36 25 21 5 -16 -27 -29 11 19 61 52 53 23 44 68 28 -0 -19 -5 27 221 149 144 116 64 53 62 38 35 184 217 58 84 103 145 112 106 64 92 104 153 138 121 57 86
69 57 40 27 19 5 -4 -23 -33 2 9 22 37 25 30 35 105 127 75 35 21 46 252 135 135 66 60 41 35 101 15 71 282 188 162 127 107 74 82 69 42 136 74 95 112 135 177
81 70 37 29 20 9 6 8 13 9 18 24 18 32 38 99 116 128 107 82 74 199 213 96 121 43 56 36 70 25 21 107 305 226 194 194 234 111 142 154 80 75 99 96 103 116 101
77 76 48 22 16 7 2 34 35 19 16 30 28 -5 35 30 16 88 70 83 209 182 90 99 98 87 58 84 38 22 -15 84 144 200 136 202 247 185 245 182 117 88 76 145 118 119 137
83 72 40 25 16 13 -2 36 58 56 14 32 13 9 69 59 19 21 26 64 56 108 45 43 65 64 53 31 26 30 35 28 146 191 237 157 101 161 216 206 153 78 66 210 138 112 95
92 63 37 21 13 17 20 10 64 63 62 44 26 44 44 65 35 -14 56 -6 31 55 18 50 65 66 50 22 20 98 16 15 57 59 116 185 120 80 153 182 170 153 129 180 219 173 129
88 80 46 31 31 5 15 24 22 63 73 55 -7 40 22 -5 -6 -58 12 -19 2 -4 26 55 58 73 38 24 28 24 29 6 12 44 57 92 92 40 60 154 219 165 155 160 158 158 137
96 89 61 59 43 30 13 14 13 38 77 47 20 27 68 -44 7 -2 -23 27 23 14 38 37 26 25 37 16 32 21 30 31 35 42 45 50 66 68 42 48 48 145 175 131 162 156 191
95 88 87 60 54 26 17 20 4 30 82 3 20 -0 7 -75 -4 -17 -9 10 29 23 5 4 8 33 36 26 29 34 35 62 66 56 57 68 60 75 75 43 90 114 69 47 107 68 89
104 96 97 74 58 45 27 26 22 51 66 19 38 10 9 -33 -17 -7 -1 4 8 -16 -10 -2 7 6 15 21 35 46 47 45 41 65 50 41 49 69 61 43 41 45 45 95 117 140 70
98 86 102 86 63 52 44 30 41 69 95 8 36 23 20 11 8 -1 -7 2 11 -3 -5 -1 17 8 7 19 48 32 47 58 49 53 82 66 51 76 105 86 79 74 53 61 87 86 58
91 99 91 69 64 55 45 26 45 90 99 -0 61 43 43 47 38 37 23 23 10 9 -2 -10 -3 8 20 30 35 36 49 59 57 38 46 70 48 64 60 67 52 47 48 39 52 46 67
102 84 63 54 46 45 31 19 47 104 129 48 79 83 88 42 48 39 30 -6 28 23 21 13 5 18 34 42 39 31 18 27 44 43 41 49 47 52 37 25 23 28 21 18 7 7 9
85 70 52 46 43 41 46 27 49 90 78 74 71 43 63 68 67 61 60 52 29 18 17 17 4 18 22 45 52 60 34 33 42 36 27 42 57 48 45 26 25 5 1 12 24 39 25
52 48 38 24 38 31 33 14 27 56 71 53 80 54 63 101 90 102 90 74 57 51 40 53 13 28 27 20 26 41 43 49 52 45 35 27 49 55 47 43 27 41 41 35 4 25 -1
35 26 20 28 17 20 14 -1 3 17 59 18 24 79 113 134 114 97 121 104 91 61 53 53 46 45 21 23 31 34 32 34 29 30 20 11 30 42 51 38 45 18 35 39 23 19 9
19 25 27 37 19 16 13 12 10 19 15 7 -8 -18 11 132 97 96 121 117 120 127 78 81 71 63 42 39 51 48 47 39 43 30 34 22 14 38 45 47 48 63 40 36 25 37 54
11 17 22 36 17 16 13 19 15 42 41 9 -9 -34 -4 42 57 79 97 109 119 129 141 126 126 91 89 76 46 65 58 76 49 47 46 43 34 27 34 45 44 37 47 69 58 71 84
15 29 37 29 15 24 21 15 30 40 30 32 15 -12 -24 19 76 8 30 68 68 80 104 123 105 103 139 115 110 102 64 50 68 53 49 51 62 58 46 54 40 70 92 87 102 88 70
36 40 50 27 14 27 24 20 25 7 33 46 35 50 -12 -5 51 43 45 41 43 55 90 97 138 127 190 151 141 138 95 117 61 74 68 74 68 63 50 53 45 18 95 122 102 78 62

GFSGBSN_con_3kmhel_042.txt.gz
Helicity
31 29 23 29 25 33 28 24 24 29 30 37 37 2 8 22 12 22 30 28 28 33 20 14 -26 13 100 110 96 94 127 -18 83 74 102 121 98 126 122 110 138 130 179 66 127 59 112
37 30 21 30 27 28 24 19 -5 -12 10 37 9 5 17 26 14 17 15 7 12 3 10 2 1 -8 22 125 87 38 84 45 96 54 77 87 117 123 176 90 132 92 193 305 170 114 127
35 28 32 37 34 31 12 1 -23 -37 -19 7 10 3 33 16 4 10 14 10 8 2 5 2 2 -2 15 -19 93 27 88 263 38 5 81 111 98 125 189 183 152 164 169 223 238 111 69
50 33 36 34 35 23 10 -6 -28 -36 -5 20 29 48 40 40 29 33 34 10 -8 -7 -6 -4 -11 -16 27 -17 10 74 46 183 257 134 71 72 73 104 165 145 174 187 168 182 167 110 97
56 44 49 39 36 23 7 -5 -36 -47 -31 20 33 37 44 25 21 31 21 -8 -6 4 -16 -13 -5 -8 33 -6 13 50 0 195 254 42 73 81 102 162 147 188 188 161 126 155 112 105 140
62 51 56 39 38 17 2 -2 -23 -42 -31 25 32 34 45 34 5 -2 7 1 4 10 -13 -4 15 35 21 59 29 56 15 128 201 39 26 71 128 174 192 210 164 107 90 80 107 121 117
77 51 51 38 38 19 1 -4 -18 -22 -16 -4 23 -12 22 51 58 0 24 34 9 -2 -18 -12 9 57 73 153 22 18 22 117 116 132 188 104 134 72 104 80 115 79 65 127 63 95 101
84 52 56 41 34 20 3 -6 -10 -8 0 9 13 18 -11 3 15 -1 37 20 25 39 56 14 19 41 56 139 83 -53 34 98 130 123 169 183 86 98 100 102 124 104 144 78 133 123 102
76 68 63 50 40 22 3 -7 0 -4 -7 0 15 26 23 -17 11 38 65 26 -10 36 90 70 59 94 101 87 -15 112 111 102 171 131 126 160 176 66 57 74 107 164 179 119 182 162 112
81 71 61 51 38 22 11 -5 -4 1 0 -10 -1 21 62 44 63 105 125 116 81 95 170 82 80 68 44 83 25 51 95 220 182 111 95 84 131 152 151 93 94 160 138 162 168 139 106
86 70 65 53 35 23 16 3 -4 6 -8 11 0 9 21 79 58 92 145 68 80 46 80 61 37 7 48 40 45 99 57 138 138 162 208 158 112 163 152 114 151 159 161 217 182 143 189
82 71 71 43 31 27 15 7 3 5 16 16 20 36 49 51 71 136 112 53 68 97 147 53 75 113 21 64 65 120 69 191 298 291 185 170 215 100 133 139 124 156 241 164 123 123 120
74 69 57 41 25 15 22 14 9 17 40 50 34 39 93 63 44 98 33 22 58 88 41 84 62 47 65 76 58 84 -2 103 97 85 176 141 229 223 184 146 44 137 160 170 163 150 116
76 71 60 50 47 23 15 2 7 21 45 73 69 26 96 80 18 31 -24 26 21 23 13 83 42 4 53 29 56 29 -31 96 124 125 168 52 158 223 182 238 227 158 125 169 144 106 103
76 88 80 62 57 42 32 12 4 14 42 75 69 71 71 76 22 -44 -17 12 -7 -3 22 44 36 19 30 25 29 27 10 49 107 138 120 77 107 118 152 275 233 188 153 120 181 147 141
111 85 69 83 66 31 32 8 7 17 48 96 4 26 30 120 30 -57 -13 -17 -25 -17 32 101 34 30 8 17 71 58 3 52 27 61 195 111 120 85 147 224 240 224 220 142 176 165 117
100 73 77 88 68 44 40 -3 -46 17 58 71 6 10 29 28 0 -16 11 21 -15 -15 7 19 31 34 31 6 27 14 29 7 26 19 67 114 89 54 50 86 169 149 159 134 181 172 168
107 89 85 90 69 35 28 11 -21 21 37 43 29 17 30 20 7 1 17 12 22 -15 -10 8 14 44 43 29 35 24 30 50 39 21 23 57 76 91 66 66 90 124 103 147 117 139 162
95 80 75 67 59 36 31 11 -4 12 37 49 51 29 22 -13 25 23 24 17 36 6 -1 4 13 16 18 22 36 69 61 45 58 107 83 43 52 89 77 54 42 35 56 85 175 138 77
83 72 60 54 50 40 28 14 24 21 39 24 59 60 52 27 25 50 15 26 13 17 9 15 25 21 12 20 29 34 52 41 50 60 86 97 72 76 89 65 78 87 60 45 111 112 117
65 59 60 46 42 49 38 33 29 43 46 30 64 61 69 75 77 89 56 57 17 5 -1 -6 -10 -15 13 18 22 20 59 51 52 49 48 81 60 74 87 73 80 64 70 74 118 111 125
59 80 56 48 43 41 31 25 21 61 98 41 65 68 80 82 78 66 49 45 58 40 24 14 7 15 29 79 53 42 38 30 38 59 53 61 46 63 52 36 39 47 49 50 62 63 35
64 57 55 45 37 32 22 14 10 21 28 27 49 38 59 91 117 120 121 110 103 52 21 21 19 19 15 62 74 77 82 52 42 43 46 60 62 56 58 47 26 32 28 51 75 79 56
41 48 45 44 33 28 23 16 9 11 4 10 34 31 58 99 192 181 131 105 80 65 54 65 38 37 23 3 9 36 53 77 55 48 34 54 59 63 45 46 38 22 54 45 89 66 59
36 42 37 46 31 14 23 28 12 17 5 8 10 16 52 67 139 149 172 158 127 95 51 63 69 60 25 35 31 37 34 31 24 40 31 28 52 41 44 36 26 48 36 44 46 28 45
24 17 21 46 44 28 28 26 34 32 23 18 29 -7 -2 53 54 115 119 153 169 159 147 98 52 75 50 43 44 43 36 17 38 29 30 24 30 46 42 37 35 38 19 26 43 39 42
28 31 36 56 42 30 30 32 43 38 21 27 34 20 -9 15 31 62 114 108 102 145 148 140 100 96 80 79 80 64 56 77 40 37 44 67 56 44 36 45 36 19 13 44 58 36 56
36 54 48 52 42 33 31 27 43 37 35 37 28 61 26 13 24 26 64 68 81 80 116 125 112 90 99 110 100 88 75 62 68 59 63 64 63 70 70 54 30 62 70 77 79 71 62
39 50 55 48 40 49 51 70 57 56 48 48 42 66 49 33 47 26 28 61 83 75 86 90 108 113 151 141 158 128 118 107 86 68 117 79 71 57 47 34 29 10 56 127 103 70 64

GFSGBSN_con_3kmhel_045.txt.gz
Helicity
31 44 50 46 34 32 7 5 -4 -1 -18 0 2 19 38 36 29 28 27 28 22 25 26 21 23 16 61 71 95 290 189 20 46 54 86 106 133 197 215 198 171 166 137 87 107 93 60
48 44 58 42 39 23 18 5 -9 2 -21 -9 -3 36 45 43 20 8 20 20 15 11 7 2 -22 -29 -17 90 92 119 165 94 75 52 80 78 113 138 182 113 187 129 143 205 203 75 47
61 52 62 40 44 27 15 4 -7 -9 -19 -29 -28 9 55 49 22 21 17 16 5 -1 -7 -5 -3 6 -21 101 77 76 78 206 128 83 107 61 87 113 168 173 123 243 146 145 175 211 94
67 63 56 39 45 28 18 19 -6 -6 3 13 -4 -10 7 35 28 26 6 -22 -17 -14 -9 -1 -6 10 40 82 47 86 86 87 157 132 77 58 70 74 153 199 204 201 184 201 80 182 103
66 66 52 43 43 34 12 22 12 3 14 21 29 17 -4 -4 24 3 -9 -5 10 14 -24 -13 -11 -1 46 65 37 53 71 64 149 102 76 116 140 151 200 210 244 210 169 191 173 135 157
68 67 66 51 49 44 19 10 22 14 21 32 28 29 19 -12 -14 2 -14 -7 -3 -3 -32 -16 6 20 29 68 35 63 37 12 111 56 76 164 192 197 172 231 219 224 148 155 179 180 158
76 67 75 54 56 52 26 7 11 20 22 35 24 43 29 18 -16 -39 30 44 37 20 -12 -1 18 10 35 71 46 67 65 47 53 96 95 166 185 81 75 187 205 204 168 142 107 119 135
92 73 67 59 61 46 30 22 11 7 22 24 38 28 34 20 46 19 38 84 83 75 56 25 12 28 25 19 30 50 60 133 121 122 90 169 125 138 123 129 120 145 129 83 138 92 130
83 74 63 72 56 47 36 29 19 19 11 26 36 38 38 55 79 120 77 75 51 54 135 108 75 57 44 59 32 -1 64 170 70 155 56 91 18 62 95 98 106 121 155 179 150 217 222
75 71 67 65 49 40 34 33 23 22 9 10 27 40 55 65 136 148 76 94 54 80 150 100 90 33 29 84 20 29 99 123 113 61 156 129 163 62 74 51 91 131 139 177 192 222 144
81 56 70 47 40 38 34 32 26 16 11 -5 4 19 51 88 128 124 99 79 52 25 147 19 9 11 -15 42 56 57 27 213 280 131 91 116 137 142 109 92 86 129 125 190 237 206 155
79 58 71 63 53 42 39 27 15 6 1 10 14 16 32 69 94 98 87 26 24 88 127 125 107 19 70 195 108 78 63 216 198 241 217 146 166 169 134 120 182 202 315 301 236 169 119
86 65 83 65 52 63 36 18 18 1 -17 11 58 13 42 54 98 119 47 13 56 57 81 81 62 65 45 83 80 80 93 156 139 143 125 137 172 106 146 191 246 263 280 268 217 177 90
65 78 85 68 63 66 27 0 -1 -9 -27 26 97 24 45 30 69 79 33 28 58 43 112 73 41 50 41 44 34 -14 5 169 154 128 149 115 124 156 135 116 190 178 231 237 198 202 127
83 77 76 68 62 57 29 2 -48 -6 5 82 55 34 34 3 60 29 -26 -7 68 14 33 45 77 89 34 35 20 10 40 37 45 93 97 100 78 152 188 220 204 195 197 171 163 158 128
80 77 75 64 50 32 15 3 -16 -7 5 88 42 7 28 58 78 3 15 -7 -38 -8 35 37 38 53 59 86 53 68 37 63 35 53 99 58 54 123 158 200 247 233 220 192 195 145 147
73 66 66 58 46 18 23 7 -10 -6 10 54 36 26 16 86 11 19 42 15 -56 -55 -21 2 32 22 21 24 33 25 30 -1 11 58 96 66 81 103 99 134 207 286 248 164 107 121 143
58 51 48 39 30 20 17 9 10 -5 -18 25 40 21 18 51 8 29 62 16 2 -10 -20 -22 -9 36 48 22 38 12 7 30 15 -8 51 91 87 106 66 57 82 165 138 126 159 147 110
48 41 36 37 35 33 29 25 24 22 12 56 44 50 23 20 31 81 29 31 23 3 -2 2 -3 -3 13 35 31 34 43 40 64 48 34 34 92 133 89 43 47 99 73 88 128 116 74
40 40 45 30 29 30 31 28 25 39 -2 48 50 35 35 63 50 50 77 55 44 23 17 19 18 15 17 28 33 34 45 48 49 57 74 76 49 54 53 41 79 81 89 91 84 -1 57
43 43 52 33 33 37 39 34 27 57 29 52 46 45 41 52 99 96 75 68 52 38 23 15 16 16 53 38 30 31 50 46 42 46 65 71 68 87 71 63 74 62 99 102 101 100 58
33 37 29 33 35 42 47 40 25 36 11 43 59 57 23 73 112 128 128 131 91 83 55 37 37 44 45 86 74 29 64 37 38 47 45 62 49 78 67 51 51 53 57 69 66 67 46
31 15 7 20 27 35 37 31 31 29 23 38 40 15 30 87 138 164 139 135 129 62 55 49 32 35 21 24 42 33 37 18 37 47 60 72 70 70 50 61 49 29 52 87 90 123 107
27 5 9 17 16 30 40 43 41 37 40 27 40 43 40 42 142 154 146 143 132 101 64 69 73 32 52 72 44 46 66 48 28 24 66 70 81 82 48 88 56 32 49 55 83 107 120
12 -10 -4 26 19 39 40 46 54 42 42 42 38 43 41 35 116 116 176 116 124 123 78 69 72 50 41 46 41 46 44 47 24 38 49 55 60 62 61 44 19 -10 34 42 54 22 83
19 9 15 43 28 29 41 46 50 58 46 37 43 57 41 31 51 67 98 119 154 172 183 140 93 90 67 57 46 43 37 23 27 24 38 42 57 61 41 34 25 41 37 28 52 31 46
33 31 37 41 40 50 56 53 51 47 32 37 26 53 43 39 29 39 56 87 117 159 161 126 146 143 94 93 79 59 34 45 36 33 37 48 65 44 32 36 20 7 25 41 42 24 32
36 43 40 42 56 58 55 71 66 66 67 52 37 45 27 38 53 29 61 42 93 98 122 145 126 119 131 123 114 95 71 57 64 54 41 75 61 62 60 41 31 24 58 29 19 34 37
33 40 41 43 53 53 60 50 52 62 41 62 65 84 69 56 51 24 23 32 42 59 77 101 121 114 140 136 166 129 121 109 84 77 108 67 89 40 54 26 14 6 15 46 35 39 30

GFSGBSN_con_3kmhel_048.txt.gz
Helicity
55 53 65 32 38 38 26 10 3 3 9 21 56 63 70 57 26 17 36 26 15 20 19 17 18 9 47 76 66 85 224 230 115 72 61 107 183 203 217 211 213 207 62 97 119 94 52
62 60 66 31 37 30 36 15 1 10 20 34 44 66 59 72 47 37 33 17 6 -2 6 7 2 -3 28 75 72 170 296 88 91 135 111 100 129 174 216 188 187 140 180 174 135 63 57
67 61 63 41 35 40 27 33 19 10 23 52 43 39 69 64 44 28 22 7 2 -4 -6 -4 -7 -18 21 59 89 286 192 206 117 77 124 109 120 143 181 173 182 131 171 195 101 73 75
74 64 64 52 38 48 32 23 26 29 31 44 48 37 50 69 63 18 0 -9 -3 13 8 -14 -12 7 44 60 93 114 179 132 115 98 66 109 141 112 189 170 206 160 188 167 150 126 131
81 74 68 49 50 43 27 31 26 21 34 46 42 44 37 35 39 25 11 -5 1 11 -3 2 1 3 37 80 45 49 111 39 38 122 180 109 153 125 229 205 272 271 207 161 152 86 145
95 76 69 48 51 38 28 39 39 18 21 42 38 42 46 27 37 11 3 3 15 -6 1 0 12 38 39 48 52 58 88 84 48 77 128 128 152 183 192 219 228 199 181 132 174 136 156
92 80 73 51 57 52 28 25 31 36 26 22 32 31 55 20 29 20 15 30 28 29 9 6 42 57 74 58 40 51 34 109 58 143 232 160 198 76 142 167 234 206 257 244 204 129 146
88 85 76 68 47 39 39 31 30 30 24 13 20 38 47 29 23 16 37 48 36 51 23 20 15 11 34 24 41 34 55 22 95 92 234 176 74 160 191 216 181 133 156 149 150 118 99
97 89 81 80 58 36 42 36 32 19 15 11 4 23 25 48 25 64 54 66 19 43 52 62 56 51 64 64 30 21 1 -41 126 75 89 319 190 175 153 182 158 170 139 161 154 163 166
97 89 74 88 67 42 32 29 27 21 5 0 3 9 16 26 65 82 53 31 33 41 76 48 54 49 32 35 52 43 54 27 80 87 201 211 159 130 83 96 128 157 147 159 151 193 144
87 84 71 85 71 56 37 18 10 18 9 -3 11 9 18 36 77 74 41 35 28 24 74 70 55 41 17 87 75 20 72 146 58 88 106 221 114 100 89 53 104 132 96 139 188 226 187
83 75 63 78 69 69 44 23 1 11 0 0 16 28 24 23 56 57 50 15 13 53 55 60 6 8 61 117 89 32 121 153 125 152 166 180 214 154 94 115 105 96 183 278 233 203 147
93 78 62 65 69 59 44 25 3 -8 -22 -9 32 25 57 58 35 76 45 27 46 48 41 53 67 100 122 66 73 98 110 122 104 106 178 177 196 155 145 142 149 134 232 231 202 198 92
95 80 61 48 46 34 27 0 -2 -8 -19 -7 29 1 41 46 34 56 29 35 11 16 20 28 37 65 54 94 9 38 53 85 136 95 141 112 99 92 126 149 156 151 187 196 136 148 142
88 75 53 33 24 11 13 10 1 -5 3 -16 3 40 33 -2 32 25 0 -5 30 3 -2 25 27 31 28 20 1 14 77 79 118 115 86 111 106 79 108 137 152 133 152 196 166 159 130
76 66 39 24 21 10 18 19 -7 -9 -1 -20 51 48 22 37 30 11 13 6 -3 17 -3 6 36 36 27 27 4 28 54 79 90 96 99 76 111 98 117 103 141 161 199 218 256 139 106
64 58 43 25 21 14 12 10 -4 -18 4 7 58 74 17 48 7 21 40 20 -1 -16 -9 9 23 17 27 28 23 26 37 38 31 42 82 71 85 99 83 116 148 204 209 234 242 224 145
62 54 45 23 16 9 8 0 -15 -21 6 38 82 104 9 36 16 35 54 27 23 3 -15 -17 13 54 42 33 30 25 19 44 11 73 93 99 80 91 105 81 79 177 199 230 238 225 208
66 60 54 23 11 8 6 0 -6 -19 -15 81 97 81 10 20 12 60 55 45 32 39 21 15 17 24 38 55 34 33 36 59 20 30 50 59 88 97 124 85 97 116 166 178 271 257 187
63 71 50 20 14 10 14 -8 -14 -18 -9 70 81 91 58 34 40 52 85 57 51 26 25 24 22 28 41 45 36 39 52 67 64 56 52 68 57 64 52 46 84 106 104 150 181 119 129
71 67 38 16 7 8 8 -7 -20 -16 -3 52 60 102 81 55 27 91 78 110 41 37 37 42 39 38 47 46 34 41 51 63 82 72 74 79 46 59 46 52 58 50 81 94 138 157 90
71 51 24 16 6 14 6 -9 -4 15 17 72 83 83 54 72 46 105 134 155 142 77 42 39 55 77 53 65 49 27 57 47 52 63 64 76 51 72 79 56 52 56 52 67 92 69 50
61 28 23 20 14 19 17 7 5 26 46 61 51 30 50 64 68 108 107 114 134 120 73 69 61 70 86 86 75 61 25 26 29 48 65 63 63 66 47 88 74 39 59 122 113 134 145
42 13 16 24 22 26 25 14 13 38 61 44 66 71 68 80 98 114 146 113 131 107 67 96 80 51 58 84 32 42 65 64 47 40 56 63 90 85 35 86 72 34 63 73 107 109 109
28 14 18 43 30 16 20 9 13 41 61 64 51 85 90 83 80 106 174 99 86 87 70 76 92 76 85 61 56 47 41 40 24 32 45 81 92 72 60 46 -10 2 36 51 54 26 75
22 27 44 51 29 27 25 8 16 27 45 55 58 36 67 97 61 53 88 91 125 139 129 93 85 113 59 45 52 52 41 31 33 34 52 57 71 72 58 25 16 48 83 47 25 31 56
22 41 44 33 29 33 32 34 28 47 56 54 38 46 56 72 31 43 74 83 109 148 138 137 137 116 86 78 71 60 55 40 34 35 45 56 70 47 47 38 21 14 21 26 44 24 36
40 41 44 24 30 37 38 32 33 33 33 29 34 32 45 50 52 60 56 55 45 98 117 156 141 114 116 105 92 83 61 62 68 52 43 52 49 59 66 49 33 19 56 40 18 30 36
33 43 41 33 42 51 45 24 29 19 28 49 52 58 73 53 33 22 12 17 25 62 79 105 131 138 142 141 134 102 106 93 72 63 110 69 88 34 49 34 26 10 13 21 30 29 31

GFSGBSN_con_3kmhel_051.txt.gz
Helicity
66 66 56 51 34 40 28 36 24 18 17 43 53 35 55 81 81 59 47 30 30 35 17 14 17 4 61 62 66 48 238 225 150 170 119 130 172 187 174 132 217 197 92 182 202 159 147
73 68 64 55 41 46 29 20 31 17 17 26 48 46 39 73 70 46 32 10 3 14 9 3 6 13 37 40 42 64 103 294 86 86 67 110 131 176 175 142 176 160 128 172 177 119 124
79 78 70 59 53 44 25 28 34 13 16 13 31 47 40 60 48 43 5 -13 -11 5 17 16 2 24 10 35 109 177 145 117 70 33 114 151 112 188 191 163 186 150 226 228 152 142 121
82 83 84 68 51 46 33 31 32 20 13 14 24 25 56 35 39 42 9 -16 -10 10 22 17 14 -10 8 9 109 266 340 119 181 -5 76 30 94 165 174 164 240 225 218 179 118 116 183
94 88 93 81 52 49 28 27 32 28 24 22 15 19 40 29 33 30 10 -0 1 14 15 -0 -25 -19 23 -41 137 214 207 110 147 106 130 101 95 136 193 160 277 222 178 147 120 44 120
113 104 97 78 64 49 40 39 37 25 24 25 26 13 35 22 22 10 -4 -9 15 -13 -0 -0 -12 -4 23 15 10 49 114 109 160 133 153 128 175 144 181 190 222 179 212 139 186 120 121
119 114 99 81 69 70 50 42 42 40 31 21 18 14 24 19 10 -5 12 43 25 -9 -7 40 17 16 19 56 13 59 87 138 197 196 128 139 165 85 116 146 182 231 205 176 180 150 113
118 117 108 88 67 76 53 43 43 30 33 19 13 11 17 18 9 -6 24 41 23 25 -5 31 33 24 28 3 24 39 34 54 144 6 146 267 80 123 123 148 146 185 174 186 171 134 100
114 114 107 92 68 71 57 48 24 23 22 14 -0 -3 5 10 8 34 32 6 -0 -2 3 16 25 2 28 35 25 34 22 -1 19 101 325 182 95 122 158 185 188 203 145 171 132 160 138
112 103 101 83 73 62 69 49 27 26 5 5 -9 -11 -5 14 40 41 42 -7 -25 -19 24 12 7 10 19 17 14 58 49 48 58 156 307 251 123 108 115 190 183 160 117 129 150 183 120
106 96 93 85 67 55 57 49 24 21 -9 -18 -24 -26 -10 38 63 52 34 26 -7 5 58 20 1 41 38 60 34 124 97 13 93 87 229 127 80 108 109 152 148 139 97 111 126 159 124
95 91 86 78 62 65 55 42 18 11 -7 -23 -29 -32 4 53 54 45 46 12 8 38 52 54 5 41 69 82 124 33 99 68 68 140 148 178 272 238 173 149 118 120 165 204 184 140 83
88 80 70 62 49 53 35 33 16 8 -8 -39 -50 -31 27 52 30 41 39 31 29 57 25 53 34 62 82 56 20 53 97 82 166 188 240 197 204 195 171 148 127 158 173 202 164 142 67
79 73 60 37 29 34 29 30 16 8 -10 -29 -42 7 41 24 37 45 32 35 50 29 6 18 17 71 72 35 31 37 65 67 152 130 179 126 53 149 191 162 120 159 139 159 136 118 66
83 76 50 29 18 20 20 17 11 6 -1 -17 10 42 15 -7 20 21 22 17 47 15 9 1 -0 31 26 9 27 29 48 63 101 131 65 104 117 140 147 187 163 190 150 131 140 142 132
86 80 53 33 20 10 8 13 4 5 -3 -16 67 60 28 -0 29 16 15 11 31 23 12 -10 30 8 17 -35 -27 4 33 29 66 84 101 90 98 102 96 136 159 184 202 201 209 136 98
93 75 59 50 25 7 9 12 -3 -1 -7 33 63 100 29 -8 16 4 3 19 49 47 36 21 30 20 23 27 20 12 55 81 82 93 100 107 89 89 73 107 92 146 179 186 156 146 101
96 72 76 60 28 9 8 4 -4 -7 -11 51 63 105 28 -2 14 7 24 48 55 44 29 40 37 44 18 1 17 45 39 99 64 121 115 120 112 131 78 100 97 75 101 163 157 150 202
83 81 86 56 38 12 4 1 -10 -21 -16 58 70 77 41 14 43 17 16 74 58 58 50 46 45 54 37 26 14 19 41 83 58 78 72 62 88 126 108 76 61 68 99 136 205 186 207
76 86 81 59 43 13 7 10 2 -20 -8 56 71 124 88 63 40 14 5 94 99 53 44 41 34 39 49 53 64 35 47 55 38 35 48 87 64 69 67 63 97 127 116 143 186 129 213
72 85 82 70 36 15 16 34 15 -1 13 53 51 84 102 115 49 26 -13 109 88 88 50 46 48 49 52 52 54 49 51 69 74 56 75 60 38 56 52 53 71 70 75 68 130 172 63
76 87 87 75 40 27 23 38 39 22 33 52 64 87 90 89 50 35 9 74 107 125 86 55 49 91 58 43 56 31 42 44 57 94 87 82 59 52 57 62 49 66 58 65 83 26 43
74 84 95 75 47 35 26 34 45 39 32 38 30 44 75 69 71 76 33 53 100 129 81 44 59 60 64 74 78 67 20 51 47 52 90 77 52 58 51 68 67 45 58 121 154 164 120
73 83 80 72 46 35 33 36 48 34 44 39 42 61 77 90 106 90 26 82 110 77 65 87 93 68 58 80 36 39 76 76 72 84 75 71 86 68 13 24 60 27 46 44 49 54 135
69 79 73 56 33 29 35 43 51 33 45 32 41 71 89 114 87 57 20 50 98 111 86 91 97 106 93 70 57 42 56 57 58 55 64 72 86 72 61 38 1 -22 31 45 39 22 48
65 78 61 39 34 37 56 64 60 53 38 25 24 49 76 104 84 40 25 20 48 92 102 102 101 125 66 51 58 35 23 17 34 50 79 102 112 105 88 42 7 13 42 47 38 14 27
69 63 37 30 32 29 50 63 54 61 35 25 14 45 67 83 53 39 43 22 43 84 118 112 143 137 89 75 65 51 49 36 47 39 46 68 65 67 64 50 23 16 28 42 55 26 38
60 38 23 16 22 37 50 52 48 46 28 26 20 35 75 75 46 45 30 13 -1 47 101 178 135 121 124 91 69 58 44 54 47 48 40 52 45 40 59 50 20 20 44 45 19 13 17
46 21 2 13 18 42 49 48 46 51 40 36 44 46 30 43 35 15 11 1 -9 11 56 137 142 156 148 134 124 95 73 68 57 49 81 59 72 46 62 41 22 17 12 12 16 24 23

GFSGBSN_con_3kmhel_054.txt.gz
Helicity
62 62 70 56 48 43 28 28 27 33 24 16 21 34 39 20 36 45 37 40 24 21 18 10 18 24 30 54 68 49 158 255 126 117 78 150 136 207 241 210 205 193 125 97 116 151 60
72 73 74 64 55 48 30 29 37 32 24 34 17 22 42 29 25 42 19 12 15 10 6 4 -2 10 9 23 18 53 25 169 114 122 120 124 131 176 200 204 175 139 160 89 94 66 108
83 89 75 72 60 56 31 33 33 33 28 31 24 17 29 30 25 32 27 -6 3 8 5 4 4 36 1 -10 12 127 57 51 108 97 101 61 168 136 172 236 199 204 129 137 160 155 171
94 105 90 77 68 65 63 37 38 28 28 28 22 15 21 20 23 22 21 -6 -3 11 10 3 8 4 44 -4 87 130 71 77 116 63 61 78 156 115 163 184 220 182 184 126 120 144 157
98 108 105 96 85 77 69 54 33 34 27 27 20 12 13 27 -5 11 12 -6 -5 6 14 3 -9 16 46 124 95 141 153 123 90 62 39 62 173 148 209 196 203 222 160 203 150 78 146
115 108 106 108 104 78 71 67 44 42 26 36 22 9 4 14 -6 -4 -1 9 23 3 6 4 16 19 60 64 86 195 130 68 120 97 97 121 201 259 244 210 160 193 231 226 226 147 161
118 113 103 112 109 89 70 70 55 48 32 35 29 13 -4 1 -8 -4 5 33 35 18 32 65 59 66 34 35 31 99 109 83 173 135 97 235 343 175 213 204 151 189 219 159 151 99 150
121 86 102 110 112 85 77 66 68 57 50 27 29 4 -8 -1 -9 -6 23 54 45 34 12 45 41 26 34 23 16 33 66 130 176 106 197 108 73 55 148 145 134 172 192 156 147 118 100
132 107 105 109 106 81 73 64 48 49 49 15 18 7 -12 -13 6 30 54 41 15 30 27 6 28 14 23 -18 5 44 91 119 188 116 149 192 66 95 123 155 149 189 160 166 140 166 153
115 114 102 102 107 68 59 54 52 39 54 23 15 -0 -12 -15 38 62 85 49 9 23 74 47 36 9 5 -11 24 81 102 110 124 27 173 42 41 94 105 122 164 148 119 135 117 156 136
93 112 94 92 96 56 51 53 43 40 48 29 6 -9 -1 18 61 68 79 49 23 27 80 59 61 6 23 22 41 90 74 59 54 -19 42 132 130 118 113 143 152 109 98 130 154 186 159
107 107 83 88 85 53 48 48 42 38 30 18 -10 -12 12 35 52 52 73 26 9 73 15 47 55 36 67 90 77 21 12 46 63 74 86 220 220 199 163 169 105 57 163 199 175 149 72
121 95 76 82 78 49 40 44 40 35 17 -0 -16 -4 65 40 23 30 36 39 45 73 44 7 -0 52 79 54 14 41 21 54 91 94 267 204 200 169 190 202 171 157 162 217 190 153 66
124 83 74 83 78 55 37 38 32 29 11 3 -3 52 67 20 13 57 19 22 34 36 24 5 20 70 35 25 -38 3 28 86 95 133 167 198 136 162 187 125 123 156 166 166 151 131 66
120 73 66 82 78 56 37 31 27 23 10 9 55 74 48 2 13 20 14 2 21 13 -4 8 1 12 43 27 -6 -12 66 117 161 234 120 182 234 261 204 204 159 159 135 155 149 130 88
109 72 62 88 84 59 37 28 23 20 9 34 86 79 44 -5 19 7 2 -1 18 -5 -8 -12 2 5 -15 46 26 24 16 60 100 113 59 96 99 199 147 161 168 121 143 148 180 85 52
100 65 70 93 89 64 48 25 19 13 12 80 80 131 40 34 25 -7 -3 5 42 47 12 -17 -18 16 10 -15 17 47 29 21 57 69 56 93 80 112 119 87 112 178 202 202 156 140 94
93 76 83 90 82 68 57 26 10 2 24 91 104 172 41 28 22 -1 -10 16 52 63 46 33 8 49 8 -2 6 23 62 71 42 38 60 78 60 104 101 118 134 122 139 168 161 161 159
97 87 87 84 72 67 57 30 5 7 40 78 136 128 49 38 71 21 1 10 49 60 43 50 61 72 34 13 10 18 55 70 78 90 57 61 96 95 79 76 104 105 105 134 145 111 97
96 95 80 82 72 68 60 35 6 9 56 74 144 209 87 45 31 15 -5 1 25 70 50 48 51 56 48 44 34 6 28 36 44 87 126 112 119 95 75 57 83 93 107 99 110 64 94
112 101 79 84 76 65 61 46 12 11 51 76 125 152 103 119 45 2 -9 -10 -1 93 75 74 58 69 46 44 44 39 43 49 67 54 82 67 63 65 75 86 74 70 78 114 121 102 86
110 87 91 82 75 62 57 50 25 28 70 96 160 136 76 70 33 18 -1 -25 -0 86 91 73 56 76 56 50 55 34 36 48 44 61 59 68 54 60 56 65 46 61 56 72 63 66 -25
106 87 91 82 79 71 62 43 29 44 66 123 72 63 75 52 64 70 33 -4 -17 101 76 64 47 62 69 61 55 43 7 35 35 52 88 79 77 74 49 70 62 49 31 150 167 163 139
106 86 79 84 85 74 62 51 44 55 66 59 76 80 95 107 93 86 13 -2 -26 101 80 69 75 76 51 76 39 36 73 64 60 67 67 78 107 88 47 62 76 35 41 50 61 58 106
96 76 81 90 88 79 65 58 63 61 72 32 37 58 75 109 58 50 -3 -1 -26 57 88 66 65 79 86 55 71 71 71 61 56 47 61 68 75 73 57 39 23 36 31 8 31 31 28
82 75 85 94 90 75 55 64 73 66 65 34 40 45 65 96 81 31 5 -26 -14 -10 71 92 77 105 85 59 69 56 50 34 38 51 75 76 95 90 65 39 18 19 29 1 17 33 55
69 82 81 88 82 52 45 58 62 50 53 36 38 56 72 89 47 29 40 8 -13 -26 7 93 131 106 76 64 60 57 60 42 41 31 39 49 47 59 47 39 18 8 11 19 45 25 26
70 79 67 77 57 32 29 34 35 26 47 37 32 37 63 59 44 23 -4 -0 -14 3 -3 83 90 117 102 90 94 79 69 69 60 38 26 32 28 27 44 39 14 1 12 13 4 20 9
69 64 66 46 27 15 13 29 34 30 36 31 31 7 21 16 26 17 7 -8 -13 -4 -2 45 96 112 122 88 102 82 72 66 58 43 52 37 48 37 45 27 30 21 10 5 16 13 -3

GFSGBSN_con_3kmhel_057.txt.gz
Helicity
25 47 56 70 78 87 52 41 40 33 20 18 32 30 20 33 28 35 44 29 17 22 28 28 19 17 9 32 32 44 74 115 99 74 130 169 184 219 253 251 270 207 91 71 85 93 67
40 53 59 88 85 84 78 63 49 29 35 24 33 33 23 26 36 26 37 28 5 10 16 14 15 14 31 18 18 34 31 38 60 70 140 167 175 199 224 213 213 174 234 127 134 114 106
56 65 70 91 90 94 89 72 58 41 30 33 41 34 27 22 16 15 24 20 6 2 13 5 10 38 51 18 9 28 49 8 62 104 122 127 172 185 188 226 255 169 205 153 110 125 104
54 77 80 89 82 97 97 83 70 62 48 32 43 42 34 21 25 -5 11 19 -0 3 7 10 10 49 60 45 2 75 47 48 60 51 74 55 164 152 187 204 278 208 178 164 117 109 129
115 83 96 83 88 87 93 95 79 81 57 45 37 40 27 15 20 2 -6 13 1 16 12 26 40 60 52 65 26 103 51 53 113 74 36 26 222 161 161 184 235 242 165 182 189 100 121
140 96 111 100 88 93 89 99 103 87 67 58 49 33 21 12 14 14 -10 3 34 29 21 40 41 53 72 18 11 105 81 84 84 103 64 46 79 205 182 224 185 216 217 190 162 135 105
158 104 121 106 93 89 84 106 100 83 54 63 52 30 23 19 19 15 19 32 65 43 58 70 76 61 57 28 15 79 72 78 119 99 112 86 57 94 166 265 134 221 215 162 148 85 117
192 154 121 115 90 92 87 96 88 85 53 50 41 29 18 15 6 26 58 66 60 36 39 48 37 41 44 35 33 35 72 88 140 73 93 81 62 186 152 190 162 154 196 190 178 87 130
126 148 108 108 91 90 84 83 75 80 59 45 44 34 13 14 13 71 89 43 5 33 93 70 26 21 17 32 28 54 77 135 109 106 98 -48 59 221 208 175 171 186 121 182 141 127 116
187 147 92 106 97 90 81 80 65 74 62 48 34 22 12 14 51 75 84 42 3 13 70 89 52 13 22 -1 23 63 69 172 242 101 120 50 101 143 137 156 141 148 126 157 132 144 100
163 130 106 98 102 82 76 64 53 66 50 44 31 17 13 42 71 71 50 38 2 16 15 60 73 29 9 28 41 71 100 110 116 119 86 78 29 69 132 134 145 170 127 159 162 173 125
150 134 122 97 99 76 68 66 48 57 46 33 21 7 33 62 48 53 50 10 5 21 -5 24 59 56 61 -7 35 79 81 110 101 19 61 98 93 106 77 124 109 85 175 227 190 156 90
181 147 117 100 89 71 76 55 49 51 36 32 19 30 70 44 29 23 27 34 30 52 13 -11 -23 38 50 21 -43 17 58 120 78 101 52 47 120 123 165 182 196 142 178 199 150 128 61
193 159 118 99 78 78 75 49 44 47 32 29 61 73 54 39 3 30 29 19 23 13 3 -18 -0 50 1 9 -6 42 71 110 128 105 103 148 125 177 202 180 120 149 133 154 110 101 56
202 169 116 89 82 90 76 49 41 37 23 37 84 62 54 27 39 22 20 6 16 -6 -6 -9 -7 -19 -7 -6 39 52 117 108 82 89 164 203 183 236 214 187 167 163 144 123 107 112 86
216 173 115 86 85 97 72 50 37 30 15 60 82 94 50 4 18 18 18 6 7 4 -15 6 3 -4 -4 38 39 36 76 112 101 127 147 148 144 171 188 173 168 126 133 151 164 77 55
220 175 109 88 83 95 68 52 36 22 20 72 88 166 77 35 26 4 11 13 9 4 -0 1 -6 9 -2 12 24 30 50 91 118 83 70 144 130 185 155 124 90 148 137 143 93 82 34
217 173 102 89 83 82 67 53 30 17 58 83 142 167 78 30 67 19 4 16 12 39 11 2 5 25 17 -7 20 37 44 82 76 84 74 96 80 166 139 120 148 125 82 129 99 79 118
213 164 98 89 89 78 70 49 29 15 56 96 170 170 58 33 175 93 -6 -0 2 23 34 26 26 29 9 -12 11 56 84 102 58 65 51 57 63 63 60 39 59 59 90 137 170 148 105
209 158 95 87 95 86 74 63 30 15 70 92 153 174 111 60 48 62 28 -17 -11 16 38 34 43 39 18 14 32 18 77 76 108 89 78 65 66 50 44 50 91 130 104 104 137 95 89
204 141 71 90 90 88 82 76 37 30 75 101 129 137 110 160 88 38 28 -4 -8 -24 65 56 45 53 40 28 28 31 29 37 80 104 120 104 83 78 72 76 90 89 76 88 83 75 79
197 138 79 101 93 91 92 74 51 41 93 106 144 158 109 110 72 70 45 36 -4 -8 21 61 43 60 48 37 45 18 20 36 44 71 74 84 74 72 87 72 61 68 73 67 49 53 15
154 128 87 102 94 100 89 81 71 48 72 106 90 77 111 95 104 104 87 60 7 -13 27 69 32 32 75 63 51 49 26 26 18 37 55 60 59 62 58 63 45 25 32 87 134 132 99
119 122 90 99 91 98 92 83 78 62 51 57 44 79 112 143 114 98 63 21 15 -6 -16 69 70 51 40 55 43 37 64 60 55 73 52 54 71 67 41 56 73 27 46 42 41 39 88
111 120 87 94 92 100 96 83 82 72 46 36 25 53 81 142 103 93 61 32 -19 -37 -25 28 84 74 65 48 70 64 66 56 71 78 72 60 71 73 63 48 20 19 25 33 24 47 42
106 105 101 97 100 102 96 88 74 48 43 20 21 32 65 129 91 66 57 15 13 -18 -31 11 63 81 72 61 60 61 58 41 41 49 66 64 67 76 65 51 25 10 13 8 24 48 31
92 85 105 91 95 108 84 84 64 33 29 14 15 21 52 87 61 56 60 45 5 -9 -21 -11 71 90 52 58 49 58 69 48 52 35 30 36 40 53 50 41 43 25 16 25 59 58 55
115 109 96 90 88 88 74 66 40 27 19 -2 -15 -14 18 21 32 29 14 10 6 3 12 -1 -2 72 92 94 73 65 63 59 64 45 36 38 45 37 43 50 63 49 21 54 31 15 3
129 130 93 89 84 69 57 47 30 14 13 -12 -33 -43 -34 -15 -18 4 12 9 7 14 16 -7 6 39 119 107 108 78 63 61 55 72 58 63 48 52 45 40 33 28 7 37 35 -0 13

GFSGBSN_con_3kmhel_060.txt.gz
Helicity
25 30 40 60 77 73 88 76 91 66 57 42 25 30 33 33 36 46 46 58 43 32 20 17 17 11 18 8 2 39 49 65 56 11 102 292 137 138 157 154 137 173 126 192 100 142 117
32 31 53 49 82 90 85 84 77 71 61 43 39 33 33 32 26 34 47 44 45 30 19 10 9 16 34 -1 45 30 32 48 -3 13 97 253 121 156 145 141 106 67 114 116 164 176 136
71 68 69 49 91 96 94 92 75 91 70 60 51 32 31 36 22 35 34 44 34 34 22 12 16 24 43 24 45 17 23 40 8 -24 65 97 213 205 127 148 155 144 124 72 99 110 173
99 121 97 61 75 100 95 93 87 91 83 57 50 38 24 38 27 30 18 20 33 33 22 25 33 39 60 36 24 23 67 63 22 -30 54 88 236 255 144 208 161 139 97 83 24 43 37
148 171 140 100 80 81 98 101 94 90 82 60 52 40 23 24 24 18 16 10 21 28 30 32 55 48 64 39 -5 18 61 89 -5 38 23 51 278 253 197 145 179 126 80 60 40 41 75
191 209 147 90 103 82 96 99 107 98 82 61 54 42 31 9 22 11 14 -2 46 53 46 55 45 47 58 15 0 43 102 68 70 25 88 5 177 242 163 167 173 131 125 80 67 117 78
224 237 114 80 86 88 94 107 115 100 81 62 49 41 28 16 8 6 31 45 76 76 57 50 53 37 33 6 13 70 81 64 52 78 123 37 156 238 124 117 195 98 128 77 94 106 90
239 261 193 132 78 72 102 109 113 103 85 61 43 39 27 9 0 0 44 101 83 56 94 80 38 24 24 19 19 65 47 105 93 133 129 102 92 218 125 146 161 75 71 75 116 61 50
238 228 196 157 93 79 105 104 109 94 77 53 45 32 11 4 -2 35 56 87 40 32 72 89 30 8 13 34 26 36 71 113 130 63 75 87 64 142 105 130 91 63 51 71 79 95 110
250 179 189 135 99 83 95 99 97 89 66 45 37 18 8 12 37 49 72 66 27 12 34 69 73 34 26 28 10 36 61 142 136 91 43 -2 2 66 73 118 105 80 91 83 74 68 81
259 197 188 130 100 88 91 94 87 86 51 45 30 14 4 32 47 53 66 42 7 13 32 38 55 10 8 -8 63 54 78 211 59 114 59 48 17 142 59 89 106 134 51 75 82 81 89
234 180 181 143 89 77 78 96 76 81 41 39 17 2 42 49 33 42 61 17 4 12 28 0 23 6 -10 -12 55 43 49 158 71 79 53 82 43 208 154 114 137 52 100 106 103 91 76
249 192 196 148 92 74 67 98 73 70 35 31 24 48 50 10 35 26 31 28 27 35 -4 7 15 19 10 3 38 39 57 99 87 47 71 56 45 58 137 129 97 100 92 200 137 101 82
206 213 190 154 108 76 70 90 69 59 36 30 65 53 31 -8 -6 17 23 12 22 19 -16 -13 11 21 -30 -17 -23 37 51 80 99 38 44 105 94 67 73 75 114 76 93 140 116 102 52
207 187 197 176 117 81 77 77 70 57 44 60 86 58 37 13 21 8 13 14 13 -3 -21 -30 7 9 14 5 24 62 66 82 98 101 58 53 100 131 124 104 118 122 122 173 83 52 24
235 218 172 178 121 89 78 69 73 53 52 96 84 90 49 2 5 11 19 21 5 -13 -10 1 -10 3 23 7 43 62 103 130 88 80 85 65 123 79 134 143 144 105 90 99 107 20 24
264 238 168 168 124 95 73 66 68 56 69 118 103 159 78 23 12 19 99 24 -7 -11 35 -14 -17 -3 12 12 61 90 85 111 83 79 115 131 148 131 122 123 99 133 108 113 96 88 71
234 214 142 159 127 94 75 69 53 63 118 125 142 153 82 12 72 44 73 20 -1 -13 15 3 -34 7 18 15 35 62 68 77 61 70 81 137 69 153 139 100 118 85 62 36 55 21 73
215 219 141 146 126 89 83 70 52 56 101 131 178 154 54 17 146 117 30 22 -4 -20 5 18 13 28 22 20 29 48 84 82 86 77 59 65 80 151 102 77 85 53 42 56 94 97 48
295 187 127 131 119 90 83 71 41 52 111 114 154 169 106 50 23 76 67 32 17 -21 -1 23 31 22 13 1 9 39 57 87 77 60 50 62 65 59 36 68 63 58 53 57 80 71 27
254 181 119 132 109 89 83 71 50 72 119 102 134 148 99 144 83 63 35 32 14 -9 -23 35 22 34 25 18 11 19 51 70 95 117 78 63 60 60 56 43 39 44 26 39 13 10 24
262 172 126 129 105 92 87 86 71 83 114 122 143 144 117 124 83 90 47 56 39 -7 -29 -21 41 49 18 33 50 27 15 37 59 75 93 104 67 69 75 73 52 45 35 45 27 9 24
227 147 140 139 98 95 102 78 71 81 78 108 82 75 93 118 107 111 75 52 55 -5 -28 -16 39 39 64 56 46 61 53 51 42 46 72 75 81 85 82 75 56 49 31 35 62 65 59
229 176 120 130 112 92 85 78 76 65 47 54 55 89 87 113 96 94 73 49 61 0 -24 -24 65 63 53 73 26 43 52 51 49 63 56 54 75 77 64 46 53 64 43 57 34 41 24
168 144 107 112 96 84 112 94 102 68 48 33 50 47 66 114 89 97 77 56 65 30 -3 -9 -16 82 79 44 38 41 45 32 53 73 71 64 66 72 70 74 76 40 36 40 59 73 65
192 112 107 83 95 90 107 86 81 78 70 65 43 28 36 129 57 57 68 39 76 81 66 -17 -22 74 72 60 51 54 71 71 59 44 82 71 71 73 76 94 103 87 65 35 33 84 125
212 145 72 90 99 90 113 84 54 44 32 14 22 26 36 65 25 26 30 38 29 47 55 10 -27 -37 80 58 57 61 69 64 63 59 56 42 43 42 48 62 86 84 80 53 76 135 106
208 155 87 105 103 101 103 79 69 61 13 -16 19 -11 -21 16 9 -8 -2 17 22 33 64 1 18 -23 -13 -11 56 73 63 67 58 64 59 46 53 55 47 51 80 140 56 75 65 40 32
175 136 94 114 104 109 98 68 59 29 7 -29 12 -14 3 -23 -35 -33 -12 -8 -3 -1 27 10 -13 -21 10 10 42 74 70 62 65 74 45 58 63 70 46 91 80 56 15 55 61 36 32

GFSGBSN_con_3kmhel_063.txt.gz
Helicity
66 72 59 50 47 36 37 87 80 83 56 46 36 55 40 35 35 33 30 36 35 45 39 25 19 10 5 20 15 62 20 37 94 21 15 214 196 173 129 128 128 102 158 119 67 83 126
87 88 96 80 83 74 60 61 83 83 84 56 40 50 49 28 31 28 14 22 28 38 35 26 22 15 19 16 75 35 23 29 41 -3 -176 176 176 175 149 125 126 105 134 228 129 161 139
112 101 139 104 83 76 63 77 72 87 109 86 58 36 49 15 24 24 13 -7 11 35 34 29 32 27 35 47 46 38 12 24 35 -26 -46 65 196 146 232 150 96 126 61 232 131 217 88
188 115 176 146 93 97 71 84 71 104 127 102 69 49 43 11 7 14 12 6 -7 36 32 25 34 33 67 74 11 -3 17 16 48 2 13 72 134 119 286 105 85 195 52 113 147 80 106
187 161 203 209 154 109 93 86 73 124 124 103 77 56 37 17 5 8 2 -7 -9 18 40 30 35 40 50 85 41 -10 24 65 0 -14 -45 71 135 131 218 154 147 141 85 77 126 132 100
90 134 217 288 201 130 111 102 90 133 129 111 81 55 29 11 6 -6 -7 -5 -5 45 54 54 33 43 46 47 15 5 85 41 -8 -11 34 134 96 209 208 198 135 122 137 5 76 40 67
81 99 194 262 168 73 107 108 93 130 126 111 80 47 27 10 -4 -11 15 52 69 73 64 48 37 16 36 -2 15 36 76 34 23 1 117 123 95 290 135 119 96 76 87 48 29 24 -1
22 79 234 273 172 89 114 110 101 116 110 102 72 44 27 1 -12 -7 38 65 36 33 64 78 23 21 30 65 3 28 57 27 45 74 71 83 109 217 146 86 213 82 91 136 102 57 21
14 29 249 267 131 111 118 109 104 105 105 84 71 38 17 0 -4 26 54 38 22 15 37 96 41 19 23 65 5 2 34 37 56 63 77 110 109 297 269 190 264 164 107 123 102 82 37
25 66 252 275 145 90 113 99 97 91 102 76 65 34 17 6 38 50 61 51 16 -5 42 98 73 37 21 43 -9 27 32 53 81 88 34 12 185 228 244 131 151 154 107 138 84 44 72
57 74 209 232 87 115 117 93 89 79 92 68 48 28 9 41 32 48 66 32 -12 4 70 53 60 9 27 21 12 62 81 48 107 118 114 60 39 122 181 66 70 154 126 82 46 20 103
69 94 224 215 117 121 114 92 88 72 82 59 35 19 38 61 27 42 36 0 -1 31 65 23 19 -14 19 14 92 47 105 57 46 112 118 66 59 122 177 158 191 101 91 74 78 96 103
-12 158 282 177 151 126 113 104 85 68 83 54 40 60 36 35 55 39 14 15 32 38 21 44 16 -6 -34 -5 44 40 46 35 91 141 95 15 52 145 78 126 65 81 114 206 141 132 145
54 140 226 154 133 131 129 115 84 77 85 60 45 62 35 -7 4 27 3 4 33 11 0 -11 10 -5 -13 -14 40 71 55 51 -76 60 127 141 106 140 155 80 103 55 64 173 136 79 71
61 127 242 186 137 103 113 103 87 87 81 81 59 69 37 18 30 6 14 29 34 -7 -31 -4 36 51 -9 -16 25 103 75 32 -7 56 113 136 117 110 136 119 116 85 90 138 216 189 175
49 174 284 197 155 131 107 93 89 95 78 81 73 84 57 23 10 10 37 33 7 -34 -26 4 -21 -7 -6 4 35 63 77 46 1 54 64 48 71 82 61 88 120 128 82 119 173 105 68
47 151 242 270 172 121 113 91 96 98 82 73 74 119 60 12 13 37 66 12 8 -28 -16 -13 -6 -3 12 23 35 55 56 59 64 82 99 15 48 49 54 49 52 101 99 130 137 148 156
42 174 289 245 205 102 100 96 103 102 120 116 116 127 59 9 68 30 36 7 -26 -28 -11 -9 -4 2 20 47 50 67 50 73 31 59 65 103 39 61 48 63 134 68 38 21 57 25 68
54 212 297 269 185 91 90 90 107 106 93 140 130 139 37 10 110 78 4 -14 -26 -30 -24 -12 -12 -12 12 12 39 45 41 67 56 68 50 94 42 83 56 28 61 61 54 75 46 82 49
159 241 319 248 174 93 83 81 96 85 53 112 123 111 90 45 33 25 31 27 -2 -46 -23 -16 22 12 3 17 36 32 50 51 65 69 82 86 48 81 46 62 50 45 22 12 29 70 42
145 268 251 212 163 68 59 66 81 76 80 104 118 109 90 127 79 33 -8 15 28 -13 -29 -24 10 39 25 3 16 32 54 55 49 44 32 65 51 59 65 59 60 49 22 14 29 18 29
132 183 292 231 102 64 51 32 76 86 127 106 125 111 94 112 71 54 23 34 48 -8 -20 -31 -27 44 35 48 63 29 17 50 55 52 76 67 50 55 48 46 37 35 29 23 -10 -13 -8
147 280 267 214 96 29 49 26 61 93 101 114 85 50 61 111 100 71 50 46 46 -4 -38 -40 -25 18 62 64 51 47 44 47 51 55 63 77 62 54 46 42 33 25 14 14 26 37 60
294 294 256 182 95 6 35 12 32 66 88 86 54 80 94 125 94 56 14 7 55 10 -4 -33 -26 -22 58 43 39 34 33 38 44 59 63 67 86 99 79 71 57 87 58 79 83 91 90
301 282 218 150 37 32 32 23 20 58 62 18 24 76 92 131 96 35 58 16 11 -15 -6 -20 -38 -27 74 44 44 39 35 32 53 70 69 85 76 79 86 71 90 41 70 98 116 140 151
334 318 198 100 71 47 54 73 49 74 67 51 75 50 61 110 74 43 60 29 42 20 24 -12 -36 -13 -1 2 31 14 44 76 62 66 89 89 83 82 87 104 109 155 99 85 88 79 149
288 295 138 79 68 26 81 87 77 76 63 86 73 102 54 75 34 47 23 29 12 25 24 -11 -28 -32 -33 -18 -24 -32 -21 94 75 66 63 74 81 77 76 112 121 154 99 63 92 155 135
229 237 146 102 106 56 86 69 61 76 81 91 87 113 58 17 43 -9 -21 -12 -15 11 53 4 31 -6 -30 -8 -12 -23 -31 73 73 104 85 67 76 82 86 94 88 113 85 108 117 63 52
205 195 177 179 96 102 93 69 75 62 50 83 65 85 93 72 23 12 -5 -19 -53 -54 -1 21 34 10 -9 18 -3 -27 -12 28 102 74 73 84 103 103 82 97 81 83 69 58 49 49 37

GFSGBSN_con_3kmhel_066.txt.gz
Helicity
70 81 71 72 62 63 73 56 51 37 60 66 64 64 57 57 41 28 24 3 7 20 33 42 9 3 16 51 50 125 51 17 -13 -15 69 15 201 198 244 151 182 133 105 136 102 246 127
105 125 153 102 109 89 96 96 89 62 60 78 96 86 69 63 45 21 27 6 -7 8 26 44 13 4 25 50 110 90 51 3 2 17 58 16 134 243 115 181 165 126 178 131 81 50 106
105 124 160 133 173 138 126 116 96 72 66 101 104 86 82 67 41 20 24 -4 -5 -3 25 36 21 17 36 50 56 63 22 -4 28 8 -37 10 111 210 202 185 171 132 133 154 119 132 111
73 104 131 152 172 194 150 81 70 81 85 97 106 93 77 68 48 23 22 -2 -2 -1 10 36 26 29 65 21 61 41 38 25 13 52 -19 -66 165 178 98 194 188 122 124 167 131 181 92
62 68 100 120 161 220 177 117 79 69 95 104 109 107 96 68 48 28 3 -16 -2 0 15 38 54 50 41 73 46 62 17 20 11 7 -16 -44 91 44 124 266 173 144 165 90 119 216 161
46 56 82 119 169 249 186 114 78 90 107 113 108 108 86 62 44 20 -4 -5 14 7 32 32 30 45 52 57 60 40 6 23 9 7 -40 -48 94 29 134 260 175 124 134 97 61 127 205
84 35 67 69 182 270 209 113 93 105 111 102 106 99 83 60 37 15 14 39 86 61 25 54 91 54 11 29 22 27 29 6 24 9 -87 -19 123 69 66 180 141 138 151 100 52 49 10
69 83 60 39 156 263 200 146 84 103 103 101 103 98 81 55 21 24 29 40 70 47 27 101 62 27 41 122 9 1 25 10 15 41 27 62 148 85 93 268 100 94 68 85 -27 13 59
37 61 77 68 175 248 199 136 73 96 96 107 97 92 74 38 18 40 31 14 13 7 44 114 68 39 42 75 24 -12 38 6 70 29 90 37 104 175 196 76 156 102 83 163 54 15 51
90 28 71 52 194 242 164 110 93 98 90 108 91 83 61 26 54 51 40 51 19 1 45 95 90 47 31 54 37 16 27 12 19 111 107 106 147 278 73 124 195 195 61 56 59 71 72
51 105 47 86 192 204 140 99 101 89 90 93 76 59 44 31 56 55 46 42 -15 10 65 60 57 20 16 62 2 57 37 24 26 116 145 88 216 347 148 157 160 245 118 214 184 80 150
91 84 93 99 146 195 185 137 73 91 91 83 66 38 56 73 40 26 25 -1 4 41 80 55 30 5 24 52 40 48 23 42 85 140 90 56 166 245 299 269 247 179 260 225 175 182 150
77 192 227 93 146 241 137 115 82 94 89 89 65 74 54 57 76 38 15 19 51 53 33 60 33 -9 7 18 96 24 20 82 114 104 53 86 149 194 193 208 134 154 203 290 278 279 207
9 158 299 95 172 264 194 94 51 82 95 101 76 66 42 28 41 14 18 26 97 25 6 11 40 6 1 29 66 22 36 96 153 97 55 93 115 162 141 129 115 88 192 255 220 176 170
-32 80 254 133 181 196 224 107 72 70 97 116 90 70 59 35 40 2 23 84 53 -1 -31 9 85 19 17 28 65 53 55 40 121 101 106 79 108 138 100 172 104 68 127 193 249 232 146
-4 24 235 149 162 211 172 126 72 61 92 132 106 93 80 50 21 9 46 50 -2 -20 -27 -1 -3 23 12 13 64 89 42 73 44 104 113 93 137 178 101 128 118 112 63 130 230 187 162
62 -6 201 329 164 247 218 83 27 74 88 124 104 107 70 29 18 34 80 41 -4 -19 -16 -16 1 14 -9 38 63 59 42 44 26 40 102 35 55 98 108 90 94 99 142 142 133 147 163
149 -26 267 372 236 272 195 98 57 88 126 157 99 83 46 22 78 38 46 32 -24 -18 -12 -13 -6 11 13 15 64 80 36 44 32 39 64 39 39 51 43 91 109 116 76 88 100 115 133
124 148 492 104 277 238 171 138 38 103 136 158 100 104 37 16 99 85 26 1 -39 -15 -23 -11 -7 -14 2 -5 49 54 54 48 58 77 58 48 26 62 33 26 29 26 50 59 57 83 96
169 354 686 192 242 209 183 115 7 76 39 141 101 70 101 24 1 25 62 51 9 -41 -27 -30 -23 -3 21 1 17 30 64 40 60 65 59 67 3 44 39 38 48 63 48 47 77 98 59
361 498 305 212 205 177 154 77 47 51 47 108 47 61 81 72 35 33 4 38 51 -15 -37 -13 -10 -26 -18 -8 1 42 41 23 63 39 37 57 54 43 65 78 92 60 45 33 68 49 74
282 636 67 200 179 150 173 39 16 48 106 99 82 77 74 57 35 46 24 27 62 -15 -40 -17 -20 -6 -10 28 75 37 40 62 70 38 35 30 49 46 40 49 50 40 38 49 21 45 33
321 460 217 86 152 167 147 -7 41 65 164 87 77 68 46 78 50 72 56 36 20 -30 -56 -47 -15 -23 -25 30 87 80 66 56 59 52 69 81 61 61 54 46 53 34 30 32 55 87 104
479 811 8 157 176 166 94 34 41 79 122 101 71 69 56 54 42 61 54 7 -8 -28 -19 -42 -16 -28 -26 47 46 50 37 37 44 74 78 68 91 110 80 82 75 51 78 110 121 139 129
255 450 173 189 172 149 58 4 26 39 67 99 68 89 58 55 58 83 50 14 -12 -19 -44 -43 -58 -41 -10 5 -22 -15 35 37 63 73 58 69 47 77 86 66 64 74 67 88 107 166 155
305 266 68 240 117 138 50 16 17 12 50 82 72 93 121 102 75 11 52 27 16 9 -20 -56 -43 -18 -1 -12 -12 -21 -41 -18 39 64 75 82 101 85 76 96 101 134 107 85 104 110 125
790 34 145 219 178 120 114 28 22 20 50 67 71 129 146 79 118 137 38 43 11 -18 -21 -35 -42 -36 -41 -20 -13 -15 -21 -25 -32 38 73 91 91 93 92 106 128 142 91 73 99 79 109
390 394 159 146 145 129 125 32 44 37 56 85 118 163 146 76 152 128 81 24 2 -10 5 -48 -15 -39 -22 21 10 2 -12 -21 -19 0 49 70 93 96 107 114 98 97 82 94 100 108 94
210 152 73 86 97 47 64 9 45 48 58 102 189 204 210 113 95 81 89 85 58 9 -21 -6 14 -11 -16 51 57 34 17 -15 -11 -20 43 17 114 108 112 86 79 78 84 71 73 41 29

GFSGBSN_con_3kmhel_069.txt.gz
Helicity
83 94 72 113 126 123 101 82 103 78 67 64 33 82 103 99 95 77 53 33 29 14 15 18 32 44 50 90 62 67 53 40 13 32 13 29 23 141 122 165 196 127 175 103 96 117 202
39 65 86 108 130 144 167 142 118 103 103 61 55 97 117 110 91 70 52 30 26 2 20 14 46 51 79 74 53 97 90 31 7 -36 -20 35 58 89 181 216 140 94 139 164 106 89 231
52 49 61 75 115 149 225 184 143 103 107 86 80 93 124 110 94 70 53 26 19 16 -1 8 46 69 100 64 68 53 68 44 15 -2 -29 39 56 78 339 182 181 214 105 149 122 112 96
30 47 60 64 80 125 193 262 170 116 102 83 104 103 130 120 79 74 46 21 7 6 10 10 48 90 98 58 33 63 58 74 9 32 16 11 -15 96 157 244 223 131 218 150 189 92 203
47 21 38 53 55 87 170 316 206 127 113 81 121 109 123 117 75 61 36 8 -3 8 4 23 72 109 57 51 76 72 95 56 14 30 42 -12 74 103 109 130 191 186 120 116 180 153 184
62 47 17 44 47 68 60 342 229 138 139 126 120 109 115 115 73 50 15 -14 20 22 9 28 38 59 45 63 61 40 20 -0 5 34 26 7 117 36 27 221 143 150 132 78 152 127 139
66 112 67 33 38 36 45 227 277 187 148 107 103 108 118 109 77 33 47 59 97 87 40 87 102 99 38 75 15 22 5 -6 20 19 -8 -2 34 33 -121 121 233 159 158 116 49 99 118
83 73 103 82 79 24 51 168 227 147 130 108 103 110 119 102 64 28 54 83 97 56 36 73 35 62 57 111 31 22 -4 -0 8 6 -21 -28 47 42 4 129 236 128 172 114 101 84 99
75 82 72 77 167 81 72 156 170 209 89 113 111 106 115 80 61 46 62 46 43 17 41 63 86 54 73 86 47 22 16 26 30 15 -21 69 45 54 39 190 186 106 90 125 94 77 167
-99 66 67 32 122 145 71 158 154 153 110 92 106 96 107 72 108 74 69 54 37 8 59 39 65 40 83 87 37 15 10 45 68 84 -28 125 119 67 100 164 158 127 98 71 100 37 101
-96 -26 27 85 2 245 67 169 109 140 115 80 86 91 84 81 103 87 63 57 -1 11 101 48 27 14 70 64 55 34 16 8 67 61 137 172 162 69 -40 89 67 153 96 104 28 4 85
67 58 67 106 -30 112 133 146 176 95 63 98 80 69 89 118 50 45 44 6 -9 66 32 35 29 12 33 55 63 30 118 130 150 34 47 106 205 280 155 103 74 126 252 280 164 125 63
78 118 82 172 1 -1 298 223 176 85 117 108 66 74 115 83 98 44 18 16 90 102 25 39 21 -5 15 -7 24 64 81 124 107 65 184 222 363 269 197 209 211 175 275 277 270 218 80
34 78 81 160 75 -19 280 183 193 77 135 64 60 120 91 72 35 34 12 54 195 3 22 13 30 -3 -20 -18 18 37 70 147 153 79 157 124 183 235 332 271 158 170 141 173 144 107 188
-10 62 -34 224 51 -7 395 233 199 131 135 57 94 123 107 60 23 9 48 159 130 -8 -10 28 33 -6 -20 28 26 38 53 119 106 52 64 107 142 224 204 215 127 147 193 141 142 156 163
-14 -44 -33 58 222 164 281 278 244 175 116 64 91 132 120 55 10 13 95 132 18 -34 -13 18 20 1 -14 -4 28 52 98 122 122 84 101 101 109 153 140 140 172 109 127 207 218 140 156
-1 -6 -61 34 139 61 413 158 153 52 75 9 102 81 99 48 17 45 136 103 -24 -27 -14 -16 14 1 -25 -24 37 78 71 90 96 110 92 82 88 105 95 70 86 126 112 142 128 133 148
17 -0 -61 -71 102 -59 249 91 248 80 151 106 98 22 68 45 83 56 103 55 -29 -23 -22 -19 -8 5 3 27 52 59 66 88 68 66 36 64 42 98 63 89 91 94 84 124 73 148 166
4 14 -41 -91 234 -150 62 176 220 62 157 174 124 69 68 26 73 63 56 11 -36 -29 -21 -14 -4 -6 19 6 -53 62 40 41 46 71 23 10 32 68 80 59 36 51 63 49 81 93 89
1 -20 -86 142 104 53 245 236 157 31 66 160 96 41 71 -9 -15 25 95 82 24 -54 -54 -43 -30 -25 -6 -12 68 100 80 48 65 39 40 29 34 29 24 6 11 22 32 41 87 80 91
-1 -52 -113 260 185 57 289 226 140 47 -19 171 63 -1 6 51 -28 7 44 93 75 -5 -44 -40 -32 -7 -12 -15 19 77 79 99 72 52 53 44 51 43 53 39 27 16 6 18 77 60 92
-18 -68 173 200 253 94 297 211 31 -38 77 128 62 5 25 5 -6 32 58 92 85 -19 -47 -36 -30 -54 -29 8 -0 19 35 64 86 50 33 19 31 50 34 52 53 44 24 31 -27 49 30
-47 -2 96 277 437 19 264 120 96 77 209 136 77 68 30 42 27 41 55 72 61 -18 -67 -40 -12 -29 -17 10 73 75 59 60 37 54 66 54 55 57 48 40 34 24 8 12 43 82 56
-50 -7 55 394 518 60 123 76 78 45 157 131 93 68 53 37 25 5 39 70 52 -13 -25 -54 -61 -27 -12 -1 45 58 55 49 68 93 80 81 91 89 57 81 54 44 59 73 112 150 140
-36 50 244 430 161 105 13 131 84 -25 63 97 92 58 55 52 43 54 50 61 37 -14 -43 -55 -52 -30 -17 7 -10 -25 -20 -12 54 77 57 62 94 89 101 96 91 89 73 79 102 116 147
-7 119 321 49 76 105 47 85 -1 1 37 67 71 73 76 119 100 126 19 -3 37 25 -21 -57 -37 -23 -39 -28 -19 -13 -28 -31 -28 -24 65 74 76 90 97 106 83 69 78 88 104 91 122
58 101 341 365 73 107 110 105 53 26 37 59 62 87 89 90 171 153 37 20 -12 -5 -5 -29 -32 -46 -57 -28 7 15 -11 -26 -24 -25 -38 -19 32 -2 76 82 93 114 100 87 98 71 112
92 99 249 301 34 88 135 95 71 32 51 58 70 87 70 76 197 173 124 87 17 3 39 -3 -10 -43 -37 10 33 15 -1 1 -22 -16 -18 -9 -9 -21 -14 -24 -35 97 101 104 98 114 101
61 201 298 86 63 81 117 127 83 47 80 70 96 141 118 109 130 95 134 158 133 62 -8 -10 -16 4 -18 10 -1 2 17 6 32 67 6 15 6 21 56 49 29 65 136 137 137 98 59

GFSGBSN_con_3kmhel_072.txt.gz
Helicity
13 -5 18 36 75 103 117 149 208 135 98 72 94 78 135 112 113 80 69 57 29 38 41 38 46 45 72 125 89 71 65 38 39 56 58 44 57 58 131 119 131 110 198 106 121 121 99
47 57 10 17 22 38 111 137 226 261 138 84 104 89 122 129 115 87 70 44 29 35 27 28 49 64 99 115 81 71 71 30 30 62 51 54 76 19 20 131 120 69 107 179 123 98 77
5 -44 89 69 -0 18 38 92 176 299 182 157 134 133 145 136 113 72 57 42 28 24 16 17 44 78 104 101 86 94 52 56 43 55 59 38 47 106 69 160 164 143 95 141 177 106 123
77 65 5 47 101 45 -7 34 126 264 240 150 131 150 131 134 108 73 56 34 20 11 6 30 57 108 95 76 50 18 53 63 43 30 -18 -31 -35 105 144 239 157 146 194 104 114 125 162
107 116 104 85 59 83 61 -8 11 252 326 171 196 143 119 114 92 62 56 14 -5 10 20 27 77 114 48 19 56 33 64 76 50 21 18 8 -2 32 49 247 199 199 146 114 148 135 106
-43 146 117 116 90 66 113 69 14 122 250 171 149 140 145 103 86 79 43 -0 23 45 42 45 33 76 38 57 69 58 56 13 11 33 40 12 68 138 79 155 236 170 146 100 162 127 108
-64 -58 128 102 113 53 31 138 108 99 167 182 195 133 152 103 99 68 78 82 113 82 60 79 93 75 52 45 53 26 16 3 12 23 39 17 70 107 71 155 152 228 146 101 -13 229 156
8 -46 -85 -6 118 108 80 75 102 108 173 209 131 123 136 133 83 74 89 111 72 55 55 39 45 59 56 54 44 37 -1 14 5 21 -5 44 46 116 69 114 182 185 105 116 -84 -10 150
69 46 -15 -46 -54 149 86 -10 97 56 184 197 91 117 118 150 75 97 94 55 36 27 61 17 52 57 69 90 36 20 8 21 54 38 29 37 53 45 -42 62 149 143 65 103 46 33 73
86 63 8 25 61 29 173 26 67 119 200 144 98 91 98 125 122 123 92 27 24 18 81 50 42 40 85 67 63 5 27 23 54 25 43 51 9 -107 -40 114 135 99 86 72 57 176 77
93 94 110 87 51 37 156 83 22 183 215 158 78 59 92 64 161 142 69 56 18 11 166 48 36 18 72 70 34 68 43 15 47 52 64 60 33 -41 42 48 153 113 47 44 -107 57 181
95 104 104 62 55 90 129 176 111 209 238 162 57 80 88 78 121 70 44 30 -0 77 101 20 21 17 15 77 66 119 180 119 84 114 67 84 126 68 92 155 147 134 124 156 209 36 140
74 85 77 37 25 51 36 235 94 108 128 143 71 19 83 113 94 46 31 34 126 168 7 26 16 -18 6 35 60 96 109 76 97 113 148 174 156 131 99 152 137 107 208 149 97 -27 92
62 59 29 39 -13 2 -34 173 375 118 189 125 37 81 97 103 96 80 41 90 203 27 15 7 13 -30 -22 32 28 94 67 55 184 151 179 168 56 76 100 112 69 124 98 105 140 107 75
45 31 3 -2 21 -6 2 73 278 205 282 107 127 173 111 84 88 61 64 120 129 11 21 50 -15 -46 -21 41 22 58 81 81 160 105 202 148 117 311 207 177 108 139 186 146 105 160 124
20 13 -3 12 16 4 7 197 158 134 238 131 199 135 39 131 93 66 58 78 38 -24 6 7 5 -27 -38 37 27 59 81 78 80 56 96 100 147 185 209 167 168 72 111 145 173 139 128
1 10 2 4 9 -34 46 132 282 109 193 121 235 102 91 175 125 24 41 55 19 -28 -2 -5 -13 -48 -34 2 25 62 76 49 48 98 90 87 71 95 80 95 112 152 137 152 132 121 86
13 33 8 -5 -13 -33 15 92 130 83 70 90 119 -22 116 179 28 10 15 18 -32 -26 -21 -12 -41 -44 -12 -18 3 36 21 12 40 57 73 58 42 76 47 86 96 91 97 105 116 129 131
-4 19 4 -7 -35 -12 61 198 19 154 16 158 172 128 81 87 32 12 -9 -33 -39 -34 -20 -14 -19 -19 2 -16 -21 43 42 68 51 17 29 46 38 59 54 32 31 14 28 90 98 141 138
3 9 -0 -13 -19 9 152 375 -77 158 45 151 54 84 87 25 -5 -10 8 -16 -1 -50 -45 -21 -31 -44 -42 -47 62 -7 24 47 41 45 44 26 35 13 20 19 40 31 -11 42 57 57 58
9 13 8 -18 18 5 225 210 -76 252 -44 97 113 29 26 37 9 -49 -25 -17 9 -26 -56 -52 -33 -16 -14 -54 -54 -64 59 52 67 54 48 30 6 10 39 37 4 -3 -15 27 47 57 63
11 8 2 5 -69 128 215 155 318 165 -41 44 58 50 72 -8 -38 -12 3 -14 12 -14 -39 -44 -46 -18 -22 -31 -40 -55 78 53 50 60 50 31 31 62 5 -6 35 35 35 43 14 58 62
17 6 6 -34 42 129 142 88 335 4 40 88 155 115 40 6 23 36 17 17 15 -37 -33 -52 -37 -42 -25 -2 1 76 63 60 62 76 78 67 54 45 29 65 45 28 8 32 50 61 31
10 9 -7 32 101 181 79 171 80 -10 30 71 133 73 52 55 50 25 8 18 15 -18 -33 -15 -42 -43 -14 -3 15 27 49 81 90 89 78 104 92 76 65 74 87 30 51 62 103 115 99
15 45 23 34 294 23 98 114 96 73 142 94 108 74 48 87 97 98 44 31 31 6 -19 -36 -37 -23 3 -4 -30 -45 -27 -36 -28 52 74 65 68 1 -19 -9 77 68 69 81 94 114 154
28 58 27 49 475 41 83 106 80 28 86 100 114 114 47 108 125 140 96 56 25 5 12 -22 -18 -2 -23 -18 -47 -53 -38 -42 -39 -31 -13 12 18 -1 11 3 -12 72 73 89 93 109 123
55 78 85 74 245 85 102 78 61 12 15 53 105 107 49 64 182 168 95 62 55 15 -14 -12 -26 -46 -39 -53 -48 -38 -34 -34 -14 -13 -14 -6 -16 -5 -1 4 -5 75 83 110 142 68 86
49 66 25 118 19 66 92 91 26 61 7 38 76 102 36 53 203 168 136 103 86 36 2 6 -9 -18 -50 -20 -21 -21 -39 -28 -36 -26 -21 3 8 4 20 44 12 86 111 103 86 107 92
39 39 39 129 3 50 88 107 81 46 46 47 52 134 109 67 120 158 148 148 129 105 50 87 -39 22 -27 -25 -23 -40 -29 -31 -1 16 -17 15 15 23 32 36 39 45 65 87 88 91 78

GFSGBSN_con_3kmhel_075.txt.gz
Helicity
109 65 97 118 90 88 64 -10 17 108 173 257 218 155 104 104 90 94 93 88 79 54 62 33 28 82 86 104 92 85 69 66 87 78 85 84 80 130 133 163 118 124 141 111 126 135 93
109 89 68 95 119 94 112 48 25 0 63 274 251 204 156 130 87 136 104 80 68 52 66 13 41 116 102 116 64 75 79 69 63 64 71 86 90 121 118 65 167 60 72 147 123 111 80
157 120 100 104 81 166 136 107 59 39 -11 203 267 257 138 186 104 93 119 98 81 66 42 20 28 103 95 91 77 133 97 59 56 75 86 90 83 108 72 18 36 119 77 109 113 130 139
43 115 153 159 134 144 179 150 79 44 9 1 271 224 199 141 98 108 72 104 85 52 22 13 47 104 84 47 31 33 56 62 37 46 62 77 73 47 24 50 52 105 112 93 60 86 122
31 41 35 106 168 168 168 156 146 69 42 37 268 159 173 139 104 100 83 101 57 38 36 56 87 101 66 16 74 41 58 77 59 64 41 53 30 -8 2 -37 90 157 164 99 61 76 119
105 86 80 46 109 170 190 188 128 146 102 61 226 195 191 90 88 110 93 80 82 78 62 67 55 77 60 74 68 66 54 65 30 20 24 10 -9 21 11 20 171 185 120 103 89 120 77
139 128 110 92 50 30 67 131 128 91 152 129 172 193 234 86 118 102 119 129 198 114 54 58 68 73 70 41 56 45 46 69 -30 20 22 -5 41 36 25 68 159 111 149 71 159 129 104
145 137 122 89 62 37 14 3 61 94 130 127 148 248 171 81 103 111 153 107 142 81 43 22 16 32 21 45 60 45 22 22 11 31 14 6 24 44 -8 171 201 115 140 88 155 190 76
121 108 110 86 87 47 25 15 -1 56 60 90 165 247 142 129 73 113 117 55 118 63 71 16 43 44 54 81 49 23 12 27 39 65 72 38 33 -15 8 68 135 208 133 120 103 69 385
169 167 125 93 94 78 58 58 66 29 93 93 125 162 115 128 92 90 101 26 75 46 104 37 27 7 38 46 67 36 11 20 68 54 10 27 30 41 25 95 71 167 133 53 -8 71 -19
110 93 88 73 62 72 73 82 70 103 133 189 128 176 132 128 95 84 114 87 90 33 150 36 15 14 37 50 71 68 57 21 43 44 22 26 35 66 37 81 74 97 61 97 131 75 5
61 47 50 59 40 45 64 32 63 127 111 435 208 143 147 75 65 78 128 86 92 105 106 37 13 -17 20 58 99 146 84 83 58 56 84 54 34 55 47 62 65 112 123 174 99 14 141
37 38 39 41 44 25 44 -3 12 79 35 233 135 83 96 95 -33 98 100 132 197 154 46 36 27 -23 -13 38 57 82 74 64 39 48 -13 -18 4 -4 3 50 136 75 104 93 -51 -80 35
21 41 28 37 11 22 -6 -7 -27 68 65 223 153 67 66 21 39 117 126 157 186 46 49 14 6 -36 -18 13 55 48 11 81 48 91 28 50 46 92 110 166 102 69 56 105 49 18 82
20 34 25 30 20 4 9 24 -28 114 256 40 139 169 139 35 25 113 78 113 85 31 41 37 -15 -50 -30 4 30 35 120 117 84 100 21 31 43 130 135 80 127 97 70 32 33 86 43
9 24 23 11 13 -1 22 17 -6 219 41 160 201 175 105 61 48 129 -44 76 25 -12 24 4 -23 -43 -26 5 13 59 81 58 102 115 93 174 -33 129 128 123 93 114 68 95 95 56 21
19 18 16 23 6 -1 5 29 23 118 78 65 274 146 107 32 118 -16 -54 69 12 -27 -8 1 -34 -59 6 4 52 58 62 38 50 104 60 69 29 83 75 95 82 122 119 98 68 71 40
24 33 18 25 16 -8 13 37 54 95 196 152 221 57 105 108 18 -61 -12 44 1 -31 -26 -15 -39 -34 5 21 43 49 12 25 57 81 58 61 22 20 28 79 79 69 61 63 58 67 69
23 12 14 29 24 6 1 40 57 186 -1 96 141 146 95 98 -40 -68 23 2 -23 -50 -39 -20 -37 -5 23 2 14 36 1 20 39 38 36 36 38 37 34 19 32 40 73 64 81 93 95
25 3 9 20 7 2 9 33 92 314 16 134 156 124 86 -19 -26 -42 18 4 -28 -55 -46 -37 -34 -39 -40 -41 2 -6 -29 27 34 30 50 7 50 -1 -16 -4 23 21 36 51 58 60 55
29 15 18 16 14 15 6 83 119 277 -6 147 102 75 59 -13 -27 -47 9 -14 -35 -64 -58 -34 -61 -65 -44 -66 -30 -35 -1 24 38 45 32 6 15 19 34 36 33 23 33 41 46 27 42
16 16 19 20 35 16 62 178 124 145 16 64 73 21 57 10 -80 -17 28 -9 -39 -53 -55 -53 -47 -46 -56 -56 -46 -61 -58 17 32 40 22 30 26 19 46 50 41 25 26 34 51 62 86
25 17 16 -5 44 77 204 142 101 3 77 77 80 59 1 -10 27 29 -22 4 -29 -60 -29 -36 -14 -34 -72 -47 -52 -5 37 84 31 0 -19 6 25 6 22 59 57 32 29 18 47 74 87
13 12 10 80 109 166 77 6 -174 150 214 140 137 30 26 15 54 2 -16 0 -11 -22 -50 -6 -11 -24 1 -3 -10 16 53 -9 14 61 94 -32 -34 -7 13 -2 29 10 34 37 66 95 91
12 29 93 65 139 240 31 -25 116 465 214 255 46 64 29 64 44 35 29 47 49 25 11 -19 -7 11 -4 -12 -56 -60 -38 -52 -33 -36 -33 -47 -42 -44 -17 -6 -18 -25 13 57 85 87 117
53 100 12 43 218 19 119 187 223 271 219 127 52 85 50 105 94 92 67 95 64 20 22 -1 36 49 5 -16 -50 -55 -38 -54 -61 -54 -36 -55 -66 -40 -20 -8 9 -33 31 93 81 -18 109
63 86 11 86 3 29 55 77 182 138 140 77 153 125 65 35 179 118 83 64 61 51 12 -2 -5 -8 17 -47 -65 -58 -55 -61 -53 -49 -50 -47 -37 -20 -8 9 -8 -19 1 15 24 -17 35
66 58 15 39 17 -29 41 70 100 133 132 75 103 144 60 43 175 135 130 118 108 56 -20 -7 -16 -1 -39 -41 -54 -60 -75 -55 -60 -46 -43 -16 -4 4 24 33 2 8 41 56 33 26 14
72 60 24 87 30 -6 66 35 28 49 -4 23 82 126 114 69 109 150 142 148 118 95 62 110 -27 2 -29 -44 -38 -39 -46 -57 -45 6 -18 21 10 6 29 20 14 16 39 59 64 71 86

GFSGBSN_con_3kmhel_078.txt.gz
Helicity
139 148 125 113 113 91 142 169 121 76 79 58 76 62 292 282 142 150 85 122 85 74 63 88 82 98 118 104 103 68 92 95 127 109 120 134 145 142 179 159 154 160 97 152 63 165 122
115 131 154 153 139 136 115 111 200 148 86 92 57 32 210 301 185 123 113 111 99 96 43 84 90 158 129 109 58 55 53 106 88 87 92 99 95 94 94 106 110 144 50 50 111 158 60
90 83 84 150 175 176 177 174 138 189 186 157 73 106 141 250 167 142 120 108 81 101 26 58 107 133 112 81 75 84 99 72 70 90 107 96 99 112 135 74 79 89 95 105 86 141 86
96 88 93 55 123 166 175 174 210 216 194 207 180 155 147 226 191 160 95 79 94 116 -10 35 112 141 83 70 34 25 78 47 47 65 79 70 75 92 130 115 103 80 87 54 42 97 82
111 107 114 124 89 81 117 163 194 180 157 96 138 168 125 203 175 162 97 82 76 83 -7 82 162 120 53 28 74 53 108 97 83 84 63 63 83 67 72 99 37 129 41 45 26 67 106
93 79 94 129 129 122 93 99 89 116 149 157 193 132 72 211 170 181 122 86 38 151 63 124 119 84 64 79 59 60 73 76 79 53 29 18 16 53 6 77 56 13 45 27 71 93 12
104 117 118 113 109 87 86 66 55 58 57 61 143 183 54 243 250 129 139 161 87 158 90 107 83 72 62 51 41 59 54 89 63 37 -4 -6 -11 30 6 -29 16 -9 44 44 128 121 33
122 121 130 128 111 96 76 61 48 55 34 35 77 263 80 240 198 139 118 186 73 88 87 41 53 43 36 55 45 83 73 74 27 31 18 7 33 22 25 -6 1 123 95 84 167 110 129
114 114 116 118 110 108 109 88 75 45 44 60 43 224 74 253 184 177 92 78 100 27 138 106 52 39 36 75 38 56 81 36 35 39 57 33 29 27 60 13 71 103 105 81 79 138 107
83 66 77 65 71 78 103 104 104 89 61 71 90 139 75 218 150 87 82 48 60 19 165 113 33 3 32 13 34 64 47 38 6 29 28 43 -1 17 42 11 128 104 110 88 47 137 62
55 51 39 38 47 52 62 74 85 86 101 98 39 177 125 242 130 154 153 96 57 26 122 52 32 3 16 30 43 37 24 30 66 7 40 10 10 45 117 61 138 132 104 96 62 100 76
37 12 15 19 21 31 26 45 58 62 47 83 46 314 109 235 194 170 78 89 50 90 109 70 35 -1 8 35 39 41 47 56 45 110 88 86 75 51 36 48 67 55 160 178 146 90 7
10 10 15 23 32 37 18 21 19 21 14 -6 -14 163 116 184 125 115 57 48 -24 89 71 52 34 -10 -3 19 28 42 28 48 59 46 26 15 53 39 63 56 91 65 93 67 56 52 85
20 1 13 18 30 31 11 24 -0 15 -1 6 136 153 101 129 184 96 21 -15 -128 98 81 35 36 -37 -16 6 23 31 45 65 69 60 35 37 52 54 29 65 50 93 52 32 57 32 60
7 -0 24 20 22 12 4 -2 8 8 -23 374 27 122 128 80 116 22 -5 -164 7 86 49 48 3 -52 6 22 16 43 74 82 59 15 39 57 60 76 80 91 30 38 15 76 66 52 15
-9 2 10 15 14 1 1 4 4 6 42 21 185 191 124 89 26 26 -28 -57 59 23 19 18 -38 -0 -16 17 47 44 44 51 39 57 64 94 99 136 93 85 80 42 -0 27 -3 33 33
-8 9 16 16 26 17 15 1 33 3 64 263 126 67 50 81 34 5 -102 -12 24 -12 -22 -9 -13 -1 34 40 49 37 47 32 45 94 83 59 23 59 41 61 86 82 71 64 10 7 -11
7 27 20 22 27 25 24 14 58 -25 153 201 72 54 81 51 -0 -40 -61 3 9 -21 4 10 9 9 37 40 19 12 14 37 63 68 44 62 40 40 52 63 69 27 33 11 28 30 36
41 18 28 41 27 25 24 26 27 56 158 61 50 107 123 66 -26 -44 22 -1 26 -17 -5 -2 -30 24 35 25 27 31 32 55 60 16 28 42 21 30 41 31 26 37 55 42 34 39 58
35 27 32 28 16 15 24 11 47 92 133 64 75 74 64 38 15 -14 -15 -10 10 -4 -20 -25 -19 24 20 8 43 12 14 38 56 59 61 12 37 29 54 30 22 9 17 34 26 32 26
45 30 29 25 15 11 24 34 75 109 139 73 48 80 51 -33 -36 -8 -30 12 -3 -9 -19 -21 -55 -30 -29 -37 -7 -13 20 18 38 58 24 8 56 45 38 27 27 27 13 8 21 15 14
36 22 8 -6 32 76 90 154 144 133 58 35 37 33 44 40 -30 -56 -29 -4 -23 -8 -12 -34 -88 -36 -38 -72 -21 -35 -36 -2 20 34 18 27 52 32 32 33 24 -0 11 2 17 35 52
25 -2 2 120 136 259 178 171 144 67 19 34 62 21 31 1 -15 -55 4 15 -29 -30 5 -6 -26 -59 -78 -57 -51 -22 7 16 -2 8 8 1 20 18 42 19 11 14 7 -9 -22 4 49
30 32 153 154 327 140 40 74 -2 -12 26 48 82 18 16 21 -10 -23 10 16 -11 1 -24 15 4 -30 -15 -17 -19 -18 -2 -37 19 35 -7 -22 -16 -19 -15 -6 -10 -11 7 6 -27 -32 72
64 82 150 216 177 7 25 44 -4 64 135 152 85 15 10 13 -40 15 15 -2 21 31 29 7 25 37 17 -16 -73 -84 -50 -56 -28 -26 -33 -35 -38 -24 -20 -27 -24 -43 -49 -56 -58 -59 44
79 37 100 167 57 95 208 237 240 185 246 124 58 22 8 17 -0 60 38 48 4 -6 28 10 45 51 1 -29 -84 -95 -63 -66 -65 -75 -49 -55 -65 -37 -35 -33 -0 -27 -56 -62 -53 -72 -5
73 24 19 96 8 95 135 187 270 242 90 60 65 34 2 -6 90 81 46 53 45 -2 -15 3 13 -7 8 -41 -52 -57 -36 -61 -30 -37 -47 -38 -35 6 5 20 -14 -25 -14 13 -0 -4 23
70 44 -9 83 11 19 90 128 148 141 86 47 19 53 -6 5 150 87 82 69 74 34 -37 -21 -19 -8 -51 -54 -56 -53 -59 -37 -35 -28 -12 9 27 24 28 36 22 13 19 28 33 54 57
52 55 -1 50 -5 21 34 49 101 112 112 71 35 59 64 24 81 102 108 118 98 82 13 1 -40 -9 -41 -49 -41 -42 -34 -38 -21 1 -0 10 35 36 54 48 40 37 43 61 73 85 83

GFSGBSN_con_3kmhel_081.txt.gz
Helicity
105 112 111 93 104 120 125 142 142 128 213 159 117 113 96 143 126 203 196 83 100 78 95 125 102 131 81 126 65 71 69 97 133 107 118 141 162 171 174 150 105 132 40 69 53 67 89
73 94 104 114 82 123 132 126 144 188 205 226 211 180 131 138 101 190 177 140 93 97 117 137 109 157 80 90 72 57 61 114 122 121 131 126 118 122 136 127 134 124 81 51 52 86 99
42 67 86 119 121 117 94 117 101 100 97 98 115 135 169 225 143 159 172 132 145 77 123 115 118 126 64 52 81 78 62 67 93 101 117 92 92 107 127 84 99 62 71 83 58 32 79
76 68 78 69 75 91 89 99 93 100 89 88 120 155 244 214 100 210 176 156 54 102 93 85 110 119 56 55 67 49 63 56 64 72 105 84 79 72 86 85 72 44 75 76 24 29 88
78 92 84 82 65 73 70 79 88 73 78 95 102 120 202 188 134 206 181 129 93 87 59 84 169 112 34 26 76 49 82 76 67 70 78 65 55 61 49 43 29 66 97 55 48 41 73
76 79 89 91 78 61 69 98 93 84 75 77 99 107 117 273 175 243 193 145 107 109 114 133 140 82 26 72 86 68 71 75 75 90 80 36 15 23 29 60 77 90 50 30 30 34 44
70 75 69 61 53 63 61 68 80 74 73 70 78 99 104 70 208 206 220 104 118 160 85 81 88 43 53 59 70 58 61 90 81 77 30 35 15 3 88 39 11 -39 17 5 42 84 51
68 75 42 27 36 49 38 45 55 48 45 61 73 95 129 32 162 193 194 128 99 95 34 17 65 25 6 50 52 52 58 67 61 45 58 76 132 100 56 88 63 64 43 11 9 79 37
62 51 36 17 25 21 23 23 23 38 56 47 67 80 123 170 173 122 110 77 58 -9 48 49 70 34 22 65 36 64 86 56 66 76 122 131 62 -18 77 45 22 72 71 -35 88 84 108
53 52 27 32 32 14 23 27 26 29 43 58 56 61 97 121 149 89 80 18 40 38 167 64 23 13 44 33 41 66 61 51 54 45 48 42 6 53 17 30 71 75 23 99 20 86 125
43 21 20 24 9 15 24 31 25 30 57 54 48 71 119 119 96 93 77 134 45 20 27 32 13 18 18 17 39 48 63 77 114 43 34 51 33 28 18 219 156 90 14 30 50 83 32
27 11 1 9 16 21 27 24 21 -1 24 37 62 44 35 94 199 143 142 113 47 129 32 10 14 23 25 5 12 40 71 72 57 93 45 86 62 74 129 142 98 102 62 99 51 51 51
40 6 -18 -0 23 11 34 16 12 15 -3 23 80 41 -15 103 119 126 137 182 122 12 13 -7 -2 9 8 -6 11 38 56 96 52 36 58 53 52 63 45 93 66 59 40 76 50 72 66
32 -0 -21 6 -0 8 -9 1 15 3 -5 -9 37 174 9 59 81 141 172 136 5 -67 -29 -23 31 -12 8 4 22 61 59 57 54 26 47 52 84 62 25 64 47 51 5 69 76 76 69
36 15 -6 3 18 9 -4 18 19 7 2 -31 -21 39 10 106 122 154 248 41 -31 -77 -37 12 18 7 18 13 29 29 53 51 6 25 39 58 59 62 65 41 46 22 48 52 45 73 52
40 11 22 39 25 16 20 19 31 12 -19 67 149 81 113 146 131 160 120 -81 -64 -49 -29 -14 18 30 14 31 36 18 29 40 29 61 74 144 82 85 69 43 120 111 101 55 34 57 43
18 20 39 43 34 20 30 28 18 11 -45 153 170 125 85 107 158 123 13 -13 -76 -57 -28 37 37 25 32 34 34 19 61 82 92 85 75 82 34 59 62 35 28 28 19 33 -19 -34 -39
17 52 46 27 19 35 31 29 37 -18 54 81 132 83 55 70 77 23 -33 -81 -27 -20 81 50 35 51 37 39 42 48 30 51 73 82 58 71 41 22 52 68 56 52 63 50 -20 -6 -5
35 50 44 19 33 24 26 25 21 33 68 106 145 101 80 132 35 -27 -3 49 63 54 55 58 40 55 40 27 35 24 22 64 57 26 45 43 40 31 34 34 19 15 34 20 21 27 9
31 25 8 14 37 67 82 104 82 54 63 66 97 25 50 42 37 -20 21 41 26 64 45 40 48 56 45 36 39 47 47 49 62 38 26 15 35 62 83 14 7 11 18 16 5 4 1
45 30 53 136 174 199 124 -7 37 39 73 69 72 91 33 -28 10 28 33 37 21 19 34 61 34 36 20 17 40 42 42 44 43 43 22 21 59 48 33 31 15 -5 -8 -4 -5 -15 10
94 115 189 241 253 181 109 66 32 17 23 63 54 62 49 7 1 10 26 28 3 30 20 14 -23 30 10 -13 6 16 10 8 25 37 30 40 66 55 46 48 36 13 8 3 4 4 11
97 184 273 255 130 65 52 30 -16 -8 50 60 35 54 45 37 31 16 19 79 7 5 28 15 -16 -15 -28 -15 -24 -39 -30 -21 -6 18 33 20 25 31 55 34 23 13 12 1 -9 11 16
111 186 199 157 98 36 24 19 2 -81 3 21 53 51 24 28 9 35 56 46 13 19 -6 32 14 -21 -4 -30 -25 -18 -31 -34 -11 16 -1 -13 -14 -8 6 -9 -29 -4 -16 -19 -27 -40 -37
96 86 52 114 65 -6 23 69 43 -115 -21 18 39 7 14 22 15 5 43 31 30 32 34 26 45 53 13 -20 -60 -54 -41 -45 -16 -6 6 -32 -48 -27 -14 -23 -18 -32 -33 -43 -55 -61 -60
78 47 52 56 23 71 50 96 51 52 -7 10 13 14 -11 44 23 24 47 35 13 9 31 28 79 58 1 -34 -63 -70 -59 -61 -68 -61 -37 -34 -76 -46 -6 -11 11 -19 -30 -40 -32 -44 29
23 64 31 25 -19 31 121 101 -16 33 8 -18 20 11 -27 1 29 34 20 13 16 -14 -27 7 14 1 9 -56 -69 -66 -32 -65 3 6 -32 -47 -32 16 38 41 18 -12 -31 -19 21 21 41
44 69 56 39 3 11 28 83 60 -2 -14 -9 -5 22 -25 -4 45 24 37 18 3 -18 -51 -41 -44 -28 -50 -61 -52 -43 -47 -44 -43 -27 -2 25 41 41 43 35 33 40 35 49 46 50 61
12 56 84 55 -13 -18 -35 -49 -13 -20 -16 -0 -11 13 19 -8 22 33 44 51 42 15 -70 -47 -64 -53 -62 -73 -55 -52 -35 -40 -10 26 10 31 49 43 51 43 55 52 49 70 70 77 79

GFSGBSN_con_3kmhel_084.txt.gz
Helicity
19 20 29 46 85 109 116 109 92 96 112 122 115 138 133 139 129 98 102 165 112 85 67 123 71 118 125 125 118 81 42 80 102 111 137 135 116 129 133 137 113 94 70 81 72 84 80
34 36 48 55 63 58 81 89 118 97 120 121 118 111 102 103 108 124 154 166 143 100 107 102 126 137 119 76 106 58 36 85 95 100 121 113 129 138 145 131 145 188 124 91 74 45 33
45 50 62 69 73 68 66 80 103 84 101 113 109 100 79 113 241 87 163 183 131 103 92 87 117 108 86 65 89 57 39 45 65 88 103 83 84 89 131 113 96 105 146 117 75 46 9
46 59 60 67 65 59 44 62 65 67 67 97 93 89 92 104 147 250 159 197 133 104 109 128 116 82 73 69 71 23 20 44 78 83 63 51 52 51 55 62 60 64 78 137 49 40 39
36 42 42 32 16 11 30 23 39 57 61 89 96 94 97 88 48 122 209 181 135 119 106 91 81 95 89 50 61 22 19 40 75 68 60 48 39 15 35 42 19 56 30 32 38 40 40
31 49 36 20 22 13 24 19 5 18 37 52 91 78 98 103 132 167 210 178 116 118 55 82 126 95 61 74 69 55 37 32 64 83 59 55 49 19 6 32 -2 9 25 10 10 27 10
15 41 16 32 34 31 19 33 19 12 12 22 45 57 85 138 23 245 244 162 108 112 68 90 64 112 91 73 55 49 65 68 65 64 39 55 51 63 38 50 44 20 -3 2 -6 33 47
32 35 20 3 28 39 33 26 23 28 13 15 19 47 70 50 139 154 163 119 107 72 88 44 24 29 70 55 32 55 60 52 50 35 58 71 71 85 59 87 72 67 91 42 73 67 43
20 18 25 4 16 29 19 17 29 20 20 30 10 45 62 31 110 193 108 66 70 62 37 48 24 53 45 45 21 54 65 50 52 51 63 77 61 33 57 97 90 98 115 51 53 47 33
66 39 14 -6 2 15 15 17 22 17 26 39 40 36 58 97 79 79 44 22 42 4 64 62 93 52 41 31 17 57 55 33 56 32 14 37 39 69 22 64 95 87 133 60 71 46 42
64 24 27 12 -17 14 18 18 26 1 3 -4 19 21 43 58 40 60 45 10 98 88 -12 50 63 36 26 13 34 46 39 35 27 49 -20 33 24 27 117 126 92 75 159 121 15 57 34
56 33 24 5 10 -5 14 -2 42 -9 9 2 -4 36 46 32 53 30 41 102 97 34 14 65 49 16 2 9 5 31 57 83 51 26 51 74 75 98 105 124 64 35 41 42 36 16 86
71 40 32 26 7 6 16 -2 9 27 -1 -14 -1 22 38 -9 30 58 133 118 50 40 50 42 13 -25 -17 26 26 54 85 81 50 52 58 55 61 98 98 81 53 72 77 21 43 81 44
72 17 32 41 36 18 18 25 31 27 2 -29 6 -11 -7 14 42 49 144 119 38 32 -15 -15 -15 -34 25 24 32 48 58 27 31 34 53 46 81 24 28 30 40 2 72 68 59 85 69
23 9 20 36 32 26 19 24 26 19 -18 -46 -22 -5 -65 73 31 91 172 88 20 -18 -51 -17 -28 -65 5 28 37 37 20 22 25 79 71 65 66 49 39 16 17 17 70 115 45 58 63
28 -7 -5 72 53 36 30 23 20 -12 -16 168 59 120 95 34 57 100 103 45 57 16 -53 -39 -84 35 35 31 37 24 10 26 32 30 17 56 60 57 27 34 75 102 110 94 13 21 40
70 19 39 41 25 26 14 19 6 1 93 95 185 228 86 80 125 69 78 65 59 -21 62 84 51 35 30 42 43 37 55 91 93 149 117 91 74 55 84 67 127 150 111 77 32 -32 -14
109 74 65 58 52 46 40 49 69 126 101 124 193 173 111 144 67 25 27 136 58 -15 88 63 51 50 47 52 34 55 55 55 64 68 54 45 44 43 56 86 106 163 124 94 32 -9 -4
104 122 158 184 211 144 121 98 98 132 64 152 170 123 85 115 -7 25 66 61 108 91 84 61 72 54 52 57 21 35 57 52 55 53 47 43 28 51 47 43 21 53 68 68 45 13 29
94 145 263 279 153 121 82 79 33 68 50 115 15 -15 11 58 57 59 69 124 79 90 84 59 65 56 62 30 34 35 43 37 46 42 30 43 44 52 72 47 43 59 31 51 55 36 48
111 158 222 225 107 57 41 93 22 -7 4 43 23 22 6 30 37 13 67 98 53 85 98 84 75 64 59 54 64 49 45 43 41 42 27 42 68 53 29 35 33 24 31 10 -19 36 -20
109 121 226 172 35 -19 4 6 3 23 51 54 38 33 9 35 32 42 68 62 54 81 99 87 46 61 45 28 46 42 46 43 66 56 56 42 76 52 54 25 31 31 22 8 9 7 16
98 139 216 143 0 -13 26 -33 -40 6 3 18 51 56 23 5 27 44 28 70 43 84 69 69 54 18 -10 25 22 17 1 -3 13 33 29 27 38 39 47 14 17 7 15 17 8 -6 -1
86 127 164 121 -3 10 -3 -2 -5 -15 -2 15 19 35 8 15 24 37 48 36 46 52 27 47 37 22 14 -8 -4 -17 -24 -32 -23 -1 11 17 6 2 -10 -11 -8 -14 -12 -11 -16 -19 -9
36 49 92 19 -44 -4 24 14 44 33 4 19 32 31 18 41 38 21 18 14 29 13 35 20 27 26 -1 5 -3 -8 -13 -11 -9 -13 -17 -17 -26 -18 -20 -29 -18 -25 -22 -23 -18 -23 -13
10 8 -99 -53 -3 -20 15 -14 -8 -5 31 22 34 29 -1 37 33 27 33 37 12 21 21 13 46 27 5 -20 -23 -27 -16 -23 -17 -41 -43 -35 -40 -3 -7 20 47 8 4 -9 1 22 33
9 19 28 -39 -57 -19 3 -38 -18 -24 13 20 9 19 9 23 35 22 10 13 14 0 -27 -5 -3 -15 1 -42 -48 -36 -24 -45 10 9 -16 -14 -4 11 21 31 21 41 38 32 37 52 55
20 41 33 20 16 -35 -45 -7 -29 -46 20 8 -6 10 5 -6 9 19 6 1 -1 5 -13 -36 -30 -44 -67 -66 -52 -47 -36 -48 -28 -19 1 15 17 22 23 25 24 30 35 38 53 61 63
20 30 65 25 31 14 -25 -42 -32 28 13 6 -34 6 25 -21 0 22 12 -3 -9 -20 -34 -37 -48 -55 -70 -71 -49 -47 -26 -28 -21 1 -1 15 15 17 26 31 38 48 33 51 61 66 71

GFSGBSN_con_3kmhel_087.txt.gz
Helicity
5 -6 26 38 46 49 40 49 69 88 70 107 145 133 131 128 139 115 132 119 149 113 100 68 74 54 -17 35 103 146 96 99 92 67 73 78 75 91 96 128 133 135 116 114 134 145 178
17 9 10 5 -14 2 6 11 25 42 66 64 108 107 112 115 127 109 146 74 150 131 146 71 68 42 -1 43 160 98 86 71 57 53 64 66 104 114 106 110 132 148 221 203 172 146 147
30 24 31 38 45 22 4 38 33 17 32 66 84 131 106 105 124 100 178 46 172 158 112 91 54 21 38 114 106 98 80 57 61 39 52 75 84 81 138 97 100 116 140 110 85 64 58
14 9 18 53 35 25 22 21 13 6 3 38 56 80 119 105 119 69 145 109 188 170 98 77 30 38 60 109 60 51 57 73 49 39 56 70 65 54 61 77 70 49 58 96 63 38 38
2 -10 -37 10 37 37 35 29 22 19 2 4 23 55 94 114 116 114 104 217 194 130 101 56 47 30 87 105 62 32 56 57 36 32 35 40 55 18 37 -7 -22 12 0 6 22 25 72
21 37 -7 -7 1 7 31 35 42 36 19 4 15 38 62 113 166 78 281 215 167 70 72 58 43 55 75 75 63 84 55 35 48 34 35 44 53 30 22 44 -23 -27 0 -22 -14 26 20
87 34 14 35 27 3 28 40 36 37 18 14 5 37 39 71 287 90 254 185 27 85 106 92 56 104 73 90 59 58 58 60 39 37 54 76 68 35 24 29 42 5 -17 -37 -15 0 49
77 20 11 37 19 26 22 28 44 38 18 16 5 21 37 60 87 65 173 132 95 65 75 18 98 65 105 45 54 56 39 52 43 40 87 90 45 34 58 53 77 91 39 -15 8 23 43
35 -20 59 62 40 25 28 -5 -12 27 -8 9 23 31 22 68 27 139 89 75 84 138 67 27 10 67 66 27 29 53 28 34 34 28 60 76 44 12 36 55 77 114 140 87 69 16 17
80 -85 38 52 20 12 -2 -8 4 -15 4 13 -4 6 32 86 48 68 71 70 40 77 68 57 53 60 37 13 27 45 27 25 22 5 17 76 15 23 38 90 111 262 214 195 64 10 15
-64 -36 32 28 24 3 -3 -1 -15 -9 28 26 6 8 26 32 57 47 17 7 11 55 91 38 66 40 23 18 38 24 19 17 8 19 23 10 19 30 80 70 81 192 91 9 43 66 20
-44 56 0 14 35 23 29 28 18 18 25 10 22 35 12 6 17 28 15 17 36 61 102 48 35 12 18 -4 25 37 15 48 42 22 62 109 75 64 86 109 97 41 14 -8 -9 -18 51
56 11 -21 10 21 34 31 34 22 17 11 5 30 139 13 3 9 14 24 69 78 100 12 35 10 -8 -13 5 13 12 37 76 51 72 52 36 57 56 66 102 85 84 61 65 85 32 22
70 4 4 28 39 25 40 29 9 3 -19 -14 51 23 12 32 -11 15 50 80 102 0 51 70 -8 -24 -17 -6 19 55 38 30 44 35 54 47 18 14 1 30 58 87 39 30 60 60 24
52 46 39 47 42 12 1 -2 -2 -15 15 61 -16 -1 2 15 19 46 76 52 -6 60 70 38 16 -23 28 34 39 64 37 9 1 38 47 45 34 6 -42 5 7 50 33 101 111 71 96
61 85 129 119 73 47 37 51 53 102 -1 38 64 14 0 9 16 53 38 12 95 102 64 48 26 47 21 46 56 53 18 4 48 43 37 38 44 0 7 8 8 92 109 116 158 81 46
72 83 123 167 170 156 101 83 62 51 75 109 127 123 46 16 86 83 80 103 106 90 71 86 26 28 22 35 64 38 36 90 89 72 65 59 87 137 105 140 177 167 99 157 168 66 59
39 80 118 98 54 39 48 39 23 -7 16 87 156 85 71 72 50 57 99 95 147 89 77 44 41 38 46 56 57 44 49 57 33 26 57 40 55 62 73 78 117 116 152 113 45 -10 41
11 39 31 16 -22 -12 32 34 -5 -37 -33 29 114 42 71 61 -15 38 190 74 90 134 71 84 53 45 52 56 66 38 52 58 48 45 29 25 47 83 59 52 25 90 102 117 79 89 34
-5 6 -9 -60 -50 -2 38 35 2 -12 48 142 52 19 -6 64 46 125 99 138 109 98 57 57 48 39 56 30 34 37 40 50 56 57 42 47 35 46 41 37 45 56 61 62 44 31 14
-19 -20 -34 -116 -78 -4 18 2 -86 -28 -11 44 -2 31 29 11 51 43 59 116 47 73 90 80 53 42 66 48 29 36 46 62 50 38 37 54 68 37 23 26 15 21 24 24 34 28 8
-14 -19 -81 -124 -124 -47 -26 -58 -29 -47 -42 19 45 27 41 30 40 40 68 63 46 63 95 43 31 48 53 26 38 37 54 72 82 71 49 43 62 46 66 11 24 35 11 11 6 14 -1
-28 -45 -90 -123 -91 -57 -30 -16 11 11 -20 39 40 19 32 35 30 42 33 49 39 84 41 37 53 24 14 23 29 20 12 13 26 56 54 46 40 34 40 14 24 21 3 6 2 -5 14
-7 -10 -55 -76 -85 -56 -26 -26 2 35 31 42 48 37 38 32 16 9 22 9 8 27 17 29 38 28 11 28 43 11 -11 -14 -13 -9 14 27 4 -9 -13 -10 5 -22 -18 -14 -4 -15 -13
-1 -10 56 11 -30 -71 -61 -74 -18 -16 9 52 49 35 36 45 11 1 -7 -19 -24 -25 -11 -4 4 13 23 35 2 -1 -13 -10 -25 -19 -14 -12 -22 -14 3 -4 -17 -13 -22 -19 -12 -17 -11
28 5 3 54 56 32 -38 -72 4 18 19 51 36 40 40 50 -3 2 -13 6 -22 -23 -22 -17 0 22 26 4 -13 -21 -15 -28 -16 -24 -34 -26 -16 -3 -1 30 43 -4 18 3 3 12 33
35 41 18 25 22 63 2 -49 58 67 88 30 45 28 61 9 3 44 -1 -40 -20 -19 -48 -40 -35 -24 -14 -22 -26 -25 -14 -24 26 24 -1 -5 -2 21 34 40 27 45 44 25 36 51 53
37 54 63 23 25 19 35 23 -27 47 79 38 8 19 38 -15 -9 3 8 11 -12 -23 -41 -69 -45 -52 -57 -34 -28 -29 0 -20 -12 -9 -3 4 11 25 26 33 23 35 39 44 52 49 54
39 43 60 73 35 22 10 26 41 17 54 26 14 11 33 -19 -30 -41 -44 -19 -8 -13 -14 -36 -37 -49 -50 -36 -38 -31 -4 -13 -12 12 -2 12 12 21 35 41 40 47 28 40 42 51 61

GFSGBSN_con_3kmhel_090.txt.gz
Helicity
13 -27 -51 -48 -44 -1 7 -0 23 24 35 63 88 90 137 113 109 119 145 106 120 154 131 101 62 26 21 17 57 138 96 72 44 43 76 106 95 95 116 126 132 130 98 88 116 156 170
2 -10 -4 -24 -36 8 30 35 35 15 11 18 48 73 101 108 106 122 136 136 93 84 133 85 40 71 36 17 185 97 52 41 40 47 73 80 115 124 116 103 128 142 172 145 166 208 218
19 8 11 6 -18 18 46 65 42 27 11 8 20 46 47 92 77 117 96 104 261 111 129 92 54 48 32 118 111 111 64 32 47 47 64 60 58 67 98 70 100 121 101 97 106 77 73
57 35 32 16 -5 42 51 31 29 38 31 22 7 28 59 98 113 119 115 90 101 196 136 96 51 47 72 155 99 78 59 59 62 66 82 100 51 54 75 52 34 25 31 73 37 21 51
56 96 53 19 18 19 27 26 37 47 48 39 23 23 58 88 146 210 79 71 212 189 139 75 86 45 45 56 85 56 48 59 58 57 51 42 51 62 92 75 36 39 -14 -28 -30 14 39
62 33 55 3 13 24 29 30 39 55 40 32 21 21 37 78 155 323 112 233 194 192 117 87 110 43 49 42 65 49 45 55 47 45 49 60 74 96 101 120 54 20 5 -38 -37 11 50
327 152 24 -6 -1 12 21 40 32 27 31 31 26 16 28 57 83 190 167 209 122 128 210 187 39 114 55 103 62 51 50 41 58 49 55 100 82 73 64 92 93 68 9 -31 -36 -4 34
226 157 -130 -30 28 24 24 18 15 -20 28 16 19 31 16 53 32 119 76 162 153 49 58 106 79 141 90 43 66 52 28 28 50 57 48 63 38 58 44 46 55 90 89 114 52 39 36
45 -100 -44 26 27 29 24 17 -0 21 -5 -1 24 37 44 48 87 15 85 94 167 128 107 67 109 92 67 45 32 47 10 35 39 21 29 21 23 -19 6 69 130 176 263 265 190 4 -24
60 48 21 17 26 27 26 24 10 10 -14 27 37 7 29 92 38 54 90 50 73 118 80 62 29 48 52 28 24 44 2 31 26 20 19 19 9 20 72 116 133 188 113 202 169 53 -21
34 34 12 7 12 17 22 15 21 17 17 13 11 -4 11 35 35 59 -0 70 90 82 92 18 54 38 47 32 33 15 4 5 3 39 41 -2 2 46 120 84 37 135 86 60 52 36 33
18 27 21 18 17 16 7 9 6 14 12 10 -1 33 10 38 29 25 13 23 32 96 117 40 61 40 19 -6 17 24 19 42 36 21 25 121 35 25 96 97 110 65 47 36 63 74 107
32 29 30 46 38 22 15 7 -7 -13 -13 12 50 23 33 71 75 10 -9 104 81 150 13 41 22 -7 -7 -3 11 6 -10 -11 14 35 38 59 45 62 68 77 64 75 102 95 93 93 35
41 48 51 66 91 86 57 21 22 14 33 -13 -1 -5 26 39 63 23 49 99 89 44 73 45 37 17 33 -6 -4 4 2 17 27 8 48 51 12 -10 -17 -0 56 65 21 27 72 86 106
19 22 43 63 53 42 49 22 26 17 38 79 32 60 57 35 54 66 94 40 92 83 109 75 23 31 37 31 18 40 48 42 45 83 49 39 35 -12 -15 -27 1 61 69 98 62 101 95
-40 36 37 14 -8 18 -2 40 16 43 60 57 36 54 89 69 54 97 34 57 112 204 82 15 59 97 48 26 34 53 67 59 81 70 47 33 53 2 -0 47 152 166 176 92 191 103 100
-44 -21 16 -43 -81 -17 -15 -32 -13 6 22 49 85 131 117 89 65 69 138 139 204 128 107 119 56 53 27 27 53 47 48 87 63 59 57 88 54 52 59 107 129 155 185 229 126 175 122
-28 -63 -34 -25 -21 -26 -13 -60 -89 -22 39 34 93 61 101 43 92 188 135 90 125 135 104 68 80 48 59 60 51 53 56 56 32 24 57 98 101 158 108 86 93 129 172 110 74 130 100
2 -68 -72 -37 -16 -32 -49 -42 -37 -4 32 73 76 30 44 37 134 150 110 91 142 118 58 55 56 56 87 65 68 31 50 72 45 47 36 41 63 109 74 58 64 73 94 68 73 56 62
25 -43 -81 -32 -6 -22 -67 -57 -31 2 16 38 53 -3 30 90 148 154 111 133 105 97 58 47 62 89 105 68 56 53 57 58 51 48 37 37 31 22 27 40 33 33 49 37 20 -11 -26
28 -8 -49 -14 -8 -4 -40 -59 -55 -48 -13 43 45 23 41 54 144 70 89 122 27 57 79 75 74 41 54 52 45 46 57 82 88 57 53 59 52 36 42 31 51 39 2 -35 38 56 2
16 -0 -10 63 111 28 -41 -108 -108 -67 -13 57 60 37 64 44 74 34 79 3 -2 28 56 2 25 12 -0 16 27 23 58 55 66 73 48 56 76 59 63 30 30 23 12 15 20 65 20
16 18 17 52 75 45 -19 -23 -58 -24 4 11 39 18 6 14 35 -16 18 3 -16 29 -5 -1 60 15 -2 16 47 47 27 25 25 35 41 33 34 14 31 6 12 18 -1 7 11 -7 14
37 28 35 42 73 5 5 -39 -21 -21 -15 38 -27 16 -1 -7 -8 -24 -0 -28 -20 -4 1 -11 -1 5 6 53 66 58 23 10 -1 6 14 14 -1 -10 -3 -11 40 7 -6 5 6 -7 -10
17 42 39 45 66 57 -29 -48 -76 -34 -18 -23 -25 -26 -3 -33 -29 -14 -19 -29 -41 -24 -12 -9 -10 -0 21 26 21 20 8 7 -2 -17 -22 -20 -13 -7 21 25 28 18 8 9 4 16 4
35 21 46 33 27 43 29 -1 -12 -63 14 19 11 27 31 -38 -56 -17 -27 -16 -10 -37 -20 -16 5 13 11 10 4 1 21 -2 14 -2 -19 -15 -1 25 32 52 54 40 22 11 10 60 31
45 37 25 53 26 -0 -5 13 33 31 -16 11 40 11 -15 -68 -91 -54 -29 -19 -21 -5 -35 -30 -24 -14 -24 -12 -17 -12 5 -19 21 16 -9 -8 -1 28 33 47 26 22 29 10 49 42 24
47 51 41 33 51 20 -12 -22 6 31 37 22 14 6 -32 -71 -84 -74 -67 -52 -34 -27 -4 -42 -43 -40 -44 -26 -33 -22 6 -8 1 12 12 29 33 50 42 55 35 35 24 62 49 42 45
47 41 50 36 31 25 -3 -14 -14 30 57 15 30 20 5 26 -39 -89 -80 -66 -60 -52 -37 -27 -28 -54 -58 -30 -18 -23 7 4 8 42 20 41 62 68 67 63 51 43 54 56 52 54 67

GFSGBSN_con_3kmhel_093.txt.gz
Helicity
68 70 82 45 53 35 7 -8 -0 25 28 32 26 46 72 105 107 103 114 100 182 122 139 61 42 60 51 61 69 48 59 55 45 53 86 86 97 81 100 126 147 148 167 186 218 224 161
189 109 117 72 79 47 26 13 29 30 46 33 22 31 36 66 76 56 84 102 136 191 47 85 79 70 110 96 58 77 57 29 54 66 79 89 99 69 79 83 133 115 96 103 139 148 129
67 102 136 111 64 34 30 56 54 52 43 41 34 23 30 37 73 104 101 108 55 169 186 128 90 83 118 98 85 67 55 25 46 64 69 65 66 74 83 99 123 103 102 80 17 47 73
45 69 166 171 88 32 60 30 27 36 38 31 31 35 28 34 80 145 177 53 -6 74 80 90 44 131 148 135 69 68 56 69 77 86 92 72 62 47 79 82 120 96 111 79 23 37 56
64 103 99 55 32 -31 8 18 29 19 19 27 38 25 28 31 54 198 174 36 50 134 158 106 124 170 98 106 62 55 66 69 60 73 60 37 46 48 79 108 95 89 82 47 14 39 57
52 60 14 19 40 20 11 17 6 1 2 30 35 22 25 43 14 158 73 212 203 203 162 182 138 57 32 36 61 46 17 49 43 44 56 39 66 83 87 121 68 82 79 81 52 79 43
69 54 31 26 30 24 23 17 5 4 4 13 16 36 30 46 50 95 258 242 212 432 231 146 28 111 67 86 92 44 44 56 40 29 61 58 70 54 51 115 140 113 78 72 128 102 68
93 65 17 1 17 22 17 4 8 3 14 -7 19 23 25 43 61 37 174 174 124 81 175 389 125 136 70 27 63 65 48 44 32 37 45 43 25 37 69 33 73 82 93 183 280 116 81
89 55 54 15 13 28 20 8 8 24 14 -0 -6 22 37 54 71 -52 48 159 169 54 176 119 154 51 40 33 37 46 15 30 22 16 -2 15 7 -30 -3 -30 51 88 173 235 235 128 109
67 56 64 38 21 30 23 19 13 19 10 -5 -4 3 54 74 18 -33 58 65 138 128 55 55 60 46 49 35 61 33 -10 22 24 18 6 18 5 17 -27 1 -4 124 69 126 125 74 100
19 62 57 49 109 62 26 -0 4 9 -6 -5 12 -5 23 48 27 9 55 53 114 99 103 55 54 30 33 53 33 20 10 1 14 24 55 -12 9 -1 16 44 83 133 35 72 40 114 56
15 53 59 60 45 58 70 22 12 4 75 22 7 14 43 51 61 40 73 68 145 88 29 53 66 45 43 24 15 10 6 10 18 -1 7 103 21 1 28 22 87 118 98 156 87 124 133
37 52 65 77 -15 16 19 9 -0 28 77 58 67 62 78 88 62 43 70 96 114 92 60 38 51 16 2 -4 2 -7 -8 -26 -26 -14 44 21 -28 9 29 29 -17 14 89 94 119 103 131
49 88 83 59 -7 -42 -9 -0 8 -4 67 91 72 66 57 53 28 60 44 189 118 67 56 37 35 -10 -6 -26 -22 -14 -11 24 30 36 27 -5 11 1 -3 10 11 25 58 69 180 97 47
79 68 49 32 37 14 14 2 6 54 84 71 45 84 101 88 60 50 125 127 123 101 75 19 -10 -3 -11 -20 -19 54 73 63 36 70 32 28 32 29 -34 7 48 45 111 165 74 57 28
104 32 22 9 51 53 6 -17 7 18 49 61 89 109 148 151 69 50 123 169 157 198 86 82 105 77 44 67 60 82 79 59 57 35 -1 70 51 72 67 94 122 168 165 102 128 105 107
57 31 23 35 37 52 15 11 49 54 40 66 85 117 138 90 97 68 136 149 176 140 88 129 96 64 52 59 55 74 90 67 67 38 61 61 40 86 104 128 125 128 139 157 142 189 161
37 6 43 53 55 62 37 -2 27 42 34 11 51 54 109 187 74 120 123 132 135 135 112 65 61 54 60 66 69 69 70 45 54 38 59 99 98 111 110 92 94 105 194 136 99 98 67
21 15 51 54 81 91 36 5 17 16 -12 44 72 79 145 130 79 89 93 111 118 95 61 55 66 62 58 39 53 56 58 69 50 61 65 56 92 102 58 47 31 44 115 88 88 44 56
29 11 41 64 78 84 61 27 1 1 -13 23 22 -0 96 103 110 66 88 106 105 111 86 68 73 76 83 78 69 73 82 81 68 61 64 65 47 52 78 79 70 53 68 74 43 50 55
39 25 34 46 46 30 32 15 5 -9 24 22 -9 -20 73 43 74 91 88 71 44 48 80 42 47 30 42 51 73 70 81 77 75 67 70 78 74 60 72 67 59 34 38 48 78 53 31
52 44 49 63 48 5 -2 34 27 28 30 5 -52 -55 19 51 36 32 13 7 15 38 20 45 33 1 2 35 38 45 54 54 76 70 68 48 73 41 35 26 17 27 10 10 31 59 21
48 66 58 60 49 45 23 5 38 19 -3 -9 -4 -14 -13 3 1 -20 18 2 -4 14 15 8 43 24 -4 24 43 80 67 58 48 41 38 27 20 -3 12 -7 -2 22 -3 -0 8 16 25
41 53 62 49 40 24 28 43 26 5 -12 -12 -23 -32 -53 -21 -31 -19 -24 -18 -5 -15 -5 -0 -10 -0 19 31 33 17 13 20 23 12 10 -2 -5 -12 15 -12 70 32 -7 3 10 11 5
37 40 49 60 21 14 -5 2 57 50 15 7 -3 -49 -27 -37 -41 -46 -29 -24 -23 -23 -11 -6 -6 5 15 -1 -7 2 13 9 18 16 7 -9 8 11 25 41 35 25 21 20 30 43 11
41 34 41 36 33 -2 -13 -1 1 71 50 34 43 -0 -50 -36 -21 -32 -29 -44 -18 -17 -19 -9 1 4 -12 -9 -9 18 66 17 28 20 10 -12 -3 29 51 50 69 48 22 12 11 42 13
45 39 31 34 21 19 -16 -25 27 41 66 27 31 25 -1 -43 -60 -42 -16 -38 -44 -49 -35 -26 -20 -21 -33 -11 16 34 39 16 44 46 35 22 40 69 66 61 32 39 48 33 46 48 37
44 34 32 34 23 11 -0 -21 -31 34 53 16 -7 -5 20 -4 -22 -23 -42 -15 -16 -42 -37 -37 -43 -27 -34 18 42 53 67 43 36 40 43 52 46 62 56 56 33 46 39 55 45 48 54
42 32 33 40 37 21 3 -4 -21 -14 61 36 12 3 16 36 25 47 26 -21 -25 1 25 13 37 17 23 30 43 30 42 50 70 56 44 43 67 51 71 49 33 41 33 50 59 63 64

GFSGBSN_con_3kmhel_099.txt.gz
Helicity
38 48 38 38 61 32 45 48 64 61 36 48 53 38 45 43 34 24 47 43 65 61 123 135 64 102 70 130 115 43 35 43 71 92 108 114 145 121 133 118 112 96 90 99 90 64 69
58 57 39 64 37 17 13 10 14 12 -2 26 45 73 47 48 51 26 27 34 55 60 152 145 102 125 135 165 67 62 67 74 83 97 119 122 115 111 120 109 103 78 65 55 57 57 88
86 53 43 14 17 20 21 18 31 27 25 19 33 45 62 39 45 33 24 63 81 60 109 184 56 128 78 112 67 71 73 84 77 73 114 111 98 117 92 99 80 75 69 53 55 65 94
33 26 27 13 24 23 35 46 39 34 35 21 21 25 37 42 42 31 35 81 90 40 97 198 62 240 163 102 65 72 94 112 107 102 83 83 80 95 94 75 92 99 96 115 66 87 93
35 32 18 25 41 32 22 26 35 28 22 19 17 22 38 29 36 38 62 148 83 36 88 57 215 284 183 90 68 70 71 75 75 79 85 67 80 90 96 87 96 106 86 85 60 53 112
1 43 51 68 70 75 -23 9 19 20 23 7 9 -6 32 39 49 -9 210 72 75 87 154 161 126 89 113 106 98 87 69 71 77 82 81 87 94 92 92 89 67 51 66 53 92 21 111
6 53 65 66 72 140 -32 1 6 32 25 24 6 16 19 18 -4 -103 125 125 213 330 251 152 121 59 71 94 99 99 66 74 71 83 66 73 92 58 29 44 39 51 75 93 120 89 103
54 86 98 55 48 74 84 -8 -1 23 8 17 1 0 20 -10 -50 -27 172 224 246 334 324 189 142 109 143 95 95 114 53 66 61 63 36 76 56 19 37 42 43 51 56 63 48 -39 54
41 62 91 65 44 56 99 12 1 20 20 18 -7 6 6 -21 -55 -40 254 355 270 297 279 307 332 93 82 61 76 54 24 28 45 47 43 52 17 53 64 60 62 92 135 106 90 -42 -12
39 48 53 49 44 36 105 46 42 40 31 28 20 31 36 14 53 92 217 236 303 311 259 206 215 175 75 42 59 28 14 39 50 56 45 34 38 38 49 48 95 86 52 28 48 -165 63
20 32 51 83 80 79 103 81 68 57 28 37 36 52 49 -17 129 78 124 342 314 167 195 130 159 129 78 43 13 28 15 33 42 44 64 46 51 61 42 37 90 39 83 -70 -25 -26 23
21 36 74 62 75 80 62 96 87 51 16 1 7 43 51 61 94 43 73 68 217 146 128 77 100 59 34 47 45 31 36 30 15 45 38 48 35 20 33 -12 29 33 -53 -113 -55 -14 6
25 19 55 49 58 64 54 50 59 48 32 9 10 11 50 67 110 89 37 102 144 112 145 98 38 66 68 56 47 22 -9 -15 -20 -24 0 5 5 17 18 -19 -78 -65 -88 -78 -8 -6 -7
16 10 35 49 25 51 53 48 46 46 49 45 53 55 90 66 125 67 56 106 133 147 81 83 72 72 57 38 7 -34 -17 -41 -14 -26 -40 -7 51 8 -14 -21 -19 -58 -115 -51 67 99 89
28 7 5 39 60 44 37 33 52 75 81 65 67 68 95 148 103 34 66 75 103 94 56 32 46 19 22 -22 -28 -33 -48 -29 53 78 52 42 35 25 66 73 35 -15 10 30 60 97 119
34 23 4 28 68 81 83 113 116 135 122 78 59 84 145 161 86 49 107 103 114 85 -20 13 -54 -51 -64 -36 -3 44 57 60 53 54 52 38 25 27 49 44 54 56 45 34 56 70 76
35 17 14 26 37 56 87 76 77 98 112 46 46 56 165 160 180 125 119 103 68 45 50 66 58 33 57 64 59 54 71 76 68 65 67 51 36 59 31 39 34 26 42 43 75 74 89
43 22 22 27 46 46 39 33 55 75 113 108 87 74 187 142 62 141 116 92 92 82 111 70 57 47 59 53 60 74 90 74 82 53 63 58 46 53 48 47 27 65 69 64 51 56 75
56 39 18 29 52 57 38 41 55 56 29 100 81 122 135 61 55 119 106 85 88 46 42 46 45 40 38 50 73 70 60 52 68 43 48 42 36 37 28 33 30 19 24 26 51 31 30
82 59 44 23 38 51 55 40 47 51 24 18 36 24 74 49 86 72 55 56 32 61 52 36 22 25 32 34 31 61 50 43 66 67 64 60 46 51 60 67 46 30 24 -9 -3 21 18
63 77 64 28 14 35 55 62 47 41 47 31 28 52 50 35 61 37 39 36 34 22 36 15 33 33 63 54 44 52 51 46 51 38 43 34 29 53 63 68 41 56 39 -5 -11 -12 -14
68 57 51 45 9 6 29 41 62 44 24 11 43 37 21 39 50 19 7 2 -15 10 -7 16 18 32 23 35 36 39 36 27 26 22 25 21 17 15 28 29 53 53 50 12 6 -19 -28
75 60 50 37 27 5 4 18 21 48 -10 7 30 12 12 7 -1 10 21 0 -7 1 5 -18 -9 -13 -19 -5 13 25 23 18 22 3 11 24 18 11 61 41 45 65 59 81 45 29 11
76 59 49 44 32 20 0 -8 18 26 0 3 14 9 -4 15 -9 -9 -7 0 -4 -10 -2 -9 -24 -28 -24 -10 1 -15 1 23 35 39 55 56 49 64 80 10 55 43 40 48 45 35 39
103 63 56 44 46 34 17 -13 -24 34 20 11 -15 -19 -20 -9 -19 -18 -18 -26 -26 -19 -20 -19 -34 -33 -41 -70 -64 -43 -29 -18 2 33 85 87 77 51 46 52 44 21 49 46 33 -12 73
111 75 55 46 40 42 37 12 -16 -29 33 24 24 -5 -35 -30 -12 -32 -29 -30 -43 -60 -59 -41 -52 -54 -80 -71 -39 9 27 13 22 35 91 125 84 77 57 48 49 14 25 37 17 -4 17
104 100 62 41 36 36 37 36 12 -11 -27 23 23 22 26 14 -10 1 -7 -3 5 -18 -37 -62 -73 -62 -45 3 49 78 82 99 81 74 70 65 77 121 101 80 27 39 54 37 18 9 11
120 103 85 51 37 35 32 22 25 21 -1 10 4 33 48 29 19 52 29 56 52 51 89 73 25 14 30 31 37 54 73 87 96 96 103 111 93 73 91 89 29 58 85 61 34 25 15
127 104 97 68 42 43 51 42 17 13 18 38 55 -6 18 26 33 54 46 53 67 72 84 80 118 130 141 151 110 93 77 98 105 98 137 96 103 117 128 83 68 41 63 62 60 52 43

GFSGBSN_con_3kmhel_105.txt.gz
Helicity
41 27 36 72 84 90 82 25 11 5 16 25 33 38 42 55 51 109 54 46 76 78 80 186 60 101 113 348 185 143 100 75 95 101 107 90 119 105 114 102 99 105 88 74 72 74 73
40 46 67 86 97 130 145 -0 8 -2 11 21 1 17 29 18 17 55 24 23 53 43 113 130 -7 144 91 209 176 81 83 95 95 99 117 113 95 93 114 111 111 81 79 82 78 84 62
48 12 10 24 59 46 261 -21 -7 -8 14 7 -4 17 25 -21 22 57 31 23 41 49 127 74 124 253 211 117 105 71 76 101 83 73 105 111 76 103 87 101 87 77 105 91 87 86 41
7 -44 -14 33 89 203 56 -14 -28 8 3 11 4 10 19 -24 -12 35 21 12 28 82 131 159 175 253 157 147 156 115 78 104 101 92 72 84 85 88 100 66 96 92 80 116 72 55 39
16 -14 43 113 83 42 12 5 -13 -9 5 11 5 -5 14 6 25 33 47 24 18 116 102 63 161 256 156 158 206 133 86 61 72 88 106 77 75 79 81 91 96 121 83 66 56 48 46
10 -10 78 105 82 54 34 25 19 22 3 -0 4 -0 28 26 33 53 17 25 24 105 155 228 246 160 168 134 98 70 63 60 65 70 94 99 85 77 85 94 69 72 56 38 45 45 56
10 -11 106 89 77 79 60 61 37 11 -4 -9 31 38 11 3 58 58 174 97 209 275 227 132 206 84 120 64 48 52 43 55 65 82 83 92 93 83 63 62 51 42 35 43 104 71 48
11 5 42 65 85 67 82 55 27 10 7 17 55 35 13 49 76 56 100 169 128 259 250 133 200 144 105 101 78 63 44 42 71 79 77 94 77 47 50 40 45 44 63 51 64 30 29
25 -0 -1 56 61 68 84 65 49 33 23 36 37 60 72 51 61 150 132 177 228 245 248 254 169 161 174 103 98 83 60 41 44 71 83 64 47 42 43 42 51 46 63 55 45 24 24
37 25 1 10 57 64 61 73 73 60 45 61 28 14 43 67 108 135 124 193 107 91 329 168 158 109 98 81 117 87 73 39 54 53 60 54 48 43 43 42 62 42 36 20 23 24 41
33 38 24 20 34 46 63 83 92 76 61 52 119 41 -43 -22 67 111 93 45 143 132 224 128 134 115 50 47 36 66 50 48 44 44 65 41 43 45 38 20 50 32 37 44 32 49 50
24 24 31 23 18 36 50 66 72 81 80 65 49 69 32 106 127 80 43 29 59 170 155 126 129 102 80 74 51 32 37 31 26 52 57 40 38 32 23 22 42 25 30 35 50 23 1
35 24 17 43 51 54 52 53 68 70 77 77 63 15 28 68 112 59 12 39 107 131 132 90 86 87 64 63 52 34 22 36 52 58 72 80 60 14 29 -0 25 13 10 11 14 35 -10
62 44 32 28 57 63 68 63 69 69 66 35 45 48 51 35 53 49 11 138 97 99 70 83 66 57 25 -25 -19 -27 -24 -25 -16 -9 -11 13 16 -12 18 -4 13 -26 -44 -27 -8 -8 4
68 67 47 34 28 51 56 78 91 90 40 3 23 87 103 99 44 12 58 23 124 123 65 -26 27 -29 -45 -34 -16 -36 -43 -42 -22 -8 -43 -49 -46 17 23 1 -18 -19 -40 -54 -14 -10 30
48 54 57 44 32 20 23 38 72 82 53 54 91 140 181 112 60 35 120 70 68 62 46 75 60 68 63 58 60 65 61 50 46 20 12 27 35 20 11 -7 -5 10 -40 -23 -11 -20 10
45 39 40 42 38 28 22 14 32 36 45 91 66 106 152 136 123 71 118 72 59 61 70 79 71 56 60 79 72 61 46 43 28 15 12 11 11 40 2 35 37 -18 -29 -45 -3 72 40
61 43 14 25 32 33 21 21 13 12 37 54 73 57 102 55 41 97 91 69 77 88 90 81 81 79 76 66 58 49 50 50 27 25 30 42 41 41 12 -7 7 -28 -40 -23 -46 -8 90
61 61 42 -3 3 19 32 26 18 12 -14 59 42 63 98 44 47 55 54 55 66 57 54 46 40 35 43 46 33 47 39 25 58 59 54 58 53 40 8 7 15 -11 -36 41 64 89 19
71 51 52 32 6 2 8 36 37 14 25 50 42 43 56 50 32 32 39 54 43 46 38 33 33 17 20 12 24 25 32 33 61 58 57 52 64 98 114 72 45 43 48 119 113 -16 78
76 66 43 40 24 3 7 10 61 47 12 41 26 37 40 45 38 35 37 40 49 39 27 15 16 -0 20 18 20 31 34 35 38 43 52 67 87 116 113 127 151 159 113 149 194 102 43
68 68 60 41 32 11 7 25 30 85 7 14 36 41 22 22 18 29 34 51 50 46 46 34 25 22 22 28 36 33 31 38 44 50 83 104 104 86 108 70 89 134 107 99 164 135 134
81 62 54 51 35 25 11 11 20 68 15 25 10 2 16 29 19 15 30 34 36 27 25 24 28 24 33 48 62 68 90 93 133 162 160 176 126 68 118 39 53 -0 28 40 70 147 141
79 80 58 44 38 27 19 14 8 3 43 40 39 20 -3 3 14 21 4 3 4 7 -0 2 12 16 13 -4 -14 17 49 56 105 108 173 196 178 169 145 -12 -2 46 101 105 55 34 89
48 80 69 55 39 23 18 14 21 21 21 55 52 49 1 -29 -20 -17 6 4 -21 -21 -7 -6 -2 1 -29 -20 9 23 78 96 90 97 97 162 198 185 136 120 88 42 44 -26 11 2 74
35 61 70 60 56 38 17 19 20 43 35 44 43 50 41 -18 -29 -43 -36 -20 -21 -17 -32 -3 6 7 34 13 4 63 78 59 79 121 181 182 138 195 191 150 96 101 72 59 67 22 37
34 32 61 65 69 53 28 16 21 29 57 59 44 52 75 54 -12 3 -33 -48 -21 -40 -55 -48 -14 -6 40 6 47 76 95 114 114 117 123 127 139 195 168 165 103 102 67 47 104 60 9
49 36 52 51 61 73 47 17 17 29 41 61 63 64 78 110 81 58 28 31 14 9 16 -9 -34 2 35 65 86 83 118 104 121 125 142 171 210 210 242 209 42 103 111 49 45 59 29
51 47 58 57 51 67 63 27 16 28 38 52 60 69 95 115 113 106 75 33 47 62 74 69 97 101 84 115 110 120 161 192 206 199 156 184 158 212 262 266 134 94 132 104 147 172 169

GFSGBSN_con_3kmhel_108.txt.gz
Helicity
6 15 11 24 49 82 247 127 18 33 35 36 32 38 37 51 49 12 58 58 33 80 105 73 13 76 100 281 244 187 126 115 114 102 111 95 104 106 109 103 97 104 82 72 76 79 73
26 22 47 68 181 116 100 2 5 11 20 14 21 36 25 46 31 76 87 49 35 67 76 21 13 130 177 252 177 191 128 115 124 99 106 94 83 78 114 109 98 81 63 65 71 61 44
23 48 61 70 63 55 31 -8 15 18 13 9 19 32 27 5 14 64 52 31 33 65 36 -47 70 184 235 300 180 138 116 120 108 83 111 111 72 87 69 78 70 66 74 62 54 58 49
37 54 37 51 55 38 34 20 23 25 24 27 22 22 21 -9 96 82 53 16 38 30 71 73 140 184 150 321 158 90 85 91 88 98 96 90 83 101 100 64 69 81 65 84 83 76 58
65 24 66 44 62 61 48 45 27 6 -4 5 12 11 19 39 66 69 35 14 33 33 29 222 246 140 72 113 99 79 76 80 79 78 89 73 80 100 79 75 83 94 94 87 66 82 49
37 19 32 49 60 64 63 40 19 10 6 10 20 29 16 46 82 52 22 33 35 95 105 225 201 136 103 92 87 83 64 60 75 70 87 100 102 99 98 93 103 85 79 64 51 58 33
35 17 12 35 61 68 61 54 41 24 14 10 10 16 48 67 86 114 24 91 149 268 314 165 80 89 94 88 100 99 93 90 87 85 98 112 113 134 105 114 97 75 60 53 38 36 7
37 12 5 18 49 58 56 55 56 43 15 20 5 33 34 65 43 58 104 161 93 301 310 205 159 166 93 87 67 115 82 89 101 104 95 98 113 76 74 73 67 57 53 39 24 44 19
41 34 24 8 22 32 40 58 49 40 22 7 26 32 26 36 62 114 139 207 140 344 360 372 240 212 124 77 80 96 71 66 85 97 117 111 80 48 58 53 52 38 29 39 31 31 -27
38 36 37 43 46 44 50 37 60 51 49 15 -22 10 39 111 75 116 157 261 43 178 289 279 147 175 140 79 64 59 53 46 53 77 74 77 55 45 46 45 25 34 32 35 19 -2 55
20 32 49 72 70 72 76 62 44 60 84 75 69 13 -11 70 24 75 181 172 98 123 320 149 144 121 93 86 74 65 51 53 54 47 38 52 42 39 40 40 20 67 39 -1 -19 5 38
32 32 45 36 68 83 82 82 72 55 50 69 66 39 126 24 28 86 71 118 74 182 200 109 119 113 91 75 58 56 45 34 30 38 52 50 40 39 50 40 23 14 2 -5 33 49 34
46 29 37 50 56 68 81 67 41 25 29 24 52 81 79 59 -1 -9 85 143 95 180 107 78 92 95 78 68 56 50 41 40 36 27 53 65 65 45 16 32 15 7 -4 22 24 29 43
49 46 34 34 42 50 64 69 45 13 -12 33 67 63 46 19 3 18 116 193 82 128 86 83 82 62 59 66 53 51 26 42 30 55 57 71 64 28 19 4 15 16 5 22 12 28 -3
59 49 40 34 32 42 55 59 51 12 15 29 51 67 62 33 29 64 132 131 111 94 75 78 88 75 33 17 12 5 20 3 3 3 -5 -10 -37 1 2 8 2 -12 -4 -6 3 9 -1
56 50 44 32 25 33 43 52 38 7 -20 20 62 115 146 56 82 95 103 65 78 77 67 93 76 86 65 68 56 44 32 42 32 23 22 23 49 8 -9 -16 12 8 -3 -13 -22 -20 -28
66 53 34 27 17 22 41 41 36 25 34 57 62 98 98 93 136 72 60 46 58 73 72 79 67 59 49 52 50 48 52 49 36 28 19 18 15 17 12 44 36 -12 -17 -45 -26 -34 -27
70 52 48 26 15 9 16 45 26 18 71 73 62 52 69 64 51 59 49 53 68 87 79 64 60 48 53 57 56 51 47 39 23 22 34 18 21 27 24 30 20 18 -24 -38 -46 -30 -23
81 66 46 36 29 21 17 26 43 9 31 62 55 59 69 59 67 49 38 40 48 62 54 53 41 42 39 50 47 47 39 17 42 47 43 37 22 21 28 50 44 84 98 10 60 64 95
61 55 54 41 32 33 22 36 47 32 26 41 61 43 39 43 25 30 41 48 45 33 36 30 26 26 30 31 31 36 37 32 56 65 82 76 69 80 96 75 111 138 107 126 167 119 58
68 46 37 43 30 20 26 30 55 73 13 34 25 42 31 29 18 20 30 31 34 43 28 32 24 26 25 29 27 27 28 32 54 71 89 84 110 150 115 92 90 126 101 113 208 179 170
67 53 37 22 22 23 13 23 37 81 15 16 28 40 31 37 34 31 17 12 8 6 13 10 8 2 8 10 11 17 33 41 52 109 131 117 130 97 87 88 77 120 92 64 98 104 139
58 66 46 27 19 8 18 13 23 53 16 36 22 11 15 20 35 36 33 31 20 16 13 2 -3 -5 3 4 -15 -2 20 39 95 147 181 193 149 111 160 62 73 37 32 65 93 106 114
36 67 64 39 24 11 -0 13 32 40 45 37 41 17 7 18 16 19 30 28 27 27 20 16 25 28 32 5 14 32 71 93 135 156 199 173 123 137 137 8 18 87 63 69 58 41 80
27 35 63 55 35 23 8 -4 20 48 45 44 37 42 47 10 -2 8 15 4 6 7 8 10 22 28 30 11 -5 -5 11 17 22 70 94 135 123 124 100 47 49 55 100 43 4 53 48
36 33 35 55 54 35 34 14 -3 31 51 46 50 39 38 57 47 7 13 1 2 -4 -13 -10 7 63 27 6 21 72 60 66 90 116 129 145 120 193 184 193 96 112 87 35 52 44 40
36 34 28 42 56 53 46 31 18 18 43 41 52 54 50 48 61 96 34 8 35 24 16 8 25 32 52 69 111 132 138 139 139 159 151 158 189 268 243 305 166 114 100 61 9 68 43
35 33 31 36 43 53 51 43 29 28 36 34 46 52 65 73 70 100 99 116 65 43 41 68 40 71 83 105 111 131 170 162 161 157 198 233 261 322 317 344 263 174 175 176 116 13 53
52 43 42 35 39 50 54 49 39 30 45 33 51 51 60 80 92 109 98 98 97 91 74 102 103 128 99 112 98 132 178 220 201 193 165 204 238 288 291 265 213 182 136 141 105 62 36

GFSGBSN_con_3kmhel_111.txt.gz
Helicity
48 58 50 54 70 56 -15 -24 -30 -1 19 18 32 53 59 37 51 15 12 66 71 85 145 52 32 46 192 298 229 168 154 114 122 133 89 73 64 83 87 82 74 90 74 70 72 74 79
43 46 32 32 44 40 46 -10 -4 9 20 24 41 9 -1 34 57 10 3 36 68 73 102 71 29 35 123 274 253 192 164 128 144 129 120 106 90 87 95 88 109 93 86 80 84 85 81
48 38 21 24 38 37 25 11 0 4 -7 -2 -15 -4 16 37 60 97 70 59 69 57 37 51 94 78 190 199 258 150 141 147 154 144 121 136 115 115 80 96 84 86 89 64 58 70 86
60 32 20 25 32 36 31 19 6 -7 4 14 16 29 19 -3 50 121 101 65 64 64 22 131 119 253 205 296 366 142 131 127 123 109 126 128 107 115 128 93 75 77 70 61 79 60 65
75 61 29 30 28 16 15 6 -4 -19 -17 -14 -13 -2 10 42 52 72 29 47 61 53 68 176 202 213 188 340 220 170 165 132 123 117 112 99 110 121 97 91 86 57 79 80 56 70 74
46 61 64 35 25 21 16 13 2 -3 -1 -1 -25 18 38 54 54 45 51 44 38 82 217 150 225 76 220 354 212 157 124 122 122 108 112 110 105 110 99 100 113 85 84 83 87 57 67
39 44 49 64 42 37 25 24 13 13 7 14 25 52 50 38 21 -23 30 93 152 303 298 124 53 73 39 190 145 111 104 110 80 94 100 94 103 103 109 126 121 116 100 87 83 101 56
46 47 41 52 63 56 49 34 10 -5 15 10 13 28 55 -8 80 54 84 144 143 196 226 221 120 80 117 156 101 86 108 118 98 93 80 99 102 93 93 100 103 108 103 86 66 42 39
44 59 58 57 62 67 63 49 22 20 14 6 28 27 32 50 11 104 63 133 143 220 173 259 165 134 135 99 97 97 96 91 86 74 79 78 92 66 77 86 96 79 83 85 56 42 -8
28 36 32 42 48 67 78 103 66 42 32 45 53 56 63 68 91 106 190 263 131 125 180 218 112 117 101 93 85 75 58 69 69 74 93 86 61 74 76 82 62 62 53 37 28 42 52
42 38 40 39 41 37 45 45 67 67 58 54 42 6 42 94 75 223 240 148 125 85 192 181 143 101 69 26 44 54 62 45 43 46 39 53 57 58 59 48 33 67 34 31 30 21 34
53 42 37 38 45 41 27 30 43 59 39 41 12 -46 14 -24 14 26 91 108 75 128 159 110 161 148 48 60 47 45 36 17 12 46 53 46 33 31 54 32 9 24 17 10 4 36 43
67 44 43 40 49 55 41 26 43 42 36 24 9 -16 -12 38 67 117 131 73 89 183 116 65 91 96 66 58 30 16 26 45 42 55 68 47 43 41 23 23 20 10 21 41 53 53 49
61 51 34 35 38 43 47 28 11 36 49 30 18 18 25 60 88 129 151 159 57 123 97 93 114 70 78 86 57 54 47 46 38 41 32 36 40 39 37 35 39 33 27 40 24 28 36
66 47 37 22 26 30 30 22 -10 -21 28 70 61 66 87 66 100 114 135 93 84 115 83 78 106 105 90 57 40 29 30 19 14 13 27 34 41 18 3 16 10 27 17 4 0 -29 -29
66 58 33 24 16 20 12 8 0 -19 5 61 124 118 102 114 110 157 72 67 70 55 48 64 54 58 50 53 64 62 48 25 33 21 22 5 -10 7 -9 -6 -4 -2 19 -34 -44 -29 -29
70 61 49 26 26 19 18 3 -6 14 22 47 81 96 64 97 102 43 57 15 30 42 53 70 59 59 44 51 41 40 32 28 28 22 18 17 4 10 9 37 34 42 -19 -23 0 4 -35
72 58 51 41 28 31 26 23 10 -1 31 64 62 47 46 57 61 60 55 45 39 55 65 55 45 21 30 36 32 33 32 27 30 24 25 14 15 23 31 81 72 38 29 57 1 65 102
71 63 56 43 38 36 41 38 34 17 3 34 44 49 69 57 52 38 45 40 40 48 51 46 37 36 29 37 39 34 33 25 35 22 6 1 25 27 23 14 33 65 55 64 76 95 88
54 54 48 44 38 39 33 62 63 39 25 45 47 36 42 41 34 32 41 32 30 22 21 22 12 18 20 26 21 14 16 0 8 11 -1 5 26 40 62 26 36 102 85 99 111 139 93
52 42 40 35 28 24 30 30 76 72 14 26 21 28 22 28 22 22 20 20 31 33 19 14 13 19 11 23 24 26 14 16 31 57 59 52 66 51 65 51 50 84 90 77 151 184 112
41 47 28 31 23 5 4 9 38 97 23 37 28 21 26 15 22 28 18 12 9 2 8 9 12 4 10 19 14 21 6 26 37 81 103 128 124 64 57 61 31 86 71 59 76 81 107
25 41 44 26 26 20 -3 -9 9 78 32 34 42 29 15 14 16 18 12 26 33 25 22 15 16 18 28 21 13 11 22 31 64 119 149 175 123 74 148 10 7 33 33 -17 59 72 76
22 19 45 37 27 30 24 3 2 34 40 20 27 33 52 22 16 8 0 5 11 15 3 8 19 18 6 1 -7 17 42 68 97 132 126 162 144 172 220 54 36 57 114 84 22 17 47
26 24 22 37 29 37 32 30 12 19 36 35 30 20 14 58 44 12 3 0 -14 -12 -1 7 16 13 11 -11 9 30 55 59 72 104 84 105 136 202 253 252 180 71 65 78 54 -15 27
37 30 21 20 37 31 42 37 39 23 26 22 39 32 23 13 49 64 58 16 -1 0 -8 -7 14 44 42 49 67 111 114 109 109 124 106 118 108 264 262 313 242 257 192 149 80 116 108
45 23 14 10 26 33 27 45 40 43 32 15 34 42 30 14 33 65 86 103 98 38 2 31 51 60 84 72 96 103 103 113 107 140 181 211 240 326 280 312 290 120 213 182 196 229 220
55 43 25 14 15 30 36 35 43 40 52 23 41 38 46 30 52 61 68 105 132 134 104 103 61 72 92 102 97 92 105 104 107 122 179 206 179 276 248 309 169 260 304 284 227 185 144
74 55 46 33 23 18 40 42 42 39 36 29 34 48 66 70 72 110 83 58 67 72 129 194 167 155 132 92 87 101 115 141 112 142 143 162 167 218 257 215 190 235 230 200 189 101 107

GFSGBSN_con_3kmhel_114.txt.gz
Helicity
65 55 42 32 20 16 15 8 -1 2 7 14 21 25 30 22 14 4 41 56 95 122 128 2 74 177 306 290 246 169 169 124 114 156 137 131 98 113 96 87 83 89 75 78 73 60 59
66 56 54 42 22 15 5 -6 -16 5 5 13 9 23 37 33 8 25 46 73 87 107 20 -15 25 52 223 354 322 163 173 144 147 138 164 185 134 130 117 96 123 92 77 72 77 69 49
60 56 60 42 35 23 9 -4 -4 -8 17 18 33 41 42 34 39 27 48 70 80 84 -21 -17 -30 73 239 223 350 230 115 151 196 156 137 173 164 147 83 99 81 71 59 41 43 64 80
43 64 65 48 32 33 23 26 11 -4 -15 -15 1 -16 -29 6 14 40 71 87 72 24 13 34 18 152 69 362 394 257 114 117 113 135 136 170 140 115 129 79 72 71 64 61 80 63 85
37 48 45 53 31 15 16 21 18 9 -0 -16 -7 -3 32 19 35 63 69 59 93 44 123 94 98 87 33 369 220 204 149 145 111 106 110 113 120 108 97 113 112 82 104 58 62 59 83
51 39 45 44 53 17 3 -2 3 1 3 3 11 17 48 62 29 53 57 35 114 249 102 74 82 123 112 155 224 154 136 139 132 117 128 136 128 130 138 152 162 158 113 114 72 40 43
71 58 56 61 67 51 12 -7 3 7 -10 -6 12 16 15 17 31 55 121 133 232 212 143 76 105 130 165 205 223 151 152 162 133 161 159 150 165 167 156 158 130 141 131 118 118 98 65
55 60 36 41 76 63 57 14 5 -5 3 12 10 14 74 35 53 71 115 141 143 131 209 214 224 379 359 297 153 167 206 159 151 138 118 139 141 128 114 118 124 127 109 117 80 94 63
64 56 59 41 47 63 44 41 -9 -15 -19 18 48 37 31 22 35 109 113 118 156 229 198 247 212 203 311 169 127 148 158 178 159 109 126 115 111 91 109 106 123 86 110 115 80 57 31
51 57 50 42 35 38 56 39 33 22 1 -0 44 61 70 83 101 80 173 209 201 144 188 207 226 227 193 144 134 89 94 92 110 119 106 99 65 85 83 106 91 81 77 63 64 70 48
37 48 48 55 37 19 16 26 38 23 -8 -30 -12 26 59 155 110 152 135 129 93 62 188 105 153 102 112 76 69 76 76 77 71 60 54 66 56 64 80 55 52 74 44 35 53 38 54
38 35 37 41 54 31 11 7 14 24 2 -29 -80 -59 81 103 95 63 85 90 41 64 66 58 88 86 50 39 56 58 46 34 33 53 58 50 44 38 54 34 14 24 25 15 3 34 58
40 34 33 33 36 46 28 13 7 -3 13 34 -2 -36 27 51 60 74 73 45 48 58 89 67 69 35 25 38 45 52 39 34 22 50 47 25 37 39 20 24 34 30 58 38 58 64 70
52 33 24 29 30 30 31 33 23 9 26 30 51 54 66 78 61 79 74 75 7 72 58 -3 51 -0 -13 -42 -16 -10 -13 6 -0 -2 22 32 32 32 47 35 48 46 34 57 47 74 44
66 54 33 20 18 26 33 29 36 37 52 70 64 100 106 103 71 63 99 38 24 40 24 -44 64 -18 34 31 40 40 18 1 13 35 23 37 22 28 14 15 19 32 22 46 46 36 26
62 61 50 37 26 19 20 26 28 34 88 125 137 142 154 89 107 115 69 55 11 8 29 66 35 34 26 34 60 59 48 39 1 19 32 7 -6 28 14 4 4 -1 46 6 -28 -20 6
58 55 55 46 37 35 29 24 32 39 29 70 90 123 101 93 79 60 53 24 28 19 27 42 56 52 47 58 46 46 44 43 36 28 29 19 7 9 6 19 31 16 -6 -48 -17 -27 3
58 52 45 46 43 40 43 45 32 27 31 57 63 61 63 55 44 43 54 40 47 60 59 47 48 26 29 39 36 29 20 6 8 7 20 -2 -2 4 18 28 17 45 9 66 22 3 69
48 47 46 43 49 44 38 48 67 33 7 37 57 65 67 54 55 58 65 29 32 36 43 38 30 28 16 23 32 22 12 7 23 11 -9 -2 9 -3 -9 17 14 22 34 60 33 33 104
33 33 35 33 46 52 46 47 69 55 7 32 49 33 46 37 60 38 49 42 35 24 18 20 5 14 21 38 18 23 32 19 31 24 16 18 52 75 102 61 -1 65 72 83 113 181 210
29 24 21 21 20 31 45 36 54 74 22 31 10 29 30 17 10 12 23 20 23 30 16 11 18 16 10 27 31 33 18 22 30 59 39 45 74 46 60 32 9 69 104 126 207 295 262
15 20 16 17 13 3 8 2 18 81 46 37 39 13 17 6 12 17 3 13 15 3 7 10 10 -7 5 28 2 30 4 26 34 66 49 56 89 32 61 45 53 71 81 109 146 57 107
12 11 15 16 12 4 1 -6 10 55 16 38 29 37 33 6 -5 1 -6 -21 -7 -15 1 3 -3 1 22 -4 -30 -17 -9 -4 30 119 119 138 121 100 161 37 -12 90 65 107 73 2 8
19 20 8 14 19 6 11 12 11 38 25 26 31 22 15 38 28 8 -18 -14 -3 -0 -11 -36 -20 3 -22 -34 -35 -2 46 62 83 122 159 236 231 204 297 107 164 135 123 93 155 154 115
25 28 19 20 15 18 19 19 29 27 39 26 27 19 21 13 4 28 34 18 11 8 1 7 1 21 -16 -35 -29 7 22 46 34 82 102 141 152 265 227 264 276 118 124 204 228 124 145
32 22 27 36 30 16 14 27 44 13 42 30 32 22 20 16 38 26 19 49 55 30 21 45 65 58 59 61 75 105 102 82 80 93 90 95 131 261 238 255 183 179 205 225 192 164 106
33 23 32 60 51 35 18 19 31 24 27 26 36 25 26 16 22 47 55 34 63 57 80 87 52 70 96 125 137 124 104 123 95 137 148 184 199 293 241 262 217 124 235 208 180 154 232
37 24 24 42 58 49 37 26 20 28 26 22 32 30 37 42 36 45 41 71 87 83 61 67 50 63 104 122 120 114 135 136 151 140 162 231 202 271 238 286 137 200 242 225 173 235 218
32 14 20 32 37 37 50 43 23 24 33 22 26 34 48 76 78 119 97 49 76 118 81 107 112 108 88 83 80 109 154 181 165 185 161 185 174 232 264 253 183 309 270 201 315 290 261

GFSGBSN_con_3kmhel_117.txt.gz
Helicity
66 72 65 35 28 18 10 -8 5 7 6 3 20 33 26 22 35 62 59 104 97 87 -6 6 129 232 277 260 203 273 200 177 184 188 194 195 184 185 155 119 136 97 83 79 58 54 50
55 47 67 44 27 26 20 1 -11 9 2 5 12 26 32 31 28 51 50 85 88 22 7 4 114 254 218 261 187 321 254 158 177 190 179 170 155 105 123 122 101 76 61 48 56 53 39
51 43 39 24 34 39 31 23 5 -7 5 5 5 31 32 44 53 43 30 45 34 8 6 54 118 247 339 249 226 363 240 130 132 112 127 162 138 97 111 112 99 79 84 68 54 49 52
50 48 44 29 17 24 32 23 23 14 1 3 -11 4 37 61 54 36 38 30 31 12 9 60 163 161 175 355 418 347 121 127 115 120 115 153 137 98 110 68 118 109 93 101 70 62 58
68 58 72 44 22 12 6 17 28 29 17 20 34 -12 39 53 37 35 31 18 87 42 50 39 100 62 69 348 312 259 176 141 122 127 129 134 116 111 120 119 152 127 116 74 67 51 63
46 34 35 49 37 19 6 16 24 18 22 24 32 34 30 27 10 -24 91 113 184 231 129 62 37 58 79 205 280 260 204 166 160 155 155 139 130 125 153 123 121 120 114 98 76 44 64
54 36 33 47 47 36 53 -1 7 9 14 -9 -16 58 29 43 30 95 146 175 111 112 214 127 111 41 54 225 234 212 199 211 182 176 166 164 179 149 117 116 92 92 107 118 86 51 48
56 46 30 37 45 42 65 30 13 12 11 27 16 17 40 25 49 54 65 88 102 66 188 293 233 150 162 191 176 213 178 189 171 161 149 169 147 108 100 115 115 128 113 115 87 83 67
51 51 30 19 34 37 51 46 25 26 34 14 31 30 41 48 54 135 98 95 132 149 129 260 284 196 195 147 129 173 140 161 141 168 141 127 103 99 98 124 127 124 101 106 83 72 55
47 46 41 23 14 34 23 45 40 33 35 15 21 35 60 50 107 183 126 180 168 116 179 171 198 146 161 148 124 135 124 100 103 99 96 104 85 101 100 115 107 113 91 100 101 89 76
31 40 39 31 20 3 17 6 18 -6 -2 4 7 -55 -34 70 101 89 138 89 73 46 117 106 178 141 138 57 84 102 98 79 79 85 82 87 88 104 111 72 62 86 67 68 61 63 76
27 26 32 29 17 17 -8 5 8 16 -11 -24 15 24 52 68 62 63 73 45 58 131 44 95 134 143 121 122 86 78 78 68 69 81 99 67 58 66 69 56 47 57 62 41 49 58 76
45 26 22 28 20 14 12 24 6 21 47 38 -1 9 28 51 59 53 63 34 59 -11 74 96 100 66 53 63 66 64 52 47 44 57 74 72 49 39 41 60 46 55 67 75 71 73 52
57 46 30 25 27 28 19 11 13 6 19 63 65 45 49 57 36 26 23 50 34 76 58 48 45 56 29 63 68 54 45 42 34 27 35 32 40 25 38 38 50 43 60 65 60 66 63
57 53 43 32 27 26 34 25 31 46 72 58 47 82 109 90 40 12 44 -5 36 54 -7 15 -26 2 36 43 32 48 39 31 32 37 8 20 13 35 28 39 38 45 43 43 62 58 29
51 55 48 39 31 27 36 35 35 32 38 95 94 107 169 125 88 65 38 46 26 34 33 37 61 51 48 53 47 54 55 46 29 27 5 10 -5 7 -5 -18 -0 13 9 -26 -26 -23 -30
43 47 52 51 42 36 32 33 30 30 32 62 84 98 126 102 70 36 111 58 26 10 3 31 36 30 45 57 57 54 57 48 39 48 30 27 1 5 -12 10 21 18 4 -5 -4 -3 -1
19 26 36 46 54 54 49 43 23 30 34 67 70 90 87 68 60 57 68 35 30 27 32 39 50 22 38 49 44 42 45 29 33 20 20 12 1 16 26 -0 57 57 41 71 68 13 90
21 9 15 28 41 59 60 64 52 20 16 47 48 66 60 49 56 57 47 40 31 47 55 39 32 20 17 35 54 36 21 21 26 20 16 12 13 7 1 -0 73 97 83 123 123 152 226
-1 4 1 11 21 31 58 68 80 44 18 29 25 26 35 19 34 29 36 38 31 25 23 16 18 8 19 32 18 29 26 16 23 17 15 -0 36 68 102 44 49 69 56 75 116 213 237
-5 -3 -5 -6 -5 9 7 52 74 66 32 39 18 22 32 13 9 4 1 12 11 18 5 2 8 15 18 38 43 38 17 12 11 16 17 17 75 53 62 32 10 102 147 140 252 341 343
2 -1 2 -11 -13 -10 1 30 61 79 29 31 24 23 -5 4 3 -6 -7 11 14 5 10 16 26 15 21 41 20 35 6 24 31 38 51 50 116 97 124 40 51 119 108 138 213 244 320
23 11 7 -0 -10 -1 5 20 51 79 9 33 24 14 14 18 -9 -19 -0 -5 -3 -3 3 9 4 -4 9 15 -13 -2 14 33 86 100 118 167 165 123 138 97 35 97 92 107 135 175 254
36 28 18 6 14 20 29 29 29 48 31 32 26 28 12 21 22 24 -4 -32 -28 -22 -15 -32 -25 -3 -19 -48 -37 -2 45 67 86 125 273 272 260 171 207 84 79 117 116 86 145 135 223
45 34 26 24 20 29 31 41 42 37 30 32 28 27 25 -5 24 4 30 35 23 7 -11 -20 -33 -15 -52 -66 -40 -16 23 42 37 60 85 182 248 204 159 201 200 -20 21 85 147 77 133
60 44 37 36 28 21 29 33 43 43 31 41 35 38 36 46 16 29 43 40 24 36 30 50 56 23 38 38 28 48 44 51 43 56 114 156 171 264 238 226 146 140 122 122 121 74 68
59 50 40 39 38 27 28 41 33 35 35 18 25 39 40 23 19 45 37 51 67 65 54 53 56 57 74 97 103 93 71 83 53 69 85 129 152 256 196 230 150 127 123 141 126 101 104
71 49 46 34 23 32 29 32 35 27 30 31 4 11 27 40 37 22 61 67 74 100 74 62 47 52 76 81 87 61 83 67 95 140 155 182 162 213 211 243 80 120 150 176 112 162 166
71 68 58 45 21 15 27 32 42 40 33 27 28 15 24 56 60 89 60 24 58 70 86 69 95 102 93 94 85 92 141 136 162 172 199 156 150 189 255 228 214 237 284 189 204 209 213

GFSGBSN_con_3kmhel_120.txt.gz
Helicity
44 52 39 40 35 36 24 -1 -8 2 11 31 29 30 29 21 11 59 62 80 110 69 6 12 27 138 141 186 170 254 331 290 167 180 177 175 161 169 184 162 175 171 148 154 119 100 80
40 41 47 31 42 40 41 19 -2 -5 12 28 33 31 29 6 24 47 68 76 45 40 18 16 47 112 113 155 184 256 287 214 164 163 178 143 149 134 176 172 169 143 136 110 96 67 57
73 71 44 46 48 35 36 29 23 -2 4 21 36 27 28 30 28 26 55 66 -2 20 37 68 94 189 222 182 200 266 212 169 144 116 130 145 136 118 137 151 127 101 120 93 78 62 57
38 38 47 40 51 42 17 20 10 2 4 11 16 24 29 38 40 44 58 41 25 18 67 93 146 180 85 221 294 206 170 141 117 96 92 128 108 113 144 93 145 121 114 113 72 57 51
30 33 48 32 49 41 32 14 15 14 23 35 5 19 55 45 51 27 64 45 45 47 117 161 128 135 112 236 169 257 157 142 135 131 131 122 116 134 140 115 148 138 112 103 88 57 61
31 37 45 51 68 43 38 27 17 20 35 50 42 37 37 26 45 35 147 92 83 145 144 167 97 134 200 178 169 226 177 155 145 161 153 131 114 115 145 121 124 104 108 102 95 86 76
37 19 34 67 66 57 44 33 26 18 -12 18 37 49 31 5 76 78 254 210 138 187 205 207 151 162 202 212 219 225 201 178 147 142 133 137 134 137 116 110 88 87 101 95 81 67 70
51 15 17 39 71 53 47 27 39 18 5 25 26 32 33 52 20 32 58 117 155 157 162 236 148 209 223 187 191 259 190 153 133 138 126 149 130 94 89 99 96 106 104 102 73 73 69
34 37 7 16 38 66 44 34 26 31 11 20 45 57 54 34 44 155 116 144 166 182 101 140 162 203 200 152 165 221 154 170 151 153 136 118 89 94 86 112 106 117 86 91 73 81 62
34 28 21 15 13 26 35 42 42 31 11 10 -2 21 44 66 85 185 126 135 69 130 106 139 174 173 177 180 141 176 130 114 147 128 134 112 98 97 98 105 90 100 75 84 87 95 74
29 26 21 12 28 17 15 19 13 28 -4 -53 -56 -24 62 33 99 119 72 15 12 47 78 114 162 117 131 68 116 126 91 84 106 113 102 104 89 104 111 87 76 85 78 81 60 71 92
35 30 24 10 4 23 30 15 9 -7 -20 -57 -26 10 31 26 25 47 39 26 22 78 77 103 122 122 111 103 87 80 72 74 78 90 110 89 78 83 85 79 82 71 82 63 57 73 102
39 28 26 30 15 3 11 13 0 24 28 20 32 40 47 46 48 23 14 59 105 46 63 55 62 88 64 69 64 55 79 86 64 77 98 102 78 66 64 81 64 68 84 77 87 97 68
44 34 28 22 31 27 7 -9 23 34 21 26 40 27 59 77 52 35 51 78 22 117 75 46 48 63 56 75 70 65 51 41 52 32 49 40 51 49 44 45 50 43 62 91 77 80 60
48 41 32 25 22 29 40 27 6 -3 19 48 50 86 105 99 65 34 29 -15 66 110 52 34 66 72 77 67 54 55 49 31 36 35 15 7 14 38 34 56 58 50 56 63 61 74 34
23 35 38 32 24 28 29 26 26 13 12 40 53 69 121 118 104 90 17 47 39 41 37 27 37 39 53 54 40 40 37 27 17 15 12 8 23 3 -7 -1 -10 9 46 19 11 16 3
24 25 32 39 41 32 37 30 23 31 37 73 61 73 118 100 87 38 88 53 39 44 24 38 47 38 44 56 59 54 50 40 36 30 16 12 -4 10 -16 1 19 32 31 22 16 47 27
7 15 24 30 42 51 41 44 24 21 58 64 72 69 78 61 37 60 61 44 40 37 31 42 50 39 47 48 43 40 51 35 23 13 7 9 -9 14 31 -1 19 51 51 107 61 33 88
-6 0 10 19 40 56 64 47 39 19 35 58 41 56 55 42 36 46 37 25 28 30 40 26 30 17 19 35 39 25 21 13 22 9 12 10 8 11 -3 -14 7 38 47 70 49 46 195
-7 -5 3 8 27 38 61 82 64 31 43 32 27 22 19 9 23 11 19 24 22 18 21 14 19 8 7 22 13 28 22 9 8 8 7 -8 35 69 121 36 26 126 88 104 137 268 249
11 5 -3 -8 12 26 30 72 87 55 41 37 16 15 19 14 3 -5 -2 11 13 26 3 0 9 14 16 30 26 28 6 -1 -6 -3 2 5 73 74 82 80 123 219 231 212 398 480 496
30 16 6 -10 -15 -12 14 58 80 82 36 24 13 18 7 -1 -7 -11 -13 17 26 10 6 10 20 5 12 30 28 23 -3 9 17 11 31 11 114 66 86 94 89 143 153 228 261 264 334
46 26 10 3 2 -13 -5 23 70 97 7 34 13 7 4 14 5 -23 -7 -9 -7 -10 -9 -8 -6 -20 -7 6 -8 -4 2 -2 1 75 101 110 96 40 63 19 26 73 68 104 165 166 239
43 33 23 15 9 2 -7 8 32 55 14 30 21 26 27 -4 -13 7 12 -5 -23 -27 -27 -33 -18 -26 -36 -56 -46 -30 6 30 52 130 185 176 161 105 130 11 36 63 56 94 186 205 259
52 47 32 27 18 9 -2 3 26 27 11 10 28 33 40 18 20 9 20 20 -1 11 34 18 0 14 18 -24 -52 -24 5 29 65 103 116 209 224 134 84 98 147 -13 39 61 73 80 105
52 49 47 33 23 20 14 2 16 25 22 15 4 21 43 60 9 21 21 27 10 26 24 51 60 69 81 76 66 64 41 57 36 52 81 135 160 202 191 130 47 57 68 64 69 13 76
66 54 42 41 36 28 21 21 16 20 37 21 -8 20 31 46 40 71 26 22 48 48 13 27 45 58 82 74 71 56 35 64 35 59 77 120 131 176 105 118 74 86 61 131 81 92 109
71 67 33 33 42 37 27 27 25 27 28 30 6 8 16 33 39 39 72 88 84 78 40 29 44 54 72 49 43 32 50 46 81 109 122 153 132 152 167 180 19 107 134 155 120 138 119
70 68 55 51 53 37 29 25 33 35 37 38 28 31 34 43 37 78 72 50 55 79 77 55 54 64 69 83 75 82 87 113 105 115 172 121 133 118 238 214 179 233 248 197 221 175 152

GFSGBSN_con_3kmhel_123.txt.gz
Helicity
80 41 42 40 34 42 16 -8 -1 17 22 38 15 9 4 20 66 186 130 103 98 77 23 67 164 144 135 183 184 245 316 277 204 167 174 142 153 166 184 160 165 181 168 169 141 135 108
38 33 35 27 25 30 23 17 -5 7 22 18 18 14 14 34 30 51 78 75 48 18 -4 37 146 179 140 173 162 256 278 200 171 140 155 137 134 99 153 177 175 146 160 151 152 134 108
34 42 33 42 27 28 16 15 10 8 -0 -4 10 9 32 49 51 81 65 47 53 37 -23 32 -38 159 141 178 168 253 197 177 174 134 142 150 122 126 150 162 135 168 173 153 144 108 77
39 48 47 55 51 33 11 12 26 44 16 2 25 18 29 49 73 80 41 41 63 55 -13 7 11 129 117 150 190 170 189 162 139 129 121 144 112 128 192 130 200 160 145 126 93 82 60
31 48 43 69 79 45 23 19 46 37 33 12 42 44 38 38 31 54 77 60 128 102 87 82 71 63 157 147 152 227 166 147 140 137 140 112 115 156 168 152 176 161 116 110 97 68 69
17 37 42 61 56 49 30 15 22 7 -4 20 36 38 39 48 92 84 151 78 81 131 170 59 81 90 137 162 189 203 182 140 131 147 145 140 137 137 174 154 103 104 116 107 98 88 75
21 26 43 36 58 54 20 21 10 13 -0 10 13 15 45 60 118 119 152 138 156 227 248 119 123 127 153 170 171 186 172 167 147 147 132 132 140 159 133 107 86 92 116 109 73 54 60
35 19 28 26 50 49 45 28 27 16 19 21 28 -8 3 32 72 75 88 112 153 181 253 202 143 197 192 158 166 232 152 127 124 133 124 132 123 101 99 97 91 106 103 97 63 54 50
44 32 19 21 22 42 44 46 37 37 40 20 19 40 20 55 75 134 102 126 138 80 131 316 287 269 255 170 166 219 142 136 127 141 124 94 83 84 70 87 99 100 81 80 68 74 53
43 31 35 21 11 24 11 9 47 36 32 36 71 84 -36 56 69 82 68 104 101 88 163 269 312 177 160 158 141 170 152 105 125 100 114 83 84 76 78 93 79 87 63 70 74 84 51
36 38 24 27 23 9 -8 -22 -38 -31 1 16 33 19 78 88 106 46 52 74 90 58 153 167 238 154 139 88 127 147 114 97 98 102 86 86 88 101 112 81 72 71 59 62 56 69 86
28 30 31 27 17 13 13 11 -12 -37 -36 -12 -4 -4 25 59 37 26 -3 17 29 94 89 107 137 123 93 105 97 111 91 84 74 94 109 95 92 88 74 75 77 64 71 88 94 91 107
42 29 29 28 25 23 18 18 23 47 68 44 32 18 12 24 38 25 6 10 15 61 122 97 68 82 92 91 79 67 90 113 98 122 140 137 101 73 60 85 63 67 85 71 83 120 75
55 45 25 14 23 35 27 22 30 18 21 54 74 53 63 55 41 43 38 29 -32 83 76 81 79 57 46 73 64 54 38 43 42 52 91 77 63 46 40 40 41 54 70 89 91 96 73
38 46 45 35 19 14 17 27 40 27 37 44 33 81 116 112 86 45 44 41 46 81 61 50 61 46 63 49 40 43 39 28 34 24 25 32 37 49 43 63 67 58 66 53 78 73 41
27 29 39 45 42 31 22 14 27 41 56 96 90 93 137 111 114 64 44 55 24 51 43 26 39 33 39 49 36 35 36 37 31 31 30 15 27 29 46 43 22 10 44 45 69 17 -6
21 23 27 34 43 44 38 17 11 22 62 103 76 89 98 88 71 49 65 45 51 64 56 70 66 39 36 38 37 40 32 32 22 13 19 6 11 22 1 -13 14 44 20 18 10 39 82
2 18 18 27 41 43 39 33 10 11 59 60 55 53 60 48 28 56 43 38 50 45 37 37 39 38 48 49 43 43 47 39 14 -0 -0 5 -23 -3 -0 -14 -17 -2 17 67 62 52 100
-2 5 11 17 42 56 42 38 26 16 49 44 22 37 57 33 31 35 23 13 22 23 28 18 14 14 20 24 18 9 5 -1 -13 -12 -14 -9 -6 -2 -4 -12 -9 13 32 78 65 116 299
14 3 -0 6 27 39 47 39 51 17 70 34 19 10 16 16 20 1 11 21 21 18 22 20 20 10 7 13 5 13 8 -4 -11 -18 -25 -40 -5 36 70 -0 -26 67 70 115 224 316 376
23 9 1 -3 5 18 33 37 48 33 84 37 15 30 16 6 3 -7 -2 15 20 28 7 4 12 14 14 21 16 20 -2 -12 -18 -12 -11 -15 31 28 45 52 96 194 212 213 381 452 427
46 38 14 3 -10 -5 8 30 61 57 72 49 55 26 16 29 -0 -14 -8 9 12 4 -2 6 6 -2 4 12 10 13 -14 -3 2 -9 9 1 56 14 63 52 51 107 128 177 207 218 305
45 43 38 25 2 -13 -10 15 44 85 27 47 32 17 36 16 32 18 4 -18 -16 -30 -26 -27 -22 -28 -10 4 -18 -20 -20 -32 -20 25 73 97 70 8 15 3 -18 26 59 66 92 143 183
50 45 39 40 30 6 -7 1 8 26 19 28 25 36 43 36 42 38 45 48 26 -1 -18 -28 -42 -53 -32 2 -37 -44 -28 -1 36 89 155 171 159 92 80 32 26 52 107 151 172 145 242
68 57 50 56 44 29 19 11 20 18 12 -23 -1 17 9 14 38 26 38 34 42 38 52 41 21 20 33 32 -4 6 45 53 63 81 110 159 169 78 30 54 32 -1 55 62 101 40 111
67 62 66 65 43 35 30 32 31 28 21 6 -22 3 21 19 10 47 53 45 28 27 36 41 52 51 68 39 37 38 24 45 29 41 56 107 112 151 137 57 9 26 66 45 55 31 82
70 75 69 56 52 43 30 29 40 44 37 5 -8 1 10 10 9 55 37 49 62 56 53 57 61 67 85 65 45 36 34 31 36 33 49 90 112 143 116 86 32 69 97 82 18 36 98
66 68 61 49 42 56 45 29 28 39 53 20 -6 -2 5 3 7 39 61 83 76 74 44 37 58 21 52 33 23 22 40 31 54 71 82 103 98 97 110 43 -21 63 79 82 72 47 16
69 60 54 48 49 63 46 34 27 24 36 29 28 19 24 54 39 67 86 81 68 52 69 63 28 42 53 92 48 61 76 102 114 74 100 78 75 90 108 98 137 129 149 139 135 104 89

GFSGBSN_con_3kmhel_129.txt.gz
Helicity
73 62 50 20 5 1 4 18 25 15 9 4 44 112 25 18 140 81 56 26 54 47 94 189 287 219 157 183 167 206 226 191 137 116 149 149 164 164 186 166 174 167 154 177 157 167 157
51 42 35 24 7 9 25 15 19 6 18 23 25 51 67 36 63 55 38 17 45 25 37 157 257 262 164 192 168 234 196 147 133 121 134 152 121 119 166 186 173 148 164 161 179 165 141
43 42 33 12 2 -8 3 12 18 -5 11 16 -9 36 79 80 72 41 34 52 42 5 28 153 412 260 217 177 173 227 160 177 158 91 121 139 120 135 153 175 127 142 180 161 200 151 125
45 37 31 15 -2 -6 7 21 19 1 -15 -4 18 39 22 77 72 65 49 30 54 51 67 290 531 295 181 182 187 202 186 172 189 161 111 91 94 119 162 116 203 173 166 145 140 149 101
18 44 36 12 4 5 7 11 9 11 9 2 50 14 32 61 108 79 54 32 2 -6 106 336 374 271 268 192 183 236 157 160 188 149 142 103 99 147 188 174 201 192 106 111 95 110 92
19 22 41 30 14 16 12 21 22 18 42 35 58 45 70 88 106 131 40 24 1 6 91 174 299 177 234 237 225 204 158 128 151 162 161 153 136 162 205 155 95 74 80 79 77 88 82
23 7 20 12 48 36 25 -5 11 22 21 34 34 24 39 25 86 76 83 25 54 184 176 16 261 220 232 237 186 201 153 148 160 176 186 188 170 149 131 129 81 70 88 82 72 54 55
22 24 16 6 4 58 59 21 -21 12 22 27 45 45 32 51 11 91 65 45 76 90 132 270 209 203 199 191 218 263 122 147 175 201 193 178 154 138 120 112 90 95 88 91 47 41 48
39 20 30 41 17 0 25 -15 -32 -42 -18 14 27 42 58 54 72 121 112 94 140 161 279 301 216 245 254 168 231 272 131 164 183 210 192 121 114 118 93 100 86 93 72 75 69 53 49
37 39 37 32 40 14 -15 -8 -40 -39 -22 10 29 53 46 72 13 120 108 154 104 87 189 280 234 181 192 165 203 188 144 123 180 147 149 115 115 76 71 76 55 73 37 46 59 69 68
54 43 39 50 44 28 17 0 0 -11 -2 12 26 46 28 -7 58 69 116 71 41 57 152 150 192 153 152 108 154 207 126 134 111 114 93 106 80 69 74 52 38 49 38 47 51 63 69
52 52 44 43 49 54 38 32 41 47 23 17 19 31 3 8 27 44 58 46 30 95 82 94 133 131 118 150 134 153 109 95 75 89 123 70 69 62 47 45 41 23 46 72 79 73 88
38 47 50 42 44 45 44 40 41 54 61 53 34 17 -2 10 38 19 32 19 56 56 108 86 90 93 91 132 119 103 102 110 78 80 109 98 75 56 44 57 44 44 68 48 58 86 59
29 33 49 59 54 44 40 44 43 56 64 78 79 61 36 11 5 3 6 39 90 100 92 71 75 79 73 104 102 106 86 90 86 74 82 65 69 67 48 52 57 73 68 76 63 78 39
23 28 29 44 60 65 47 42 62 50 69 102 102 86 78 47 22 6 24 25 79 115 61 47 65 64 81 84 56 69 83 69 59 53 64 65 82 66 61 69 63 53 76 59 83 39 -6
22 25 31 32 44 56 61 42 47 65 72 89 87 90 88 58 44 30 11 56 59 66 65 64 34 43 39 62 65 68 68 51 44 50 48 35 74 61 61 51 76 61 47 18 11 -34 -28
14 18 27 34 43 47 57 50 44 40 86 93 54 62 101 67 51 37 57 26 39 52 52 45 38 31 26 32 36 40 30 31 22 27 37 24 53 42 44 17 17 65 -41 -43 -49 -30 46
14 4 15 30 42 46 51 50 37 61 75 52 57 34 57 36 33 50 40 38 51 39 45 39 35 36 33 31 32 16 8 2 6 15 17 29 28 -23 -26 0 -27 -38 -38 -26 7 24 56
31 18 0 20 45 55 55 51 32 80 84 57 34 46 61 28 37 45 29 15 19 24 31 29 27 29 30 23 14 21 23 28 11 9 -7 -8 -8 -32 -16 -23 -8 -24 -37 -23 1 60 155
36 31 21 10 18 39 45 43 25 82 91 41 40 29 22 19 37 31 31 29 22 12 13 14 16 12 10 10 4 13 4 3 -5 -12 -33 -36 -28 -27 -27 -53 -78 -38 -35 39 128 137 150
44 41 34 29 22 23 47 24 0 85 86 50 33 38 41 37 21 16 9 24 22 31 10 7 6 11 10 9 1 2 -11 -16 -19 -31 -34 -56 -31 -46 -32 -29 -23 60 57 106 242 264 177
51 50 49 49 48 47 51 49 6 49 65 48 63 70 29 23 19 21 6 5 6 4 -1 8 7 7 2 1 -3 4 -18 -20 -23 -25 -39 -24 -30 -64 -33 -58 -10 7 34 102 142 154 177
60 50 48 44 47 56 64 78 58 18 41 18 18 19 42 29 26 13 15 21 25 -7 -16 -20 -22 -32 -32 -28 -34 -47 -47 -43 -15 1 20 55 29 -24 -23 64 -21 5 94 36 82 118 153
64 57 56 50 46 36 38 56 69 63 12 -8 -12 3 6 -25 -4 14 21 16 4 7 3 -2 19 -4 17 44 54 78 107 103 100 117 141 104 80 28 33 46 87 67 53 83 145 76 121
70 65 60 62 54 48 38 37 51 34 35 -24 -13 -2 3 4 -3 -18 4 6 7 20 20 17 27 22 21 23 17 24 42 46 70 112 106 137 134 73 60 72 49 87 76 60 41 71 55
75 72 71 71 74 62 54 44 44 56 26 8 -4 -12 19 22 -2 10 25 17 13 17 27 36 49 52 78 51 54 41 31 34 42 53 83 99 90 115 109 74 45 92 41 43 42 62 101
70 62 63 69 74 75 64 54 55 66 46 15 18 8 30 22 2 47 31 29 74 72 53 37 49 61 76 73 61 53 60 66 74 68 87 109 98 128 138 110 51 53 99 37 77 84 36
64 61 62 70 77 70 67 62 56 66 65 23 9 23 36 48 30 36 47 84 99 88 79 72 85 79 95 76 63 52 56 60 74 75 76 97 111 105 128 94 42 56 138 69 61 29 22
65 62 67 71 74 69 68 68 66 60 58 34 42 31 33 48 50 86 103 86 137 111 108 114 106 85 70 111 91 75 60 74 87 85 101 89 102 112 96 59 83 96 69 68 27 4 2

GFSGBSN_con_3kmhel_132.txt.gz
Helicity
58 40 24 6 2 16 25 25 8 26 28 11 -5 11 22 89 68 43 36 48 59 205 293 284 174 125 140 156 172 170 212 162 127 128 137 141 157 173 175 147 145 127 124 141 137 133 138
58 41 33 13 -3 14 24 13 22 14 10 3 -7 -31 57 31 14 33 41 23 50 114 202 304 266 70 94 168 149 196 177 126 122 129 137 150 152 131 154 183 167 118 122 138 158 151 139
45 51 41 36 29 16 10 -0 21 5 15 6 -28 41 64 -5 -2 17 41 31 50 74 88 148 213 182 148 157 170 185 147 130 122 128 133 141 143 151 163 150 137 122 154 140 183 160 136
25 54 46 50 43 22 14 13 29 15 25 2 -31 -8 88 56 6 17 39 43 63 106 83 86 196 149 208 174 181 173 168 127 120 141 121 125 110 142 192 130 200 165 145 136 142 149 103
6 29 61 56 49 25 21 25 18 14 -10 31 35 17 76 62 34 46 40 -0 -4 77 162 132 123 200 211 179 182 212 172 140 138 146 147 134 137 179 175 157 205 186 131 136 123 122 105
29 7 29 73 67 22 9 10 7 19 23 32 43 40 77 50 44 41 36 46 25 76 123 165 152 134 205 199 200 193 163 134 135 146 159 166 150 164 202 195 164 129 128 127 111 104 85
33 31 10 47 80 52 18 34 23 8 15 15 42 51 63 17 43 27 47 141 80 155 179 182 224 185 213 205 162 157 143 148 135 128 178 176 174 175 184 184 153 118 100 88 76 77 62
29 32 27 5 32 43 29 35 25 12 4 17 36 54 71 51 32 17 94 44 27 99 79 277 239 216 183 174 189 171 137 157 161 183 191 173 174 150 135 123 99 85 64 74 57 59 57
28 33 28 16 9 10 -10 -23 19 12 19 24 43 68 23 48 61 102 111 88 101 217 232 210 222 235 234 186 196 219 141 163 189 190 174 141 125 117 101 91 77 101 91 87 84 70 38
40 29 29 27 16 12 36 -3 -20 2 18 38 61 71 13 54 31 119 113 186 137 105 173 239 217 171 183 177 199 176 144 147 181 163 186 165 147 105 89 99 109 87 66 67 74 79 74
46 47 36 32 31 18 12 38 11 -7 3 20 37 -2 -73 -77 51 90 118 90 88 99 170 114 158 144 131 133 173 180 120 134 134 138 126 137 125 104 109 92 83 76 41 45 44 61 65
37 43 54 50 39 40 26 -1 18 17 12 14 9 -12 -1 -17 12 26 48 53 46 72 80 93 139 127 134 157 158 189 145 126 119 128 143 100 95 97 74 60 58 23 28 34 44 57 50
43 43 47 59 59 42 44 31 -0 8 19 17 11 -13 -23 -2 33 20 34 30 58 41 92 73 99 113 104 145 135 138 133 129 110 110 132 101 103 72 60 51 36 28 42 30 23 52 68
32 40 50 59 66 61 37 43 52 21 13 34 47 18 -8 -7 9 27 25 41 32 55 60 80 94 79 81 131 102 109 88 95 88 89 102 89 86 78 67 69 67 63 57 48 30 41 66
25 29 44 49 59 67 51 37 51 60 68 60 46 51 50 1 15 41 55 25 32 64 54 46 69 57 70 72 63 67 73 75 68 85 83 67 70 57 57 55 60 60 49 67 73 49 21
11 23 33 47 51 59 66 39 37 52 71 117 101 92 69 43 45 57 27 47 23 47 55 64 48 50 37 48 60 60 63 51 48 61 74 43 41 63 64 60 73 62 69 45 33 -8 -30
-5 11 23 37 52 55 62 42 32 36 76 86 74 98 76 51 62 37 45 31 28 32 35 37 34 25 37 41 51 53 47 50 53 59 74 57 70 53 63 27 42 65 39 -9 -17 -23 5
15 6 29 36 48 59 52 39 31 52 62 57 50 59 56 50 55 56 55 8 28 32 38 43 19 14 7 18 34 37 32 44 26 32 45 52 55 51 58 56 51 9 -23 -35 -18 -23 11
17 17 22 40 50 47 44 37 40 85 67 41 28 36 60 40 36 43 35 32 31 26 17 18 16 24 29 17 21 24 25 38 27 27 30 28 22 -8 -29 -41 -21 -22 -42 -37 -14 31 62
25 23 20 26 42 51 29 20 36 93 74 43 33 25 26 20 27 19 24 20 21 24 23 20 15 22 18 7 13 -1 1 17 18 23 18 -6 -11 -0 -8 -32 -34 -44 -58 -10 43 94 47
35 30 32 31 38 47 49 26 -3 66 78 56 36 34 18 14 1 4 9 10 12 14 -2 2 1 6 5 1 -4 -3 -8 -15 -14 -30 -24 -15 -15 -25 -13 -27 -29 1 11 78 192 177 113
51 38 41 43 45 51 60 50 27 26 58 28 34 56 37 17 9 15 7 2 1 -1 2 -7 -2 -13 -16 -19 -18 -16 -29 -26 -32 -34 -32 -25 -21 -42 -49 -29 -15 28 13 26 68 65 87
56 50 45 51 59 60 69 78 58 35 16 6 3 2 14 21 34 21 15 19 23 6 -13 -17 -22 -31 -27 -24 -26 -17 -12 6 -14 -47 -27 -9 -1 -25 -43 29 -14 6 24 74 103 76 47
65 57 60 59 58 62 66 78 88 74 23 2 4 -6 -16 5 -2 11 22 17 21 12 21 17 15 25 30 44 43 53 81 92 106 126 137 78 59 25 14 42 44 96 102 50 57 71 72
75 68 66 68 63 57 60 68 77 65 60 8 6 -0 -7 -0 -8 12 24 18 20 11 19 33 44 66 67 35 16 1 15 37 74 129 115 136 94 56 59 70 58 61 88 119 106 112 123
86 75 71 66 66 66 55 55 64 71 46 25 20 8 11 12 6 21 21 20 26 37 35 38 48 59 63 59 43 41 41 43 46 47 64 92 98 77 81 74 61 122 105 82 83 87 130
88 80 70 65 64 64 59 55 60 73 57 26 31 29 31 30 32 43 38 30 39 46 54 44 46 55 64 56 65 64 72 77 64 64 66 106 100 71 86 117 64 117 120 91 142 181 86
89 83 77 72 66 70 64 59 56 67 67 28 31 36 42 50 53 53 48 69 73 74 61 73 51 74 104 79 66 69 63 69 77 93 80 94 113 90 93 106 105 88 113 145 136 56 47
90 83 83 82 71 67 74 65 57 51 61 40 54 37 35 50 64 79 96 112 108 105 102 80 88 85 80 88 66 78 84 87 68 91 107 111 128 118 90 101 116 77 134 91 101 12 18